[[{"header":{"parameterUnit":"m.s-1","parameterCategory":1,"la1":30.6,"la2":29.2853,"lo1":-89.7004,"lo2":-87.6739,"dy":0.0162,"dx":0.0183,"nx":112,"ny":82,"refTime":"2024-04-29T18:00:00:Z","depth":0,"parameterNumber":2,"parameterNumberName":"U-component_of_WINDS"},"data":[0.0,0.0,0.0,0.0,0.0,0.0,0.0,0.0,0.0,0.0,0.0,0.0,0.0,0.0,0.0,0.0,0.0,0.0,0.0,0.0,0.0,0.0,0.0,0.0,0.0,0.0,0.0,0.0,0.0,0.0,0.0,0.0,0.0,0.0,0.0,0.0,0.0,0.0,0.0,0.0,0.0,0.0,0.0,0.0,0.0,0.0,0.0,0.0,0.0,0.0,0.0,0.0,0.0,0.0,0.0,0.0,0.0,0.0,0.0,0.0,0.0,0.0,0.0,0.0,0.0,0.0,0.0,0.0,0.0,0.0,0.0,0.0,0.0,0.0,0.0,0.0,0.0,0.0,0.0,0.0,0.0,0.0,0.0,0.0,0.0,0.0,0.0,0.0,0.0,0.0,0.2446,0.2702,0.4306,0.5377,0.5363,0.5737,0.4357,0.0629,0.0,0.0,0.0,0.0,0.0,0.0,0.0,0.0,0.0,0.0,0.0,0.0,0.0,0.0,0.0,0.0,0.0,0.0,0.0,0.0,0.0,0.0,0.0,0.0,0.0,0.0,0.0,0.0,0.0,0.0,0.0,0.0,0.0,0.0,0.0,0.0,0.0,0.0,0.0,0.0,0.0,0.0,0.0,0.0,0.0,0.0,0.0,0.0,0.0,0.0,0.0,0.0,0.0,0.0,0.0,0.0,0.0,0.0,0.0,0.0,0.0,0.0,0.0,0.0,0.0,0.0,0.0,0.0,0.0,0.0,0.0,0.0,0.0,0.0,0.0,0.0,0.0,0.0,0.0,0.0,0.0,0.0,0.0,0.0,0.0,0.0,0.0,0.0,0.0,0.0,0.0,0.0,0.0,0.0,0.0,0.0,0.0,0.0,0.0,0.0,0.0,0.0,0.0,0.0,0.2712,0.4028,0.4483,0.4584,0.4407,0.4626,0.3517,0.0585,0.0,0.0,0.0,0.0,0.0,0.0,0.0,0.0,0.0,0.0,0.0,0.0,0.0,0.0,0.0,0.0,0.0,0.0,0.0,0.0,0.0,0.0,0.0,0.0,0.0,0.0,0.0,0.0,0.0,0.0,0.0,0.0,0.0,0.0,0.0,0.0,0.0,0.0,0.0,0.0,0.0,0.0,0.0,0.0,0.0,0.0,0.0,0.0,0.0,0.0,0.0,0.0,0.0,0.0,0.0,0.0,0.0,0.0,0.0,0.0,0.0,0.0,0.0,0.0,0.0,0.0,0.0,0.0,0.0,0.0,0.0,0.0,0.0,0.0,0.0,0.0,0.0,0.0,0.0,0.0,0.0,0.0,0.0,0.0,0.0,0.0,0.0,0.0,0.0,0.0,0.0,0.0,0.0,0.0,0.0,0.0,0.0,0.0,0.0,0.0,0.0,0.0,0.0,0.1965,0.2602,0.4182,0.426,0.3915,0.3186,0.3218,0.2078,-0.0623,-0.2006,0.0,0.0,0.0,0.0,0.0,0.0,0.0,0.0,0.0,0.0,0.0,0.0,0.0,0.0,0.0,0.0,0.0,0.0,0.0,0.0,0.0,0.0,0.0,0.0,0.0,0.0,0.0,0.0,0.0,0.0,0.0,0.0,0.0,0.0,0.0,0.0,0.0,0.0,0.0,0.0,0.0,0.0,0.0,0.0,0.0,0.0,0.0,0.0,0.0,0.0,0.0,0.0,0.0,0.0,0.0,0.0,0.0,0.0,0.0,0.0,0.0,0.0,0.0,0.0,0.0,0.0,0.0,0.0,0.0,0.0,0.0,0.0,0.0,0.0,0.0,0.0,0.0,0.0,0.0,0.0,0.0,0.0,0.0,0.0,0.0,0.0,0.0,0.0,0.0,0.0,0.0,0.0,0.0,0.0,0.0,0.0,0.0,0.0,0.0,0.0,0.0,0.0,0.2423,0.2692,0.3938,0.4031,0.3617,0.2633,0.202,0.0738,-0.1457,-0.2359,0.0,0.0,0.0,0.0,0.0,0.0,0.0,0.0,0.0,0.0,0.0,0.0,0.0,0.0,0.0,0.0,0.0,0.0,0.0,0.0,0.0,0.0,0.0,0.0,0.0,0.0,0.0,0.0,0.0,0.0,0.0,0.0,0.0,0.0,0.0,0.0,0.0,0.0,0.0,0.0,0.0,0.0,0.0,0.0,0.0,0.0,0.0,0.0,0.0,0.0,0.0,0.0,0.0,0.0,0.0,0.0,0.0,0.0,0.0,0.0,0.0,0.0,0.0,0.0,0.0,0.0,0.0,0.0,0.0,0.0,0.0,0.0,0.0,0.0,0.0,0.0,0.0,0.0,0.0,0.0,0.0,0.0,0.0,0.0,0.0,0.0,0.0,0.0,0.0,0.0,0.0,0.0,0.0,0.0,0.0,0.0,0.0,0.0,0.0,0.0,0.0,0.0,0.215,0.3502,0.3648,0.3975,0.4004,0.3564,0.1439,-0.0147,-0.0907,-0.2307,0.0,0.0,0.0,0.0,0.0,0.0,0.0,0.0,0.0,0.0,0.0,0.0,0.0,0.0,0.0,0.0,0.0,0.0,0.0,0.0,0.0,0.0,0.0,0.0,0.0,0.0,0.0,0.0,0.0,0.0,0.0,0.0,0.0,0.0,0.0,0.0,0.0,0.0,0.0,0.0,0.0,0.0,0.0,0.0,0.0,0.0,0.0,0.0,0.0,0.0,0.0,0.0,0.0,0.0,0.0,0.0,0.0,0.0,0.0,0.0,0.0,0.0,0.0,0.0,0.0,0.0,0.0,0.0,0.0,0.0,0.0,0.0,0.0,0.0,0.0,0.0,0.0,0.0,0.0,0.0,0.0,0.0,0.0,0.0,0.0,0.0,0.0,0.0,0.0,0.0,0.0,0.0,0.0,0.0,0.0,0.0,0.0,0.0,0.0,0.0,0.0,0.0,0.0784,0.1913,0.3457,0.3627,0.3544,0.3306,0.246,0.1138,-0.079,0.0,0.0,0.0,0.0,0.0,0.0,0.0,0.0,0.0,0.0,0.0,0.0,0.0,0.0,0.0,0.0,0.0,0.0,0.0,0.0,0.0,0.0,0.0,0.0,0.0,0.0,0.0,0.0,0.0,0.0,0.0,0.0,0.0,0.0,0.0,0.0,0.0,0.0,0.0,0.0,0.0,0.0,0.0,0.0,0.0,0.0,0.0,0.0,0.0,0.0,0.0,0.0,0.0,0.0,0.0,0.0,0.0,0.0,0.0,0.0,0.0,0.0,0.0,0.0,0.0,0.0,0.0,0.0,0.0,0.0,0.0,0.0,0.0,0.0,0.0,0.0,0.0,0.0,0.0,0.0,0.0,0.0,0.0,0.0,0.0,0.0,0.0,0.0,0.0,0.0,0.0,0.0,0.0,0.0,0.0,0.0,0.0,0.0,0.0,0.0,0.0,0.0,-0.0,-0.0,0.0646,0.0,0.2695,0.2893,0.3086,0.3038,0.2071,-0.0066,0.0,0.0,0.0,0.0,0.0,0.0,0.0,0.0,0.0,0.0,0.0,0.0,0.0,0.0,0.0,0.0,0.0,0.0,0.0,0.0,0.0,0.0,0.0,0.0,0.0,0.0,0.0,0.0,0.0,0.0,0.0,0.0,0.0,0.0,0.0,0.0,0.0,0.0,0.0,0.0,0.0,0.0,0.0,0.0,0.0,0.0,0.0,0.0,0.0,0.0,0.0,0.0,0.0,0.0,0.0,0.0,0.0,0.0,0.0,0.0,0.0,0.0,0.0,0.0,0.0,0.0,0.0,0.0,0.0,0.0,0.0,0.0,0.0,0.0,0.0,0.0,0.0,0.0,0.0,0.0,0.0,0.0,0.0,0.0,0.0,0.0,0.0,0.0,0.0,0.0,0.0,0.0,0.0,0.0,0.0,0.0,0.0,0.0,0.0,0.0,0.0,0.0,-0.0,-0.0,-0.0,-0.0,0.1083,0.2126,0.3015,0.2862,0.2292,0.0,0.0,0.0,0.0,0.0,0.0,0.0,0.0,0.0,0.0,0.0,0.0,0.0,0.0,0.0,0.0,0.0,0.0,0.0,0.0,0.0,0.0,0.0,0.0,0.0,0.0,0.0,0.0,0.0,0.0,0.0,0.0,0.0,0.0,0.0,0.0,0.0,0.0,0.0,0.0,0.0,0.0,0.0,0.0,0.0,0.0,0.0,0.0,0.0,0.0,0.0,0.0,0.0,0.0,0.0,0.0,0.0,0.0,0.0,0.0,0.0,0.0,0.0,0.0,0.0,0.0,0.0,0.0,0.0,0.0,0.0,0.0,0.0,0.0,0.0,0.0,0.0,0.0,0.0,0.0,0.0,0.0,0.0,0.0,0.0,0.0,0.0,0.0,0.0,0.0,0.0,0.0,0.0,0.0,0.0,0.0,0.0,0.0,0.0,0.0,0.0,0.0,0.0,-0.0,-0.0,-0.0,-0.0,0.0331,0.0979,0.2095,0.2491,0.2398,0.1699,0.0,0.0,0.0,0.0,0.0,0.0,0.0,0.0,0.0,0.0,0.0,0.0,0.0,0.0,0.0,0.0,0.0,0.0,0.0,0.0,0.0,0.0,0.0,0.0,0.0,0.0,0.0,0.0,0.0,0.0,0.0,0.0,0.0,0.0,0.0,0.0,0.0,0.0,0.0,0.0,0.0,0.0,0.0,0.0,0.0,0.0,0.0,0.0,0.0,0.0,0.0,0.0,0.0,0.0,0.0,0.0,0.0,0.0,0.0,0.0,0.0,0.0,0.0,0.0,0.0,0.0,0.0,0.0,0.0,0.0,0.0,0.0,0.0,0.0,0.0,0.0,0.0,0.0,0.0,0.0,0.0,0.0,0.0,0.0,0.0,0.0,0.0,0.0,0.0,0.0,0.0,0.0,0.0,0.0,0.0,0.0,0.0,0.0,0.0,0.0,0.0,0.0,-0.0,-0.0,-0.0,-0.0,-0.0,0.0292,0.1014,0.1855,0.1979,0.1148,0.0,0.0,0.0,0.0,0.0,0.0,0.0,0.0,0.0,0.0,0.0,0.0,0.0,0.0,0.0,0.0,0.0,0.0,0.0,0.0,0.0,0.0,0.0,0.0,0.0,0.0,0.0,0.0,0.0,0.0,0.0,0.0,0.0,0.0,0.0,0.0,0.0,0.0,0.0,0.0,0.0,0.0,0.0,0.0,0.0,0.0,0.0,0.0,0.0,0.0,0.0,0.0,0.0,0.0,0.0,0.0,0.0,0.0,0.0,0.0,0.0,0.0,0.0,0.0,0.0,0.0,0.0,0.0,0.0,0.0,0.0,0.0,0.0,0.0,0.0,0.0,0.0,0.0,0.0,0.0,0.0,0.0,0.0,0.0,0.0,0.0,0.0,0.0,0.0,0.0,0.0,0.0,0.0,0.0,0.0,0.0,0.0,0.0,0.0,0.0,0.0,0.0,-0.0,-0.0,-0.0,-0.0,-0.0,-0.0,-0.0,0.1005,0.1176,0.0059,0.0,0.0,0.0,0.0,0.0,0.0,0.0,0.0,0.0,0.0,0.0,0.0,0.0,0.0,0.0,0.0,0.0,0.0,0.0,0.0,0.0,0.0,0.0,0.0,0.0,0.0,0.0,0.0,0.0,0.0,0.0,0.0,0.0,0.0,0.0,0.0,0.0,0.0,0.0,0.0,0.0,0.0,0.0,0.0,0.0,0.0,0.0,0.0,0.0,0.0,0.0,0.0,0.0,0.0,0.0,0.0,0.0,0.0,0.0,0.0,0.7896,0.0,0.0,0.0,0.0,0.0,0.0,0.0,0.0,0.0,0.0,0.0,0.0,0.0,0.0,0.0,0.0,0.0,0.0,0.0,0.0,0.0,0.0,0.0,0.0,0.0,0.0,0.0,0.0,0.0,0.0,0.0,0.0,0.0,0.0,0.0,0.0,0.0,0.0,0.0,0.0,0.0,-0.0,-0.0,-0.0,-0.0,-0.0,-0.0,-0.0,0.0238,0.0266,0.0028,-0.0,0.0,0.0,0.0,0.0,0.0,0.0,0.0,0.0,0.0,0.0,0.0,0.0,0.0,0.0,0.0,0.0,0.0,0.0,0.0,0.0,0.0,0.0,0.0,0.0,0.0,0.0,0.0,0.0,0.0,0.0,0.0,0.0,0.0,0.0,0.0,0.0,0.0,0.0,0.0,0.0,0.0,0.0,0.0,0.0,0.0,0.0,0.0,0.0,0.0,0.0,0.0,0.0,0.0,0.0,0.0,0.0,0.0,0.0,0.0,0.0,0.6762,0.0,0.0,0.0,0.0,0.0,0.0,0.0,0.0,0.0,0.0,0.0,0.0,0.0,0.0,0.0,0.0,0.0,0.0,0.0,0.0,0.0,0.0,0.0,0.0,0.0,0.0,0.0,0.0,0.0,0.0,0.0,0.0,0.0,0.0,0.0,0.0,0.0,0.0,0.0,0.0,-0.0155,-0.0,-0.0,-0.0,-0.0,-0.0,-0.0,-0.0,-0.0,-0.0,-0.0,0.0,0.0,0.0,0.0,0.0,0.0,0.0,0.0,0.0,0.0,0.0,0.0,0.0,0.0,0.0,0.0,0.0,0.0,0.0,0.0,0.0,0.0,0.0,0.0,0.0,0.0,0.0,0.0,0.0,0.0,0.0,0.0,0.0,0.0,0.0,0.0,0.0,0.0,0.0,0.0,0.0,0.0,0.0,0.0,0.0,0.0,0.0,0.0,0.0,0.0,0.0,0.0,0.0,0.5178,0.5567,0.5987,0.6209,0.6059,0.5659,0.6331,0.5974,0.4922,0.0,0.0,0.0,0.0,0.0,0.0,0.0,0.0,0.0,0.0,0.0,0.0,0.0,0.0,0.0,0.0,0.0,0.0,0.0,0.0,0.0,0.0,0.0,0.0,0.0,0.1528,0.2447,0.0,0.0,0.0,0.0,0.0,0.0,0.0,0.0,0.0,0.0,0.0,0.0,-0.0806,-0.0238,-0.0062,-0.0215,-0.0383,-0.0417,-0.0233,-0.0232,-0.0234,-0.0238,-0.0212,-0.0624,0.0,0.0,0.0,0.0,0.0,0.0,0.0,0.0,0.0,0.0,0.0,0.0,0.0,0.0,0.0,0.0,0.0,0.0,0.0,0.0,0.0,0.0,0.0,0.0,0.0,0.0,0.0,0.0,0.0,0.0,0.0,0.0,0.1846,0.3184,0.0,0.0,0.0,0.0,0.0,0.0,0.0,0.0,0.0,0.0,0.0,0.0,0.0,0.4403,0.4534,0.4887,0.4958,0.4717,0.5309,0.538,0.5082,0.5087,0.5094,0.5045,0.5686,0.0,0.4704,0.4431,0.0,0.0,0.0,0.0,0.0,0.0,0.0,0.0,0.0,0.0,0.0,0.0,0.0,0.0,0.0,0.0,0.0,0.0,0.0,0.0,0.0,0.0,-0.0,-0.0,0.026,0.0405,0.0,-0.0,-0.0,-0.0,-0.0,0.0,0.0,0.0,0.0,0.0,0.0,0.0,-0.2728,-0.113,-0.0276,-0.1042,-0.1871,-0.2027,-0.1189,-0.1125,-0.1127,-0.1131,-0.1127,-0.1621,-0.2739,-0.2973,0.0,0.0,0.0,0.0,0.0,0.0,0.0,0.0,0.0,0.0,0.0,0.0,0.0,0.0,0.0,0.0,0.0,0.0,0.0,0.0,0.0,0.0,0.0,0.0,0.0,0.0,0.0,0.0,0.0,0.0608,0.1815,0.2822,0.3333,0.3695,0.0,0.0,0.0,0.0,0.0,0.0,0.0,0.0,0.0,0.5064,0.4915,0.4809,0.4796,0.5241,0.4569,0.2733,0.2427,0.2259,0.2166,0.215,0.2164,0.2162,0.2329,0.2309,0.2098,0.2945,0.189,-0.0438,0.0,0.0,0.0,0.0,-0.404,-0.408,-0.3999,-0.3853,0.0,0.0,0.0,0.0,0.0,0.0,0.0,0.0,0.0,0.0,0.0,0.0,0.0,-0.0,-0.0,-0.0,-0.0,-0.0,-0.0,0.0,-0.0,-0.0,-0.0,0.0,0.0,0.0,0.0,-0.3391,-0.3367,-0.2288,-0.1473,-0.1326,-0.2144,-0.2544,-0.2116,-0.2098,-0.209,-0.21,-0.2076,-0.2295,-0.2823,-0.3032,-0.315,0.0,0.0,0.0,0.0,0.0,0.0,0.0,0.0,0.0,0.0,0.0,0.0,0.0,0.0,0.0,0.0,0.0,0.0,0.0,0.0,0.0,0.0,0.0,0.0,0.0,0.0,0.0,0.0,-0.0083,0.0885,0.1824,0.2567,0.3248,0.0,0.0,0.0,0.0,0.0,0.0,0.479,0.4611,0.475,0.5272,0.456,0.403,0.365,0.4019,0.3078,0.0824,-0.0163,-0.0823,-0.1177,-0.1166,-0.1162,-0.1161,-0.1241,-0.1228,-0.1009,0.1093,0.0581,-0.1614,-0.3441,-0.4121,-0.4049,-0.417,-0.4275,-0.4437,-0.4397,-0.4278,-0.4204,-0.4235,0.0,-0.39,-0.3863,0.0,0.0,0.0,0.0,-0.2745,-0.2768,-0.1971,-0.1064,-0.064,-0.0554,-0.0565,-0.0551,-0.0559,-0.0457,0.0,-0.0,-0.0,-0.0,0.0,0.0,0.0,0.0,-0.3229,-0.3508,-0.3083,-0.2514,-0.1786,-0.2312,-0.2712,-0.2708,-0.2741,-0.273,-0.2697,-0.2735,-0.2734,-0.2693,-0.3017,-0.3173,-0.3082,0.0,0.0,0.0,0.0,0.0,0.0,0.0,0.0,0.0,0.0,0.0,0.0,0.0,0.0,0.0,0.0,0.0,0.0,0.0,0.0,0.0,0.0,0.0,0.0,0.0,0.0,0.0,0.0,0.0,-0.0254,0.0718,0.0,0.0,0.0,0.0,0.3997,0.4002,0.473,0.641,0.5247,0.4879,0.5744,0.2735,0.0765,-0.0,-0.006,-0.0121,-0.0243,-0.106,-0.2447,-0.4287,-0.427,-0.4265,-0.4265,-0.4258,-0.4255,-0.4064,-0.1286,-0.1782,-0.4282,-0.4453,-0.4488,-0.4426,-0.4244,-0.4562,-0.5033,-0.4897,-0.4761,-0.471,-0.4979,-0.4661,-0.4147,-0.4053,-0.4005,0.0,0.0,-0.4014,-0.4147,-0.4355,-0.435,-0.3931,-0.2426,-0.2111,-0.2107,-0.2104,-0.2106,-0.1655,0.0,-0.0,-0.0,-0.0,0.0,-0.0795,-0.3158,-0.2568,-0.2227,-0.3207,-0.3123,-0.2946,-0.2825,-0.2743,-0.2686,-0.2695,-0.2808,-0.2832,-0.2712,-0.2815,-0.2832,-0.2719,-0.2835,-0.2985,-0.3082,-0.3236,0.0,0.0,0.0,0.0,0.0,0.0,0.0,0.0,0.0,0.0,0.0,0.0,0.0,0.0,0.0,0.0,0.0,0.0,0.0,0.0,0.0,0.0,0.0,0.0,0.0,0.0,0.0,0.0,-0.197,-0.1042,0.0,0.0108,0.0753,0.1181,0.1192,0.1021,0.1272,0.1878,0.1531,0.1501,0.1799,-0.0,-0.1468,-0.255,-0.4396,-0.5395,-0.5543,-0.5135,-0.5177,-0.5545,-0.5026,-0.4769,-0.4762,-0.4663,-0.4623,-0.4545,-0.3449,-0.3528,-0.4306,-0.4312,-0.4547,-0.4892,-0.49,-0.5336,-0.594,-0.6003,-0.5887,-0.5809,-0.5819,-0.5677,-0.548,-0.5408,-0.5429,-0.5349,-0.4919,-0.4836,-0.4849,-0.4595,-0.4485,-0.4348,-0.3787,-0.366,-0.3697,-0.3697,-0.3697,-0.3534,-0.2997,-0.134,-0.0,-0.0,-0.1615,-0.3036,-0.3546,-0.3353,-0.3224,-0.3475,-0.3331,-0.3191,-0.3152,-0.2995,-0.2927,-0.2971,-0.3072,-0.3095,-0.2974,-0.2927,-0.2886,-0.2829,-0.2879,-0.2974,-0.3078,-0.3351,-0.3554,0.0,0.0,0.0,0.0,0.0,0.0,0.0,0.0,0.0,0.0,0.0,0.0,0.0,0.0,0.0,0.0,0.0,0.0,0.0,0.0,0.0,0.0,0.0,0.0,0.0,-0.4645,-0.4147,-0.388,-0.3764,-0.3678,-0.3705,-0.3182,-0.2577,-0.2133,-0.2949,-0.3406,-0.3416,-0.3128,-0.2983,-0.2983,-0.3834,-0.4646,-0.5508,-0.7168,-0.809,-0.8326,-0.7492,-0.6824,-0.6254,-0.5597,-0.5154,-0.4914,-0.4813,-0.4769,-0.4758,-0.466,-0.4699,-0.4714,-0.4655,-0.4888,-0.5298,-0.5636,-0.6211,-0.6859,-0.6967,-0.6919,-0.681,-0.6446,-0.6344,-0.6344,-0.6344,-0.6401,-0.637,-0.5877,-0.5841,-0.5743,-0.5046,-0.4846,-0.4798,-0.4529,-0.448,-0.4484,-0.4484,-0.4484,-0.4484,-0.4484,-0.2909,-0.1334,-0.0825,-0.2415,-0.3765,-0.3817,-0.3861,-0.384,-0.3698,-0.3433,-0.3306,-0.3306,-0.3143,-0.3035,-0.3092,-0.3276,-0.3306,-0.3095,-0.313,-0.309,-0.2985,-0.308,-0.3178,-0.3273,-0.3544,-0.3758,-0.3914,0.0,0.0,0.0,0.0,0.0,0.0,0.0,0.0,0.0,0.0,0.0,0.0,0.0,0.0,0.0,0.0,0.0,0.0,0.0,0.0,0.0,0.0,0.0,-0.5039,-0.462,-0.4744,-0.6082,-0.7274,-0.7839,-0.7545,-0.751,-0.6979,-0.557,-0.7544,-0.8827,-0.8816,-0.8327,-0.8049,-0.8049,-0.8602,-0.8896,-0.8896,-0.8382,-0.8096,-0.8102,-0.7876,-0.7341,-0.653,-0.6336,-0.5775,-0.4938,-0.4931,-0.4925,-0.4925,-0.4921,-0.5299,-0.5755,-0.5567,-0.5546,-0.5651,-0.6367,-0.7128,-0.7723,-0.7723,-0.7723,-0.7616,-0.6912,-0.6647,-0.6707,-0.6707,-0.692,-0.711,-0.6778,-0.6875,-0.6874,-0.5817,-0.555,-0.5332,-0.468,-0.4519,-0.4519,-0.4519,-0.4519,-0.4519,-0.4519,-0.448,-0.4051,-0.2509,-0.2281,-0.2728,-0.4016,-0.4018,0.0,-0.3795,-0.35,-0.3326,-0.3323,-0.3196,-0.3108,-0.3102,-0.3415,-0.3459,-0.3161,-0.3412,-0.3439,-0.3147,-0.3412,-0.3568,-0.3581,-0.3782,-0.3978,-0.4216,0.0,0.0,0.0,0.0,0.0,0.0,0.0,0.0,0.0,0.0,0.0,0.0,0.0,0.0,0.0,0.0,0.0,0.0,0.0,0.0,0.0,-0.6981,-0.6389,-0.5712,-0.5559,-0.5914,-0.6987,-0.7444,-0.7656,-0.7617,-0.785,-0.7814,-0.7428,-0.8297,-0.8817,-0.8827,-0.8651,-0.8933,-0.9673,-1.011,-1.0373,-1.0503,-1.0815,-1.0763,-1.0136,-0.9655,-0.9299,-0.9023,-0.7531,-0.6717,-0.6444,-0.5485,-0.5074,-0.5064,-0.562,-0.5821,-0.5768,-0.5714,-0.6276,-0.7122,-0.7343,-0.7883,-0.848,-0.848,-0.848,-0.848,-0.8268,-0.834,-0.8502,-0.8502,-0.8695,-0.8844,-0.8241,-0.8097,-0.7976,-0.6936,-0.6262,-0.5776,-0.5305,-0.4838,-0.4519,-0.4519,-0.4519,-0.4519,-0.4519,-0.4522,-0.4346,-0.392,-0.386,-0.3926,-0.4174,-0.4161,0.0,-0.3819,-0.3816,-0.3792,-0.368,-0.3731,-0.3727,-0.3615,-0.3683,-0.3697,-0.3612,-0.3483,-0.3425,-0.3453,-0.332,-0.3351,-0.3578,-0.3843,-0.4063,0.0,0.0,0.0,0.0,0.0,0.0,0.0,0.0,0.0,0.0,0.0,0.0,0.0,0.0,0.0,0.0,0.0,0.0,0.0,0.0,0.0,0.0,-0.8519,-0.8397,-0.8709,-0.7973,-0.7761,-0.8702,-0.923,-0.9655,-1.0132,-1.054,-1.0451,-0.967,-1.0659,-1.0906,-1.0149,-1.0836,-1.147,-1.1885,-1.1992,-1.1961,-1.1892,-1.2111,-1.1999,-1.15,-1.0931,-1.0447,-1.0031,-0.8423,-0.75,0.0,-0.5859,-0.5477,-0.5788,-0.6253,-0.6651,0.0,0.0,0.0,0.0,0.0,-0.8427,-0.8804,-0.8804,-0.8804,-0.8831,-0.8945,-0.905,-0.921,-0.9385,-0.9633,-0.9781,-0.9239,-0.9166,-0.9014,-0.7987,-0.7402,-0.6962,-0.6487,-0.6063,-0.5783,-0.5783,-0.5783,-0.5705,-0.563,0.0,0.0,-0.5415,-0.4912,-0.4443,-0.4362,-0.4237,-0.413,-0.4005,-0.4005,-0.3985,-0.3897,-0.3968,-0.3958,-0.3802,-0.3849,0.0,0.0,0.0,-0.3651,-0.3853,-0.3641,0.0,0.0,0.0,-0.4219,-0.4197,0.0,0.0,0.0,-0.4079,-0.3403,0.0,0.0,0.0,0.0,0.0,0.0,0.0,0.0,0.0,0.0,0.0,0.0,0.0,0.0,0.0,0.0,-1.0132,-1.0657,-1.2741,-1.134,-1.0404,-1.1017,-1.1907,-1.2782,-1.3586,-1.4055,-1.3659,-1.2084,-1.3697,-1.4032,-1.2473,0.0,0.0,0.0,0.0,-1.3651,-1.3197,-1.2822,-1.247,-1.2253,-1.1831,-1.1171,-1.0329,-0.9308,-0.8349,-0.7418,-0.6371,-0.6331,-0.6881,-0.7012,-0.7777,-0.8932,-0.8513,-0.8183,-0.8027,-0.8684,-0.8884,-0.8864,-0.8898,0.0,0.0,-0.9192,-0.9256,-0.9329,-0.9653,-0.9933,-1.0114,-0.9853,-0.9967,-0.9912,-0.902,-0.8711,-0.8469,-0.7785,-0.7537,-0.7483,-0.7483,-0.7483,-0.7421,-0.7167,-0.7125,-0.7054,-0.6718,-0.5567,-0.4736,-0.4736,-0.4567,-0.4421,-0.4355,-0.4244,-0.411,-0.4046,0.0,0.0,-0.3856,-0.3968,-0.3988,-0.3849,-0.3972,-0.4046,-0.4167,-0.417,-0.4177,-0.4197,-0.4372,-0.4385,-0.422,-0.4399,-0.4522,-0.4477,-0.3569,-0.3176,0.0,0.0,0.0,0.0,0.0,0.0,0.0,0.0,0.0,0.0,0.0,0.0,0.0,0.0,0.0,-1.2416,-1.3002,-1.3566,-1.4262,-1.4513,-1.4354,-1.3688,-1.3461,-1.3572,-1.4145,-1.443,-1.4503,-1.4155,-1.4702,-1.4977,-1.4616,-1.4907,-1.5238,-1.553,-1.5508,-1.5145,-1.4515,-1.4997,-1.4322,-1.2624,0.0,0.0,-1.1827,-1.0725,-1.0099,-0.9828,-0.8704,-0.8152,-0.8153,-0.8831,-0.9426,-0.9832,-0.9551,-0.9387,-0.9335,-0.9455,-0.9365,-0.9137,-0.9432,-0.9359,-0.915,-0.9506,-0.976,-0.9953,-1.0013,-1.0241,0.0,-1.047,-1.0434,-1.0408,-0.9918,-0.9357,-0.8806,-0.848,-0.7957,-0.7483,-0.7483,-0.7483,-0.7467,-0.7426,-0.7415,-0.7343,-0.7064,-0.6538,-0.6209,-0.6209,-0.6171,-0.5877,-0.5197,-0.5161,-0.4961,-0.4216,-0.4307,-0.4317,-0.412,-0.4133,-0.414,-0.411,-0.4137,-0.411,-0.4066,-0.4063,-0.407,-0.4194,-0.422,-0.4331,-0.4423,-0.4501,-0.4519,-0.4522,-0.4301,-0.42,0.0,0.0,0.0,0.0,0.0,0.0,0.0,0.0,0.0,0.0,0.0,-1.1433,-1.2041,0.0,-1.3442,-1.4839,-1.5496,-1.629,-1.749,-1.7393,-1.674,-1.5296,-1.5325,-1.5614,-1.5814,-1.6129,-1.6142,-1.5721,-1.6251,-1.6367,-1.5939,-1.6367,-1.6519,-1.6309,-1.629,-1.6064,-1.5506,-1.5579,-1.4947,-1.3627,-1.3648,-1.3237,-1.2224,-1.1181,-1.0682,-1.0557,-0.941,-0.9018,-0.9097,-0.9843,-1.0219,-1.0327,-1.018,-0.994,-0.9686,-0.9686,-0.9593,-0.9486,-0.9633,-0.9586,-0.9512,-0.9806,-1.0,-1.0147,-1.0294,-1.0441,-1.0624,-1.0624,-1.0624,-1.0591,-1.0374,-1.0086,-0.9792,-0.9653,-0.9309,-0.9064,-0.9064,-0.9064,-0.9022,-0.883,-0.8801,-0.8717,-0.8461,-0.8143,-0.7592,-0.6712,-0.6588,-0.6328,-0.5526,-0.5487,-0.5183,-0.4415,-0.4419,-0.4402,-0.4207,-0.4197,-0.4197,-0.4197,-0.4317,-0.4321,-0.4243,-0.4239,-0.4277,-0.4355,-0.4355,-0.4392,-0.4519,-0.4519,-0.4519,-0.4519,-0.4522,-0.4473,0.0,0.0,0.0,0.0,0.0,0.0,0.0,-1.1771,-1.1728,-1.2241,-1.2815,-1.3403,-1.3859,-1.4454,-1.5427,-1.7276,-1.7658,-1.8342,-2.0073,-1.9297,-1.7956,-1.6492,-1.693,-1.7451,-1.7607,-1.7861,-1.7754,-1.7033,-1.7745,-1.791,-1.7179,-1.7833,-1.7873,-1.7001,-1.6958,-1.668,-1.6135,-1.5935,-1.5473,-1.4755,-1.4214,-1.3528,-1.2519,-1.1539,-1.1052,-1.0858,-1.0002,-0.9825,-1.019,-1.0581,-1.0857,-1.1049,-1.1049,-1.0746,-1.0313,-1.002,-0.99,-0.986,-0.992,-0.986,-0.982,-1.0107,-1.02,-1.0247,-1.0551,-1.0624,-1.0624,-1.0624,-1.0665,-1.0698,-1.0638,-1.0705,-1.0715,-1.0719,-1.0705,-1.0705,-1.0705,-1.0705,-1.0575,-1.0334,-1.0287,-1.0194,-0.99,-0.9606,-0.8832,-0.7345,-0.7047,-0.6691,-0.5814,-0.5706,-0.5382,-0.457,-0.4519,-0.4416,-0.4247,-0.4237,-0.4237,-0.4237,-0.4399,-0.4519,-0.4519,-0.4519,-0.4519,-0.4519,-0.4519,-0.4519,-0.4519,-0.4519,-0.4519,-0.4519,-0.4519,-0.4519,-1.3289,-1.3295,-1.3542,-1.4261,-1.4138,-1.4261,0.0,-1.6076,-1.6093,-1.702,-1.7299,-1.7478,-1.7901,-1.8339,-1.8879,-1.9488,-1.9287,-1.917,-1.942,-1.868,-1.7997,-1.7794,-1.7541,-1.7676,-1.8428,-1.8203,-1.8095,-1.8385,-1.8866,-1.91,-1.9034,-1.91,-1.8749,-1.7904,-1.7845,-1.7285,-1.6135,-1.7191,-1.7052,-1.5762,-1.5261,-1.4522,-1.3528,-1.2586,-1.2131,-1.2091,-1.1762,-1.1611,-1.1603,-1.1381,-1.1864,-1.2669,-1.2669,-1.2624,-1.2395,-1.1262,-1.0681,-1.0557,-1.0755,-1.0501,-1.012,-1.0414,-1.0514,-1.0577,-1.0611,-1.0624,-1.0624,-1.0624,-1.0742,-1.0882,-1.0628,-1.0942,-1.1263,-1.1009,-1.0949,-1.0949,-1.0949,-1.0949,-1.0935,-1.0902,-1.0895,-1.0802,-1.0577,-1.0214,-0.9767,-0.9043,-0.8695,-0.8049,-0.6637,-0.6475,-0.5987,-0.4625,-0.4519,-0.4512,-0.4494,-0.444,-0.444,-0.444,-0.4508,-0.4519,-0.4519,-0.4519,-0.4519,-0.4519,-0.4519,-0.4519,-0.4519,-0.4519,-0.4519,-0.4519,-0.4519,-0.4519,-1.4676,-1.4689,-1.4935,-1.5975,-1.6088,-1.6238,-1.7338,-1.747,-1.75,-1.7827,-1.809,-1.8295,-1.8385,-1.8776,-1.9388,-2.0372,-2.0019,-2.0076,-2.1307,-1.9694,-1.852,-1.9019,-1.8247,-1.777,-1.8184,-1.8115,-1.8281,-1.8985,-1.9214,-1.9497,-2.0009,-2.0074,-1.9512,-1.8406,-1.8379,-1.7875,-1.6899,-1.7373,-1.7178,-1.6314,-1.6131,-1.5618,-1.4895,-1.3881,-1.3174,-1.2792,-1.2725,-1.2806,-1.2935,-1.3036,-1.3353,-1.3693,-1.3693,-1.3822,-1.3882,-1.3134,-1.2347,-1.1639,-1.2285,-1.221,-1.1783,-1.192,-1.1973,-1.1911,-1.1413,-1.1288,-1.1226,-1.0744,-1.0712,-1.0715,-1.0658,-1.0868,-1.1142,-1.1022,-1.1122,-1.1243,-1.1243,-1.1243,-1.1243,-1.1243,-1.1243,-1.1209,-1.1082,-1.0681,-1.0294,-1.0047,-0.9466,-0.8501,-0.7057,-0.6723,-0.6046,-0.4625,-0.4519,-0.4519,-0.4519,-0.4519,-0.4519,-0.4519,-0.4519,-0.4519,-0.4519,-0.4519,-0.4519,-0.4519,-0.4519,-0.4519,-0.4519,-0.4519,-0.4563,-0.4592,-0.456,-0.4558,-1.6073,-1.6353,-1.6745,-1.7557,-1.7996,-1.8301,-1.8861,-1.9097,-1.9148,-1.9048,-1.9179,-1.9239,-1.9031,-1.9183,-1.9762,-2.0948,-2.0554,-2.0772,-2.2494,-2.0529,-1.9154,-1.9789,-1.8805,-1.8114,-1.8218,-1.839,-1.8711,-1.9233,-1.9759,-2.0268,-2.091,-2.0974,-2.0419,-1.9364,-1.9094,-1.8616,-1.7935,-1.7917,-1.7695,-1.7324,-1.7113,-1.6759,-1.6365,-1.5261,-1.4576,-1.4073,-1.4026,-1.4086,-1.4263,-1.4498,-1.4714,-1.4915,-1.4915,-1.5078,-1.5198,-1.5172,-1.4188,-1.2964,-1.3526,-1.3517,-1.3141,-1.3042,-1.3009,-1.2887,-1.2328,-1.2018,-1.1766,-1.1129,-1.0921,-1.0947,-1.0722,-1.1015,-1.1336,-1.1256,-1.1396,-1.155,-1.155,-1.155,-1.155,-1.155,-1.155,-1.155,-1.155,-1.1129,-1.0775,-1.0688,-1.0067,-0.908,-0.7714,-0.7037,-0.6325,-0.5175,-0.4897,-0.4787,-0.4787,-0.4625,-0.4519,-0.4519,-0.4519,-0.4519,-0.4519,-0.4519,-0.4536,-0.458,-0.458,-0.4548,-0.4589,-0.4589,-0.4646,-0.4752,-0.464,-0.4707,-1.7236,-1.8057,-1.8897,-1.8955,-1.9759,-2.0752,-2.1249,-2.1788,-2.2176,-2.2176,-2.1763,-2.1237,-2.0698,-2.0623,-2.0811,-2.1362,-2.117,-2.1199,-2.1868,-2.0653,-1.9716,-1.9789,-1.9221,-1.8862,-1.8895,-1.9326,-1.955,-1.9333,-2.0846,-2.1815,-2.1877,-2.1877,-2.164,-2.1164,-2.0314,-1.9651,-1.9222,-1.9213,-1.9238,-1.9175,-1.8267,-1.7823,-1.7832,-1.6824,-1.6287,-1.6271,-1.5897,-1.574,-1.5723,-1.535,-1.5694,-1.6531,-1.6531,-1.6531,-1.6573,-1.7102,-1.6181,-1.4595,-1.4189,-1.3826,-1.3526,-1.3116,-1.3009,-1.3009,-1.2948,-1.2617,-1.2104,-1.1854,-1.1815,-1.1697,-1.1129,-1.1617,-1.2191,-1.1911,-1.185,-1.1857,-1.1857,-1.1857,-1.1857,-1.1857,-1.1857,-1.1857,-1.1857,-1.1603,-1.1303,-1.1022,-1.0715,-1.006,-0.8723,-0.7679,-0.6941,-0.6559,-0.5873,-0.5487,-0.5487,-0.4897,-0.4519,-0.4519,-0.4519,-0.4519,-0.4519,-0.4519,-0.4587,-0.468,-0.4684,-0.4758,-0.4904,-0.4904,-0.4908,-0.4911,-0.4908,-0.4911,-1.9003,-2.0042,-2.1111,-2.1907,-2.2692,-2.338,-2.393,-2.3848,-2.3486,-2.2657,-2.1733,-2.0745,-1.9749,-1.9266,-1.9447,-2.074,-2.039,-2.0579,-2.2456,-2.1401,-2.0347,-2.0239,-2.0053,-1.9437,-1.8182,-1.8736,0.0,-2.0364,-2.0965,-2.1909,-2.3219,-2.3256,-2.3142,-2.2714,-2.2445,-2.1936,-2.1228,-2.0597,-2.0267,-2.0278,-1.9541,-1.8854,-1.8163,-1.7926,-1.751,-1.7009,-1.7171,-1.7125,-1.709,-1.7359,-1.746,-1.7501,-1.7501,-1.7501,-1.756,-1.7707,-1.7437,-1.6735,-1.5779,-1.5176,-1.4745,-1.4616,-1.4569,-1.451,-1.3965,-1.3692,-1.3314,-1.2373,-1.2072,-1.2002,-1.1411,-1.1643,-1.1991,-1.1891,-1.2017,-1.2158,-1.2158,-1.2158,-1.2158,-1.2158,-1.2158,-1.2158,-1.2158,-1.1911,-1.1617,-1.1323,-1.0303,-0.9315,-0.8658,-0.7885,-0.7281,-0.6941,-0.6692,-0.6466,-0.6268,-0.6041,-0.5882,-0.5882,-0.5882,-0.5882,-0.5882,-0.5437,-0.5246,-0.5427,-0.5542,-0.5342,-0.4918,-0.5453,-0.5506,-0.5057,-0.4962,-0.5026,-2.114,-2.2278,-2.335,-2.4156,-2.4759,-2.5162,-2.5066,-2.4515,-2.3623,-2.2207,-2.096,-1.9785,-1.8595,-1.7952,-1.8078,-1.9547,-1.9347,-1.9873,-2.243,-2.1644,-2.0938,-2.1304,-2.118,-2.0607,-1.9406,-1.9819,-2.0323,-2.0724,-2.1572,-2.2653,-2.3954,-2.4192,-2.4188,-2.3976,-2.3826,-2.36,-2.3213,-2.2231,-2.16,-2.1239,-2.0527,-1.9755,-1.9121,-1.9049,-1.8811,-1.8506,-1.843,-1.8462,-1.848,-1.8581,-1.8477,-1.8223,-1.8066,-1.8008,-1.7988,-1.7842,-1.7793,-1.7646,-1.665,-1.6123,-1.5859,-1.5703,-1.5644,-1.5516,-1.5031,-1.4864,-1.4577,-1.3465,-1.2964,-1.2608,-1.2171,-1.2079,-1.2024,-1.2024,-1.2164,-1.2305,-1.2305,-1.2592,-1.284,-1.3026,-1.3047,-1.3007,-1.3187,-1.2572,-1.1924,-1.163,-1.0522,-0.9625,-0.935,-0.8807,-0.8351,-0.804,-0.7783,-0.7518,-0.7219,-0.6929,-0.6728,-0.6593,-0.6718,-0.6764,-0.6764,-0.6439,-0.6288,-0.6488,-0.6547,-0.6233,-0.5568,-0.6117,-0.599,-0.5209,-0.5118,-0.5179,-2.3626,-2.48,-2.5733,-2.5737,-2.6148,-2.619,-2.4841,-2.3903,-2.282,-2.1019,-1.9704,-1.8574,-1.7466,-1.6863,-1.6898,-1.8053,-1.8267,-1.9233,-2.2027,-2.1562,-2.1499,-2.3047,-2.2736,-2.2422,-2.2359,-2.2385,-2.1882,-2.0706,0.0,-2.3991,-2.4079,-2.4569,-2.487,-2.4908,-2.4505,-2.4575,-2.5075,-2.4036,-2.2999,-2.1952,-2.1078,-2.0566,-2.0547,-2.0137,-2.0176,-2.0518,-1.9707,-1.957,-1.9853,-1.9033,-1.8601,-1.8523,-1.8223,-1.8047,-1.7969,-1.7607,-1.7451,-1.7363,-1.6943,-1.6768,-1.666,-1.623,-1.6154,-1.6154,-1.6154,-1.6071,-1.5791,-1.5133,-1.4338,-1.3655,-1.3449,-1.2899,-1.2325,-1.2399,-1.2412,-1.2412,-1.2385,-1.3105,-1.393,-1.4372,-1.4298,-1.4336,-1.4642,-1.336,-1.2225,-1.1937,-1.1403,-1.0929,-1.0685,-1.0321,-1.0027,-0.974,-0.9097,-0.8567,-0.8303,-0.7599,-0.7053,-0.6727,-0.7037,-0.7219,-0.7219,-0.7427,-0.7641,-0.7737,-0.7737,-0.7414,-0.6719,-0.6719,-0.6268,-0.5428,-0.5428,-0.5428,-2.6318,-2.7876,-2.917,-2.8601,-2.8538,-2.8167,-2.6349,-2.4249,-2.2413,-2.1586,-1.9371,-1.7638,-1.7854,-1.7118,-1.7024,-1.8568,-1.9145,-2.0409,-2.3459,-2.3799,-2.3986,-2.4601,-2.4351,-2.3853,-2.3012,-2.3314,-2.3441,0.0,-2.323,-2.3891,-2.5121,-2.5322,-2.5598,-2.6025,-2.5959,-2.5958,-2.6094,-2.4397,-2.2999,-2.1952,-2.1078,-2.0566,-2.0634,-2.0449,-2.0459,-2.0557,-2.0332,-2.0117,-1.9893,-1.9678,-1.9209,-1.8592,-1.8877,-1.8574,-1.8076,-1.8603,-1.8398,-1.7832,-1.7725,-1.7266,-1.6655,-1.6602,-1.6562,-1.6562,-1.6562,-1.6519,-1.6372,-1.5787,-1.501,-1.4439,-1.5016,-1.3889,-1.2859,-1.3672,-1.3996,-1.4033,-1.3484,-1.4363,-1.5219,-1.5049,-1.4584,-1.4043,-1.3446,-1.2961,-1.2532,-1.2238,-1.1877,-1.1463,-1.0949,-1.0628,-1.0334,-1.004,-0.963,-0.9272,-0.8981,-0.8788,-0.8645,-0.8515,-0.8827,-0.9042,-0.9042,-0.8574,-0.8366,-0.8538,-0.8617,-0.8049,-0.6719,-0.7372,-0.6854,-0.5428,-0.5428,-0.5428,-2.8595,-3.0131,-3.131,-3.0542,-2.9879,-2.8825,-2.6808,-2.4271,-2.2093,-2.1264,-1.9359,-1.7927,-1.7998,-1.7151,-1.6885,-1.8375,-1.8662,-1.9859,-2.3124,-2.401,-2.461,-2.5401,-2.5597,-2.5346,-2.428,-2.4506,-2.4808,0.0,-2.4544,-2.4619,-2.5548,-2.5837,-2.6126,-2.6521,-2.6703,-2.6816,-2.6816,-2.5551,-2.4312,-2.3294,-2.2339,-2.168,-2.1221,-2.1473,-2.1494,-2.1221,0.0,-2.1574,-2.1416,-2.0785,-2.0272,-1.9756,-1.9476,-1.8994,-1.8633,-1.9111,-1.8857,-1.8281,-1.8281,-1.7852,-1.7266,-1.708,-1.7021,-1.7021,-1.7021,-1.7148,-1.7164,-1.6656,-1.6165,-1.5833,-1.6327,-1.537,-1.4509,-1.5114,-1.5407,-1.5363,-1.4977,-1.5864,-1.6524,-1.5955,-1.5715,-1.5025,-1.3297,-1.2953,-1.2806,-1.2365,-1.2058,-1.175,-1.1423,-1.1009,-1.0641,-1.0341,-1.0167,-0.9947,-0.9646,-0.9626,-0.9566,-0.9446,-0.9713,-0.9873,-0.9873,-0.9627,-0.9518,-0.96,-0.9668,-0.9109,-0.7832,-0.7962,-0.7312,-0.5947,-0.5557,-0.5428,-3.0655,-3.1918,-3.2789,-3.187,-3.0521,-2.8806,-2.6535,-2.3869,-2.1559,-2.0373,-1.926,-1.8432,-1.8093,-1.7219,-1.6904,-1.8037,-1.7882,-1.8864,-2.2374,-2.3455,-2.449,-2.6176,-2.6741,-2.6739,-2.5965,-2.5766,-2.5912,-2.6496,-2.6,-2.5711,-2.5711,-2.6189,-2.6559,-2.6634,-2.703,-2.7318,-2.7394,-2.6845,-2.6149,-2.5206,-2.4169,-2.3227,-2.2327,-2.2816,-2.2743,-2.2232,0.0,0.0,-2.3419,-2.2196,-2.1627,-2.147,-2.0285,-1.9813,-1.9723,-1.9833,-1.9563,-1.9073,-1.8992,-1.8735,-1.83,-1.7684,-1.7471,-1.7471,-1.7471,-1.7715,-1.7949,-1.7637,-1.737,-1.7279,-1.7533,-1.7051,-1.6522,-1.6674,-1.6716,-1.6725,-1.6623,-1.7384,-1.7884,-1.7096,-1.7116,-1.6412,-1.3843,-1.3286,-1.3006,-1.2392,-1.2091,-1.1911,-1.187,-1.1356,-1.0895,-1.0705,-1.0548,-1.0401,-1.014,-1.0114,-1.0007,-0.9753,-1.0013,-1.0174,-1.0174,-1.0421,-1.0624,-1.0624,-1.0624,-1.0174,-0.9274,-0.8549,-0.7697,-0.685,-0.6013,-0.5568,-3.2747,-3.4018,-3.4597,-3.2705,-3.108,-2.912,-2.5947,-2.2346,-1.9604,-1.9431,-1.784,-1.6972,-1.8461,-1.8204,-1.7984,-1.8645,-1.9113,-2.0517,-2.3874,-2.4665,-2.5869,-2.8434,-2.8039,-2.7512,-2.7327,-2.6752,-2.642,0.0,-2.6433,-2.6314,-2.6314,-2.6471,-2.6666,-2.713,-2.7231,-2.7507,-2.7959,-2.7027,-2.6506,-2.6327,-2.536,-2.4534,-2.3893,-2.4041,-2.3754,-2.322,-2.3363,0.0,-2.3514,-2.3205,-2.2939,-2.2617,-2.271,-2.2336,-2.1801,-2.2534,-2.227,-2.1498,-2.106,-2.0616,-2.0038,-1.8418,-1.79,-1.79,-1.79,-1.7949,-1.8066,-1.834,-1.7802,-1.7551,-1.9049,-1.8105,-1.7063,-1.7938,-1.8351,-1.8413,-1.776,-1.8378,-1.8879,-1.8127,-1.738,-1.6347,-1.4784,-1.3817,-1.3006,-1.2392,-1.2258,-1.2138,-1.1904,-1.1356,-1.0975,-1.0922,-1.0481,-1.0174,-1.012,-1.0114,-1.0094,-1.0047,-1.0321,-1.0481,-1.0481,-1.0598,-1.0624,-1.0624,-1.0624,-1.0174,-0.9274,-0.9139,-0.8619,-0.7767,-0.685,-0.6543,-3.3148,-3.4505,-3.5178,-3.3355,-3.1227,-2.8749,-2.5728,-2.2196,-1.9423,-1.8905,-1.8055,-1.7695,-1.862,-1.86,-1.8605,-1.9238,-1.9247,-2.0258,-2.3231,-2.4351,-2.5716,-2.7995,-2.845,-2.828,-2.7762,-2.7351,-2.6973,-2.6521,-2.6533,-2.6533,-2.6533,-2.6533,-2.6841,-2.7682,-2.7708,-2.7971,-2.8524,-2.7767,-2.7385,-2.7385,-2.6661,-2.5855,-2.5078,-2.5607,-2.5262,-2.4337,-2.4838,0.0,-2.4992,-2.448,-2.4198,-2.393,-2.3654,-2.3391,-2.3295,-2.3436,-2.3295,-2.2891,-2.238,-2.1909,-2.13,-1.9903,-1.9084,-1.8672,-1.8672,-1.8672,-1.8721,-1.8916,-1.8759,-1.8796,-1.9655,-1.9373,-1.8971,-1.9456,-1.9693,-1.9731,-1.9411,-1.9639,-1.9697,-1.8875,-1.7785,-1.6636,-1.5268,-1.4001,-1.3053,-1.2599,-1.2405,-1.2251,-1.2111,-1.1717,-1.1329,-1.1022,-1.0742,-1.0514,-1.0361,-1.0347,-1.0347,-1.0347,-1.0481,-1.0624,-1.0624,-1.0624,-1.0624,-1.0624,-1.0624,-1.0364,-0.9977,-0.953,-0.9075,-0.8683,-0.7762,-0.7428,-3.3,-3.4489,-3.5233,-3.3575,-3.1055,-2.8262,-2.538,-2.2177,-1.9489,-1.8495,-1.8387,-1.8538,-1.8672,-1.8822,-1.9091,-1.96,-1.9256,-1.975,-2.2128,-2.3714,-2.5304,-2.7142,-2.8511,-2.8951,-2.805,-2.7802,-2.7351,-2.6589,-2.6533,0.0,-2.6533,-2.6533,-2.6967,-2.8072,-2.8109,-2.8436,-2.9114,-2.8687,-2.8461,-2.8461,-2.8021,-2.7296,-2.6287,-2.7145,-2.6643,-2.537,-2.6164,0.0,0.0,-2.5664,-2.53,-2.5229,-2.4469,-2.4492,-2.4872,-2.4365,-2.425,-2.4368,-2.375,-2.3279,-2.2797,-2.1832,-2.071,-1.9568,-1.936,-1.9287,-1.9307,-1.9394,-1.9658,-1.9932,-2.0029,-2.0312,-2.0566,-2.0566,-2.0566,-2.0566,-2.0566,-2.0566,-2.0323,-1.952,-1.823,-1.6984,-1.5823,-1.4251,-1.3106,-1.2869,-1.2492,-1.2305,-1.2305,-1.2104,-1.1764,-1.1236,-1.1069,-1.0902,-1.0675,-1.0658,-1.0624,-1.0624,-1.0624,-1.0624,-1.0624,-1.0624,-1.0624,-1.0624,-1.0624,-1.0624,-1.0624,-0.9913,-0.9594,-0.953,-0.8678,-0.8338,-3.3,-3.4489,-3.5098,-3.2933,-3.0705,-2.8027,-2.4377,-2.1226,-1.8852,-1.8028,-1.7823,-1.7999,-1.8597,-1.9196,-1.9615,-1.9675,-1.963,-2.0109,-2.1575,-2.343,-2.5344,-2.736,-2.8601,-2.9206,-2.8884,-2.8182,-2.7351,-2.6589,-2.6533,0.0,-2.6533,-2.6533,-2.6967,-2.8072,-2.8109,-2.8624,-2.9704,-2.9666,-2.9641,-2.9641,-2.9578,-2.895,-2.7875,-2.7949,-2.7457,-2.6383,-2.6452,0.0,0.0,-2.6383,-2.6383,-2.6383,-2.6233,-2.6569,-2.698,-2.6432,-2.6544,-2.6813,-2.5853,-2.549,-2.5309,-2.4265,-2.2502,-2.0481,-1.9568,-1.9287,-1.9365,-1.9746,-1.9883,-2.0,-2.041,-2.0537,-2.0566,-2.0566,-2.0566,-2.0566,-2.0566,-2.0566,-2.0566,-2.0479,-1.8789,-1.7218,-1.6839,-1.4791,-1.3106,-1.2869,-1.2492,-1.2305,-1.2305,-1.2278,-1.2138,-1.1824,-1.1309,-1.0982,-1.0955,-1.0715,-1.0624,-1.0624,-1.0624,-1.0624,-1.0624,-1.0624,-1.0624,-1.0624,-1.0624,-1.0624,-1.0624,-1.0491,-1.0498,-1.0428,-0.9594,-0.9383,-3.1427,-3.3152,-3.3964,-3.2611,-2.9922,-2.6945,-2.4357,-2.0944,-1.8203,-1.7681,-1.7639,-1.7652,-1.7518,-1.8702,-1.9555,-1.9151,-1.9091,-1.957,-2.0917,-2.1769,-2.3445,-2.6602,-2.775,-2.8479,-2.8962,-2.8684,-2.792,-2.6589,0.0,0.0,-2.6929,-2.6954,-2.7306,-2.8084,-2.8423,-2.8988,-2.9779,-2.9453,-2.9453,-2.9792,-2.944,-2.8863,-2.8109,-2.8109,-2.7507,-2.6533,-2.6533,0.0,0.0,-2.6954,-2.7155,-2.7444,-2.7444,-2.7783,-2.821,-2.7657,-2.7795,-2.8149,-2.7421,-2.7152,-2.6993,-2.5981,-2.46,-2.3046,-2.1447,-2.0557,-2.0098,-2.0264,-2.0303,-2.041,-2.085,-2.0967,-2.0898,-2.0635,-2.0566,-2.0566,-2.0566,-2.0566,-2.0566,-2.0566,-1.8789,-1.7293,-1.7136,-1.5087,-1.3367,-1.3073,-1.2926,-1.2779,-1.2592,-1.2565,-1.2525,-1.2486,-1.187,-1.145,-1.1269,-1.0982,-1.0822,-1.0822,-1.0719,-1.0624,-1.0624,-1.0624,-1.0624,-1.0624,-1.0624,-1.0624,-1.0624,-1.0735,-1.0822,-1.0828,-1.0665,-1.0657,-2.9161,-3.0954,-3.1918,-3.1157,-2.8484,-2.5527,-2.3449,-2.0352,-1.7748,-1.7199,-1.7258,-1.7324,-1.7055,-1.8328,-1.9301,-1.9031,-1.9001,-1.9331,-2.0273,-2.0752,-2.2173,-2.533,-2.6467,-2.7407,-2.8338,-2.8352,-2.7802,-2.6589,0.0,0.0,-2.7256,-2.7595,-2.7946,-2.8335,-2.8725,-2.9202,-2.9779,-2.9214,-2.9214,-2.9779,-2.9202,-2.8637,-2.8109,-2.8109,-2.7507,-2.6533,0.0,0.0,0.0,-2.7457,-2.7758,-2.8109,-2.8109,-2.8448,-2.8863,-2.831,-2.8448,-2.8875,-2.8486,-2.8348,-2.8188,-2.7543,-2.6612,-2.536,-2.3449,-2.1912,-2.0791,-2.0918,-2.0957,-2.0996,-2.1182,-2.123,-2.1123,-2.0674,-2.0566,-2.0566,-2.0566,-2.0566,-2.0566,-2.0566,-1.8789,-1.7342,-1.7342,-1.5198,-1.3547,-1.3253,-1.3133,-1.2966,-1.2652,-1.2619,-1.2619,-1.2619,-1.2245,-1.1877,-1.1583,-1.1289,-1.1082,-1.1002,-1.0802,-1.0648,-1.0624,-1.0624,-1.0624,-1.0624,-1.0705,-1.0752,-1.0688,-1.0982,-1.1122,-1.1129,-1.1329,-1.147,-2.6336,-2.7858,-2.8839,-2.8061,-2.6167,-2.384,-2.123,-1.9202,-1.7593,-1.6523,-1.6514,-1.6921,-1.7563,-1.8268,-1.8927,-1.957,-1.9675,-1.9675,-1.969,-2.0842,-2.2173,-2.3475,-2.4822,-2.6009,-2.6931,-2.6739,-2.6521,0.0,0.0,0.0,-2.7281,-2.8323,-2.8913,-2.8925,-2.8925,-2.9202,-2.9779,-2.9214,-2.9214,-2.9779,-2.9202,-2.8637,-2.8109,-2.8109,-2.7507,0.0,0.0,0.0,0.0,-2.7871,-2.8097,-2.8109,-2.8109,-2.8448,-2.8863,-2.831,-2.8448,-2.8925,-2.8925,-2.8925,-2.8925,-2.885,-2.8282,-2.715,-2.5451,-2.3177,-2.1318,-2.1748,-2.1875,-2.1777,-2.1348,-2.123,-2.1123,-2.0674,-2.0566,-2.0566,-2.0566,-2.0566,-2.0566,-2.0566,-1.8789,-1.7342,-1.7342,-1.5198,-1.3547,-1.3253,-1.2946,-1.2721,-1.2345,-1.2305,-1.2305,-1.2305,-1.2305,-1.2178,-1.1891,-1.159,-1.1296,-1.1009,-1.0989,-1.0862,-1.0631,-1.0624,-1.0624,-1.0624,-1.0842,-1.0989,-1.0989,-1.1283,-1.1423,-1.1423,-1.1423,-1.1583,-2.4036,-2.5152,-2.5878,-2.5592,-2.3866,-2.1939,-2.0849,-1.88,-1.7136,-1.7061,-1.6862,-1.6771,-1.698,-1.7921,-1.8777,-1.8986,-1.939,-1.969,-1.969,-2.0842,-2.2517,-2.4717,-2.7247,-2.8713,0.0,0.0,-2.7095,0.0,0.0,0.0,-2.7821,-2.8536,-2.8925,-2.8925,-2.9315,-2.9616,-2.9792,-2.9214,-2.9026,-2.9202,-2.9013,-2.8448,-2.757,-2.8323,0.0,0.0,0.0,0.0,0.0,-2.8448,-2.89,-2.9264,-2.9264,-2.9365,-2.9503,-2.9327,-2.9365,-2.9515,-2.9515,-2.9515,-2.9515,-2.9515,-2.877,-2.7652,-2.6381,-2.4471,-2.2614,-2.2083,-2.209,-2.2217,-2.1787,-2.1894,-2.1924,-2.1191,-2.1025,-2.0937,-2.0635,-2.0566,-2.0566,-2.0566,-1.9432,-1.823,-1.7423,-1.6024,-1.4721,-1.3628,-1.3427,-1.3253,-1.2959,-1.2739,-1.2605,-1.2605,-1.2425,-1.2265,-1.2171,-1.1897,-1.1603,-1.1309,-1.1102,-1.0862,-1.0631,-1.0624,-1.0624,-1.0624,-1.0648,-1.0795,-1.0995,-1.1283,-1.163,-1.2024,-1.2024,-1.2078,-2.1336,-2.2243,-2.2868,-2.3173,-2.1686,-2.0037,-1.9679,-1.8044,-1.6653,-1.6771,-1.6561,-1.6502,-1.6995,-1.7757,-1.8493,-1.9001,-1.942,-1.969,-1.969,-2.0842,-2.2527,-2.4835,-2.7752,0.0,0.0,-2.7733,0.0,0.0,0.0,0.0,-2.777,-2.8323,-2.8712,-2.8925,-2.949,-2.9691,-2.9465,-2.89,-2.8725,-2.8925,-2.8511,-2.8059,-2.7607,-2.8084,0.0,0.0,0.0,0.0,0.0,-2.8938,-2.9465,-2.9792,-2.9792,-2.9792,-2.9792,-2.9792,-2.9792,-2.9792,-2.9792,-2.9792,-2.9792,-2.9792,-2.9028,-2.7924,-2.6801,-2.5063,-2.3185,-2.2316,-2.2432,-2.2656,-2.2236,-2.2314,-2.2334,-2.1641,-2.1484,-2.1406,-2.1123,-2.1064,-2.1016,-2.085,-2.0,-1.8968,-1.8095,-1.6683,-1.5345,-1.4402,-1.4093,-1.3912,-1.3613,-1.3293,-1.3173,-1.3173,-1.2634,-1.2305,-1.2305,-1.2138,-1.1904,-1.161,-1.1423,-1.1189,-1.0902,-1.0782,-1.0775,-1.0882,-1.0889,-1.1029,-1.1323,-1.1617,-1.1944,-1.2305,-1.2305,-1.2305,0.0,-1.9234,-1.9951,-2.0728,-1.9603,-1.8198,-1.7894,-1.7022,0.0,-1.5885,-1.5829,-1.6234,-1.7458,-1.7727,-1.8175,-1.948,-1.9735,-1.975,-1.975,-2.1081,-2.264,-2.4275,-2.6863,0.0,-2.6021,0.0,0.0,0.0,0.0,0.0,-2.748,-2.7868,-2.8335,-2.8925,-2.939,-2.9428,-2.8938,-2.8386,-2.836,-2.885,-2.7871,-2.7645,-2.8084,-2.7607,0.0,0.0,0.0,0.0,0.0,-2.9352,-2.9792,-2.9792,-2.9792,-2.9792,-2.9792,-2.9792,-2.9792,-2.9792,-2.9792,-2.9792,-2.9792,-2.9792,-2.9028,-2.7924,-2.6883,-2.5062,-2.3134,-2.2666,-2.2832,-2.3047,-2.2656,-2.2559,-2.2451,-2.2031,-2.1934,-2.1924,-2.1894,-2.1885,-2.1758,-2.1318,-2.0386,-1.9579,-1.9109,-1.7326,-1.5837,-1.5453,-1.505,-1.4635,-1.4389,-1.4058,-1.384,-1.3745,-1.2952,-1.2372,-1.2305,-1.2305,-1.2178,-1.1891,-1.187,-1.1737,-1.1436,-1.1169,-1.1149,-1.1423,-1.145,-1.159,-1.187,-1.2164,-1.2305,-1.2305,-1.2325,-1.2338,-1.7304,0.0,-1.7655,-1.8112,-1.7682,-1.7175,0.0,-1.668,-1.6191,-1.5885,-1.6174,-1.6741,-1.7533,-1.81,-1.8747,-1.9555,-2.0124,-2.0468,-2.0468,-2.334,-2.5601,-2.5994,-2.8799,-2.9507,-2.6334,0.0,0.0,0.0,0.0,-2.8499,0.0,-2.8473,-2.8439,-2.9249,-2.8766,-2.8637,-2.8925,-2.8386,-2.8172,-2.8298,-2.8461,-2.8386,-2.8109,-2.8411,0.0,0.0,0.0,0.0,-2.8787,-2.9503,-2.9792,-2.9792,-2.9792,-2.9792,-2.9792,-2.9792,-2.9792,-2.9792,-2.9792,-2.9792,-2.9792,-2.9792,-2.9028,-2.8016,-2.7763,-2.6202,-2.419,-2.3268,-2.3066,-2.3115,-2.3018,-2.2988,-2.2891,-2.2461,-2.2363,-2.2275,-2.1953,-2.1885,-2.1758,-2.1318,-2.098,-2.0424,-1.9188,-1.855,-1.7874,-1.6976,-1.6571,-1.6207,-1.5767,-1.5494,-1.4887,-1.384,-1.3528,-1.3098,-1.2372,-1.2305,-1.2178,-1.1891,-1.187,-1.1737,-1.1436,-1.1363,-1.1356,-1.1423,-1.165,-1.1797,-1.187,-1.2164,-1.2305,-1.2305,-1.2532,-1.2721,-1.7042,-1.7223,-1.7529,-1.7707,-1.7384,-1.7027,-1.7027,-1.6766,-1.6347,-1.5887,-1.6533,-1.7279,-1.7623,-1.8268,-1.9031,-2.0004,-2.0468,-2.1021,-2.1919,-2.4148,-2.6001,-2.6818,-2.9098,-2.9798,0.0,0.0,0.0,0.0,0.0,-2.8505,0.0,-2.8105,-2.7857,-2.896,-2.8265,-2.8137,-2.8549,-2.826,-2.8235,-2.8486,-2.8273,-2.8147,-2.8109,-2.816,-2.8009,0.0,0.0,0.0,-2.8976,-2.9553,-2.9792,-2.9792,-2.9792,-2.9792,-2.9792,-2.9792,-2.9792,-2.9792,-2.9792,-2.9792,-2.9792,-2.9792,-2.9365,-2.8767,-2.8255,-2.7256,-2.6108,-2.4967,-2.4638,-2.4553,-2.4049,-2.3877,-2.3654,-2.2928,-2.2803,-2.2744,-2.251,-2.2305,-2.2051,-2.1621,-2.1367,-2.0924,-1.991,-1.9362,-1.8798,-1.8149,-1.7734,-1.7484,-1.72,-1.6776,-1.599,-1.4775,-1.4118,-1.331,-1.2378,-1.2305,-1.2231,-1.2078,-1.2064,-1.1997,-1.1837,-1.1703,-1.163,-1.163,-1.1917,-1.2064,-1.2064,-1.2225,-1.2305,-1.2305,-1.2472,-1.2619,-1.7028,-1.7673,-1.827,-1.8225,-1.7841,-1.7463,-1.7434,-1.7152,-1.6712,-1.6218,-1.7026,-1.7832,-1.7832,-1.8403,-1.9271,-2.0513,-2.1051,-2.1939,-2.3748,-2.4683,-2.5654,-2.6995,-2.8572,0.0,0.0,0.0,0.0,0.0,0.0,-2.8492,0.0,-2.7802,-2.7437,-2.8732,-2.8226,-2.8048,-2.838,-2.8337,-2.852,-2.8925,-2.8072,-2.7908,-2.8348,-2.7783,-2.7582,0.0,0.0,0.0,-2.9101,-2.9591,-2.9792,-2.9792,-2.9792,-2.9792,-2.9792,-2.9792,-2.9792,-2.9792,-2.9792,-2.9792,-2.9792,-2.9792,-2.9792,-2.9624,-2.8676,-2.8347,-2.8176,-2.7302,-2.673,-2.6224,-2.5126,-2.4787,-2.4542,-2.3387,-2.3135,-2.3135,-2.3135,-2.2812,-2.2412,-2.2051,-2.1631,-2.1191,-2.0742,-1.9938,-1.9356,-1.9213,-1.8912,-1.8665,-1.8525,-1.8008,-1.7179,-1.6003,-1.4733,-1.3601,-1.2439,-1.2325,-1.2305,-1.2305,-1.2305,-1.2305,-1.2305,-1.2064,-1.1937,-1.1937,-1.2178,-1.2305,-1.2305,-1.2345,-1.2371,-1.2371,-1.2465,-1.2639,-1.6185,-1.7103,-1.8153,-1.7916,-1.8064,-1.8206,-1.8099,-1.7789,-1.7518,-1.7413,-1.8029,-1.8553,-1.8553,-1.9091,-1.9794,-2.0587,-2.2577,-2.4459,0.0,0.0,-2.7438,-2.6651,0.0,0.0,0.0,0.0,0.0,0.0,0.0,0.0,0.0,-2.9504,-2.9044,-3.0017,-2.9233,-2.9012,-2.9509,-2.9283,-2.9065,-2.8925,-2.9252,-2.9453,-2.9515,-2.8938,-2.8938,0.0,0.0,-2.9202,-2.9666,-2.9754,-2.9792,-2.9792,-2.9792,-2.9792,-2.9792,-2.9792,-2.9792,-2.9792,-2.9792,-2.9792,-2.9792,-2.9792,-2.9792,-2.9792,-2.9611,-2.9534,-2.9534,-2.9378,-2.7959,-2.6224,-2.5126,-2.4787,-2.4542,-2.3387,-2.3135,-2.3135,-2.3135,-2.2812,-2.249,-2.2432,-2.208,-2.165,-2.1211,-2.0963,-2.0758,-2.0381,-2.0265,-2.0091,-1.9725,-1.957,-1.8648,-1.6405,-1.5749,-1.4735,-1.29,-1.2445,-1.2305,-1.2305,-1.2305,-1.2305,-1.2305,-1.2258,-1.2238,-1.2238,-1.2278,-1.2305,-1.2305,-1.2552,-1.2755,-1.2768,-1.32,-1.346,-1.6374,-1.7054,-1.7723,-1.7572,-1.8038,-1.8444,-1.8032,-1.8082,-1.8149,-1.7757,-1.8523,-1.9121,-1.8777,-1.954,-2.0812,-2.2547,-2.4042,-2.5284,-2.6175,-2.6849,-2.7087,0.0,0.0,0.0,0.0,0.0,0.0,0.0,0.0,0.0,0.0,0.0,-2.938,-3.0269,-2.9889,-2.9736,-2.9835,-3.011,-3.0105,-2.9619,-2.91,-2.9327,-3.0106,-2.9439,-2.949,-3.0106,0.0,-2.968,-2.9792,-2.9792,-2.9792,-2.9792,-2.9792,-2.9792,-2.9792,-2.9792,-2.9792,-2.9792,-2.9792,-2.9792,-2.9792,-2.9792,-2.9792,-2.9792,-2.9792,-2.9792,-2.9792,-2.9792,-2.9052,-2.7879,-2.613,-2.5724,-2.5305,-2.3551,-2.3135,-2.3135,-2.3135,-2.2812,-2.251,-2.251,-2.2168,-2.1748,-2.1309,-2.123,-2.1084,-2.0635,-2.0566,-2.0498,-2.0293,-2.0059,-1.9052,-1.6842,-1.6096,-1.4961,-1.2968,-1.2472,-1.2305,-1.2305,-1.2305,-1.2305,-1.2305,-1.2305,-1.2305,-1.2305,-1.2458,-1.2545,-1.2545,-1.2846,-1.2999,-1.3006,-1.328,-1.3494,-1.6266,-1.6768,-1.7235,-1.7162,-1.8003,-1.8748,-1.8253,-1.8702,-1.9076,-1.8732,-1.9331,-1.9779,-1.9271,-2.0139,-2.1754,-2.4179,-2.5136,-2.5788,-2.6605,-2.6567,-2.6621,0.0,0.0,0.0,0.0,0.0,0.0,0.0,0.0,0.0,0.0,0.0,-2.9889,-3.0584,-3.0584,-3.0438,-3.0207,-3.0663,-3.0695,-3.0241,-2.9191,-2.9366,-3.0681,-3.0011,-2.9989,-3.0547,-3.0316,-3.0028,-2.9792,-2.9792,-2.9792,-2.9792,-2.9792,-2.9792,-2.9792,-2.9792,-2.9792,-2.9792,-2.9792,-2.9792,-2.9792,-2.9792,-2.9792,-2.9792,-2.9792,-2.9792,-2.9792,-2.9792,-2.9792,-2.93,-2.7058,-2.6483,-2.5891,-2.3637,-2.3135,-2.3135,-2.3135,-2.2812,-2.2539,-2.2637,-2.2324,-2.1894,-2.1455,-2.1387,-2.1201,-2.0654,-2.0566,-2.0566,-2.0566,-2.0273,-1.9316,-1.7415,-1.6505,-1.5209,-1.2981,-1.2538,-1.2378,-1.2305,-1.2305,-1.2331,-1.2405,-1.2405,-1.2438,-1.2512,-1.2739,-1.2852,-1.2859,-1.316,-1.3313,-1.3313,-1.338,-1.3534,-1.4938,-1.5827,-1.6742,-1.6742,-1.8082,-1.9377,-1.9512,-2.0079,-2.0737,-2.1291,-2.0991,-2.0617,-2.0572,-2.1141,-2.2278,-2.4253,-2.55,-2.6633,-2.7709,0.0,0.0,0.0,0.0,0.0,0.0,0.0,0.0,0.0,0.0,0.0,0.0,0.0,0.0,-3.1409,-3.1409,-3.1424,-3.1352,-3.0717,-3.0446,-3.0596,-3.0487,-3.0774,-3.1474,-3.0802,-3.0753,-3.1088,-3.0474,-3.0028,-2.9792,-2.9792,-2.9792,-2.9792,-2.9792,-2.9792,-2.9792,-2.9792,-2.9792,-2.9792,-2.9792,-2.9792,-2.9792,-2.9792,-2.9792,-2.9792,-2.9792,-2.9792,-2.9792,-2.9792,-2.9792,-2.93,-2.7058,-2.6483,-2.5891,-2.3637,-2.3135,-2.3135,-2.3135,-2.2812,-2.2627,-2.3018,-2.2754,-2.2334,-2.1914,-2.1836,-2.1553,-2.0693,-2.0566,-2.0566,-2.0566,-2.0537,-1.9966,-1.8398,-1.7355,-1.5731,-1.3015,-1.2802,-1.2599,-1.2318,-1.2305,-1.2425,-1.2775,-1.2788,-1.2846,-1.314,-1.3166,-1.318,-1.318,-1.3467,-1.3614,-1.3621,-1.3895,-1.4035,-1.5424,-1.6054,-1.6712,-1.6712,-1.7859,-1.9106,-1.9576,-2.0528,-2.1276,-2.1111,-2.1465,-2.1715,-2.1323,-2.1513,-2.2338,-2.4226,-2.5092,-2.586,-2.6674,0.0,0.0,0.0,0.0,0.0,0.0,0.0,0.0,0.0,0.0,0.0,0.0,0.0,0.0,-3.1482,-3.1482,-3.1482,-3.1482,-3.1219,-3.1071,-3.1174,-3.0457,-3.0762,-3.1867,-3.1245,-3.0968,-3.092,-3.062,-2.9981,-2.9289,-2.9641,-2.9792,-2.9792,-2.9792,-2.9792,-2.9792,-2.9792,-2.9792,-2.9792,-2.9792,-2.9792,-2.9792,-2.9792,-2.9792,-2.9792,-2.9792,-2.9792,-2.9792,-2.9792,-2.9792,-2.9456,-2.7867,-2.6964,-2.6141,-2.4553,-2.3637,-2.3135,-2.3135,-2.3018,-2.2949,-2.3105,-2.3008,-2.2685,-2.2002,-2.1885,-2.1582,-2.0693,-2.0566,-2.0566,-2.0566,-2.0566,-1.9995,-1.8475,-1.7192,-1.579,-1.4176,-1.4411,-1.4111,-1.2936,-1.2685,-1.2701,-1.2815,-1.2933,-1.3093,-1.3206,-1.3387,-1.348,-1.348,-1.3774,-1.3921,-1.3921,-1.4035,-1.4088,-1.5439,-1.5934,-1.6458,-1.6652,-1.7861,-1.9301,-2.0378,-2.135,-2.1994,-2.1949,-2.2265,-2.2303,-2.1456,-2.1513,-2.2231,0.0,-2.4549,-2.5077,0.0,0.0,0.0,0.0,0.0,0.0,0.0,0.0,0.0,0.0,0.0,0.0,0.0,0.0,0.0,0.0,-3.1258,-3.1315,-3.1482,-3.1482,-3.1482,-3.1482,-3.0701,-3.0982,-3.2232,-3.1529,-3.1237,-3.1198,-3.087,-3.0225,-2.9361,-2.9591,-2.9542,-2.9277,-2.9453,-2.9515,-2.9515,-2.9515,-2.9641,-2.9792,-2.9792,-2.9792,-2.9792,-2.9792,-2.9792,-2.9792,-2.9792,-2.9792,-2.9792,-2.9792,-2.9792,-2.9624,-2.8858,-2.7533,-2.6224,-2.5041,-2.3963,-2.3135,-2.3135,-2.3135,-2.3135,-2.3135,-2.3135,-2.291,-2.2207,-2.1973,-2.1631,-2.0889,-2.0654,-2.0566,-2.0566,-2.0566,-2.0052,-1.8656,-1.7379,-1.6312,-1.5319,-1.563,-1.5257,-1.3592,-1.3571,-1.3409,-1.3104,-1.3146,-1.33,-1.3487,-1.3681,-1.3781,-1.3781,-1.3988,-1.4088,-1.4088,-1.4088,-1.4088,-1.4633,-1.5319,-1.5963,-1.6562,-1.8238,-2.0213,-2.2244,-2.2724,-2.3056,-2.4328,-2.3567,-2.2281,-2.0854,-2.1131,-2.2021,-2.3358,-2.3889,-2.4531,0.0,0.0,0.0,0.0,0.0,0.0,0.0,0.0,0.0,0.0,0.0,0.0,0.0,0.0,0.0,0.0,-3.0851,-3.0821,-3.1452,-3.1467,-3.1467,-3.1482,-3.1482,-3.1884,-3.2482,-3.1824,-3.1721,-3.2033,-3.1415,-3.0776,-3.0112,-2.9618,-2.8925,-2.8172,-2.8712,-2.8925,-2.8925,-2.8938,-2.9302,-2.9792,-2.9792,-2.9792,-2.9792,-2.9792,-2.9792,-2.9792,-2.9792,-2.9792,-2.9792,-2.9792,-2.9792,-2.9792,-2.9792,-2.8131,-2.6224,-2.5041,-2.3963,-2.3135,-2.3135,-2.3135,-2.3135,-2.3135,-2.3135,-2.3008,-2.2588,-2.2168,-2.1738,-2.1299,-2.0859,-2.0566,-2.0566,-2.0634,-2.0157,-1.9116,-1.8253,-1.7327,-1.6312,-1.6228,-1.5635,-1.4343,-1.4937,-1.4823,-1.3641,-1.3367,-1.3494,-1.4075,-1.4088,-1.4088,-1.4088,-1.4088,-1.4088,-1.4088,-1.4088,-1.4088,-1.6366,-1.65,-1.6697,-1.7849,-1.8912,-2.0094,-2.1635,-2.2338,-2.289,-2.3595,-2.2714,-2.1792,-2.1809,-2.1642,-2.1785,-2.2587,-2.3116,0.0,0.0,0.0,0.0,0.0,0.0,0.0,0.0,0.0,0.0,0.0,0.0,0.0,0.0,0.0,0.0,0.0,-2.9968,-3.0163,-3.0806,-3.0806,-3.1046,-3.1482,-3.1482,-3.1571,-3.1824,-3.1556,-3.1235,-3.083,-3.1027,-3.0628,-2.9916,-2.9555,-2.9086,-2.8699,-2.8863,-2.8925,-2.8976,-2.939,-2.9641,-2.9792,-2.9792,-2.9792,-2.9792,-2.9792,-2.9792,-2.9792,-2.9792,-2.9792,-2.9792,-2.9792,-2.9792,-2.9792,-2.9792,-2.8131,-2.6389,-2.6058,-2.4467,-2.3135,-2.3135,-2.3135,-2.3135,-2.3135,-2.3135,-2.3008,-2.2588,-2.2168,-2.1738,-2.1299,-2.0859,-2.0566,-2.0566,-2.0303,-2.0148,-2.0129,-1.9593,-1.8919,-1.8257,-1.8565,-1.8082,-1.6452,-1.6815,-1.6068,-1.3716,-1.3761,-1.3908,-1.4082,-1.4088,-1.4088,-1.4088,-1.4088,-1.4088,-1.4088,-1.4088,-1.4088,-1.6166,-1.632,-1.6742,-1.8313,-1.96,-2.0767,-2.1844,-2.277,-2.3543,-2.4066,-2.3144,-2.2194,-2.2293,-2.2038,0.0,-2.2254,-2.2774,0.0,0.0,0.0,0.0,0.0,0.0,0.0,0.0,0.0,0.0,0.0,0.0,0.0,0.0,0.0,0.0,0.0,-2.9562,-2.9743,-3.0133,-3.0372,-3.0597,-3.0761,-3.1285,-3.139,-3.1135,-3.1347,-3.1219,-3.0747,-3.0606,-2.9956,-2.8984,-2.9175,-2.8848,-2.8323,-2.875,-2.88,-2.8662,-2.9239,-2.9453,-2.9478,-2.9716,-2.9792,-2.9792,-2.9792,-2.9792,-2.9792,-2.9792,-2.9792,-2.9792,-2.9792,-2.9792,-2.9792,-2.9792,-2.845,-2.7046,-2.6637,-2.4723,-2.3135,-2.3135,-2.3135,-2.3135,-2.3135,-2.3135,-2.3008,-2.2588,-2.2168,-2.1738,-2.1299,-2.0859,-2.0566,-2.0566,-2.0332,-2.0273,-2.0537,-2.0176,-1.9782,-1.9416,-1.9669,-1.924,-1.7828,-1.8106,-1.7337,-1.5168,-1.5153,-1.509,-1.4734,-1.4734,-1.4489,-1.4088,-1.4088,-1.4088,-1.4088,-1.4088,-1.4088,-1.5027,-1.5495,-1.6278,-1.8283,-2.0258,-2.1874,-2.2607,-2.3564,-2.4447,-2.4954,-2.4107,-2.3037,-2.2349,-2.2234,-2.2234,-2.2234,0.0,0.0,0.0,0.0,0.0,0.0,0.0,0.0,0.0,0.0,0.0,0.0,0.0,0.0,0.0,0.0,0.0,-2.9462,-2.9429,-2.9429,-2.949,-3.0043,-3.0073,0.0,-3.0791,-3.1061,-3.0522,-3.121,-3.1467,-3.1322,-3.0361,-2.9152,-2.7867,-2.863,-2.8318,-2.7394,-2.8448,-2.8549,-2.8172,-2.8725,-2.8963,-2.9089,-2.9616,-2.9792,-2.9792,-2.9792,-2.9792,-2.9792,-2.9792,-2.9792,-2.9792,-2.9792,-2.9792,-2.9792,-2.9792,-2.8937,-2.7844,-2.6719,-2.4808,-2.3222,-2.3135,-2.3135,-2.3135,-2.3135,-2.3135,-2.3018,-2.2637,-2.2187,-2.1719,-2.124,-2.083,-2.0566,-2.0566,-2.0566,-2.0566,-2.0566,-2.0215,-1.9971,-1.9971,-1.9971,-1.9583,-1.857,-1.8916,-1.8638,-1.7496,-1.7004,-1.6421,-1.5696,-1.5621,-1.5054,-1.4088,-1.4088,-1.4088,-1.4088,-1.4088,-1.4088,-1.748,-1.6884,-1.6398,-1.8852,-2.0587,-2.1994,-2.3146,-2.3216,-2.2887,-2.2482,-2.2168,-2.1881,-2.1725,-2.1669,-2.1669,0.0,0.0,0.0,0.0,0.0,0.0,0.0,0.0,0.0,0.0,0.0,0.0,0.0,0.0,0.0,0.0,0.0,0.0,-2.8765,-2.8709,-2.874,-2.8801,-2.8936,-2.9205,0.0,-2.9864,-3.0178,-3.0522,-3.121,-3.1161,-3.0584,-3.0983,-3.0086,-2.8396,-2.9255,-2.8681,-2.7344,-2.8021,-2.821,-2.8172,-2.8725,-2.9214,-2.9628,-2.9741,-2.9792,-2.9792,-2.9792,-2.9792,-2.9792,-2.9792,-2.9792,-2.9792,-2.9792,-2.9792,-2.9792,-2.9792,-2.8937,-2.7844,-2.6719,-2.5473,-2.4211,-2.3299,-2.3135,-2.3135,-2.3135,-2.3135,-2.3105,-2.3018,-2.2383,-2.1621,-2.083,-2.0625,-2.0566,-2.0566,-2.0566,-2.0566,-2.0566,-2.0478,-2.042,-2.042,-2.042,-2.0343,-2.011,-2.0187,-1.9756,-1.8718,-1.6928,-1.5868,-1.5696,-1.4894,-1.4328,-1.4088,-1.4088,-1.4088,-1.4088,-1.4088,-1.4088,-1.6891,-1.6686,-1.6877,-1.9525,-2.0946,-2.1874,-2.2532,-2.2187,-2.1697,-2.1671,-2.1572,-2.1493,-2.1493,-2.1493,-2.1493,0.0,0.0,0.0,0.0,0.0,0.0,0.0,0.0,0.0,0.0,0.0,0.0,0.0,0.0,0.0,0.0,-2.9088,-2.9134,-2.8511,-2.8779,-2.8682,-2.815,-2.8442,-2.8607,-2.8622,-2.9265,-2.9744,-3.0103,-3.1091,-3.1087,-3.0329,-3.0718,-2.9874,-2.8185,-2.8906,-2.8635,-2.7914,-2.8015,-2.8375,-2.8715,-2.8861,-2.9114,-2.9415,-2.9691,-2.9792,-2.9792,-2.9792,-2.9792,-2.9792,-2.9792,-2.9792,-2.9792,-2.9792,-2.9792,-2.9792,-2.9792,-2.9365,-2.853,-2.6883,-2.5456,-2.4283,-2.3337,-2.2978,-2.29,-2.3096,-2.3135,-2.3076,-2.2871,-2.2139,-2.1348,-2.0664,-2.0566,-2.0566,-2.0566,-2.0566,-2.0566,-2.0566,-2.0566,-2.0401,-1.9844,-1.9835,-1.9599,-1.9027,-1.9027,-1.8789,-1.823,-1.6593,-1.5696,-1.5696,-1.5137,-1.4566,-1.4088,-1.4088,-1.4088,-1.4088,-1.4088,-1.4088,-1.5763,-1.6296,-1.7413,-1.9609,-2.0782,-2.138,-2.15,-2.1139,-2.0913,-2.1412,-2.1471,-2.1386,-2.1393,-2.1368,0.0,0.0,0.0,0.0,0.0,0.0,0.0,0.0,0.0,0.0,0.0,0.0,0.0,0.0,0.0,0.0,-2.8077,-2.8851,-2.8944,-2.8341,-2.8823,-2.8545,-2.746,-2.8083,-2.8083,-2.7425,-2.8771,-2.9415,-2.946,-3.0657,-3.0821,-3.011,-3.0406,-2.9504,-2.796,-2.8652,-2.8691,-2.8339,-2.8196,-2.8485,-2.9034,-2.8756,-2.8699,-2.885,-2.9327,-2.9566,-2.9628,-2.9528,-2.9628,-2.9779,-2.9679,-2.9716,-2.9792,-2.9792,-2.9792,-2.9792,-2.9792,-2.9624,-2.904,-2.6976,-2.5354,-2.4002,-2.3298,-2.2861,-2.2705,-2.2978,-2.2969,-2.2793,-2.2363,-2.1709,-2.1084,-2.0635,-2.0566,-2.0566,-2.0566,-2.0566,-2.0566,-2.0566,-2.0566,-2.0245,-1.9362,-1.9283,-1.8789,-1.7666,-1.7577,-1.7415,-1.7009,-1.6191,-1.5621,-1.5462,-1.5462,-1.4977,-1.4088,-1.4088,-1.4088,-1.4088,-1.4088,-1.4088,-1.7247,-1.7514,-1.7637,-1.7996,-1.9046,-2.0109,-2.0707,-2.0775,-2.0726,-2.0811,-2.089,-2.0875,-2.0887,0.0,0.0,0.0,0.0,0.0,0.0,0.0,0.0,0.0,0.0,0.0,0.0,0.0,0.0,0.0,0.0,0.0,-2.6789,-2.7866,-2.8243,-2.7627,-2.7719,-2.7426,-2.6722,-2.738,-2.738,-2.6737,-2.8083,-2.8727,-2.8757,-2.9505,-2.9729,-2.9477,-3.0778,-3.0389,-2.8917,-3.0228,-2.9582,-2.7828,-2.8258,-2.8092,-2.7607,-2.754,-2.7808,-2.8235,-2.831,-2.8649,-2.8963,-2.8486,-2.9001,-2.9691,-2.9202,-2.9402,-2.9792,-2.9792,-2.9792,-2.9792,-2.9792,-2.9106,-2.8016,-2.6801,-2.5354,-2.4002,-2.3298,-2.3096,-2.2959,-2.2656,-2.2305,-2.1914,-2.1475,-2.1309,-2.1084,-2.0635,-2.0566,-2.0566,-2.0566,-2.0566,-2.0566,-2.0566,-2.0566,-2.0566,-2.0401,-2.0401,-1.9923,-1.8877,-1.8798,-1.79,-1.6026,-1.5786,-1.5296,-1.4328,-1.4328,-1.425,-1.4088,-1.4088,-1.4088,-1.4088,-1.4088,-1.4088,-1.6945,-1.6519,-1.6174,-1.6533,-1.7341,-1.8175,-1.8847,-1.9353,-1.9843,-2.0538,-2.0727,-2.0633,-2.0295,0.0,0.0,0.0,0.0,0.0,0.0,0.0,0.0,0.0,0.0,0.0,0.0,0.0,0.0,0.0,0.0,-2.6061,-2.6479,-2.7008,-2.7224,-2.6929,-2.6929,-2.6811,-2.6587,-2.6871,-2.7066,-2.7141,-2.7739,-2.8023,-2.8053,-2.8727,-2.9112,-2.9347,-3.0465,-3.0176,-2.9016,-2.9673,-2.9617,-2.903,-2.7866,-2.791,-2.8594,-2.7678,-2.7632,-2.8109,-2.8109,-2.826,-2.8423,-2.8185,-2.8649,-2.9264,-2.9001,-2.9114,-2.9377,-2.9691,-2.9566,-2.939,-2.9704,-2.9443,-2.8609,-2.6894,-2.5975,-2.5059,-2.3434,-2.2959,-2.2803,-2.2852,-2.2519,-2.21,-2.167,-2.1396,-2.1084,-2.0635,-2.0566,-2.0566,-2.0566,-2.0566,-2.0566,-2.0566,-2.0566,-2.0323,-1.9756,-1.9678,-1.9195,-1.8149,-1.7496,-1.6675,-1.5779,-1.5137,-1.4573,-1.4088,-1.4088,-1.4088,-1.4088,-1.4088,-1.4088,-1.4088,-1.4088,-1.4088,-1.636,-1.5645,-1.5111,-1.5469,-1.6009,-1.6637,-1.7294,-1.8018,-1.8819,0.0,-2.0333,-2.0304,0.0,0.0,0.0,0.0,0.0,0.0,0.0,0.0,0.0,0.0,0.0,0.0,0.0,0.0,0.0,0.0,0.0,-2.4852,-2.5503,-2.5826,-2.6026,-2.6026,-2.6026,-2.6047,-2.6078,-2.6093,-2.6497,-2.732,-2.732,-2.746,-2.764,-2.8113,-2.8493,-2.8857,-3.0007,-3.0148,-2.9628,-2.9628,-2.9889,-3.0072,-2.7986,-2.8,-2.9091,-2.7657,-2.7331,-2.7682,-2.7682,-2.777,-2.7896,-2.7896,-2.8273,-2.8725,-2.8725,-2.8725,-2.8812,-2.9239,-2.9051,-2.885,-2.9428,-2.9155,-2.8373,-2.686,-2.6058,-2.5147,-2.3474,-2.2812,-2.2607,-2.292,-2.2549,-2.209,-2.1777,-2.1357,-2.0947,-2.0615,-2.0566,-2.0566,-2.0566,-2.0566,-2.0566,-2.0566,-2.0566,-2.0245,-1.9441,-1.9441,-1.8957,-1.7819,-1.7009,-1.6265,-1.5696,-1.4894,-1.4496,-1.4496,-1.425,-1.4088,-1.4088,-1.4088,-1.4088,-1.4088,-1.4088,-1.4088,-1.6016,-1.5785,-1.5604,-1.4992,-1.5364,-1.6023,-1.6607,-1.7262,-1.7948,-1.8672,-1.9295,-1.9743,0.0,0.0,0.0,0.0,0.0,0.0,0.0,0.0,0.0,0.0,0.0,0.0,0.0,0.0,0.0,0.0,0.0,-2.4103,-2.2975,-2.4043,-2.4717,-2.4717,-2.4717,-2.4687,-2.4686,-2.4686,-2.5375,-2.6632,-2.6632,-2.6961,-2.7625,-2.7655,-2.755,-2.7506,-2.9607,-3.0839,-3.1351,-3.1351,-3.097,-3.0208,-2.9254,-2.8454,-2.7723,-2.682,-2.6584,-2.6609,-2.6609,-2.6892,-2.7318,-2.7318,-2.7695,-2.8147,-2.8147,-2.8147,-2.816,-2.8185,-2.8172,-2.8285,-2.8837,-2.7359,-2.5959,-2.636,-2.4808,-2.3222,-2.3135,-2.2812,-2.2519,-2.2539,-2.1875,-2.1289,-2.1269,-2.0898,-2.0596,-2.0566,-2.0566,-2.0566,-2.0566,-2.0566,-2.0566,-2.0566,-2.0566,-2.0566,-2.0489,-2.0489,-2.0079,-1.8957,-1.8877,-1.79,-1.5779,-1.5621,-1.5621,-1.5621,-1.4657,-1.4088,-1.4088,-1.4088,-1.4088,-1.4088,-1.4088,-1.4088,-1.5653,-1.5334,-1.4992,-1.4333,-1.4648,-1.5201,-1.5441,-1.6293,-1.713,-1.7369,-1.8298,-1.9061,0.0,0.0,0.0,0.0,0.0,0.0,0.0,0.0,0.0,0.0,0.0,0.0,0.0,0.0,0.0,0.0,0.0,0.0,-2.2069,-2.2488,-2.2936,-2.337,-2.337,-2.3774,-2.4567,-2.5046,-2.5495,-2.5959,-2.6393,-2.6722,-2.6961,-2.743,-2.778,-2.8207,-2.8964,-2.9603,-3.0134,-3.0543,-3.0837,-3.0896,-2.8939,-2.8298,-2.8363,-2.6973,-2.6533,-2.6533,-2.6533,-2.6659,-2.6753,-2.6753,-2.713,-2.7582,-2.7582,-2.7582,-2.7657,-2.8009,-2.7846,-2.7783,-2.8687,-2.8282,-2.7699,-2.7566,-2.6378,-2.4978,-2.4021,-2.3098,-2.2598,-2.2861,-2.2451,-2.1973,-2.1699,-2.1289,-2.0898,-2.0605,-2.0566,-2.0566,-2.0566,-2.0566,-2.0566,-2.0566,-2.0566,-2.0566,-2.0566,-2.0566,-2.0401,-2.0079,-1.9362,-1.863,-1.7819,-1.709,-1.6764,-1.6764,-1.5711,-1.5137,-1.5137,-1.4412,-1.4088,-1.4088,-1.4088,-1.4088,-1.5743,-1.5396,-1.4962,-1.4303,-1.4468,-1.4737,-1.4513,-1.5485,-1.6443,-1.6547,-1.762,-1.8576,0.0,0.0,0.0,0.0,0.0,0.0,0.0,0.0,0.0,0.0,0.0,0.0,0.0,0.0,0.0,0.0,0.0,0.0,-2.138,-2.1575,-2.1889,-2.2338,-2.2338,-2.2877,-2.3969,-2.4403,-2.4837,-2.5285,-2.5719,-2.6048,-2.6288,-2.6946,-2.75,-2.7949,-2.8397,-2.8922,-2.9434,-3.0105,-3.0689,-3.0966,-2.9233,-2.8939,-2.9254,-2.7855,-2.7162,-2.6905,-2.6905,-2.6714,-2.6559,-2.6747,-2.6854,-2.7042,-2.7231,-2.7155,-2.708,-2.7444,-2.7293,-2.7256,-2.836,-2.8611,-2.8484,-2.7693,-2.6783,-2.5691,-2.4477,-2.3668,-2.3172,-2.2987,-2.2588,-2.2217,-2.1934,-2.1396,-2.0908,-2.0605,-2.0566,-2.0566,-2.0566,-2.0566,-2.0566,-2.0566,-2.0566,-2.0566,-2.0566,-2.0566,-2.0566,-2.0566,-1.9923,-1.9362,-1.9036,-1.831,-1.7908,-1.7908,-1.6764,-1.6437,-1.6838,-1.4977,-1.4088,-1.4088,-1.4088,-1.4135,0.0,0.0,0.0,-1.5031,-1.4866,-1.4674,-1.4015,-1.4896,-1.5926,-1.6215,-1.7295,0.0,0.0,0.0,0.0,0.0,0.0,0.0,0.0,0.0,0.0,0.0,0.0,0.0,0.0,0.0,0.0,0.0,0.0,-2.1365,-2.0722,-2.1306,-2.1665,-2.1665,-2.168,-2.1994,-2.2679,-2.2694,-2.3295,-2.4522,-2.4552,-2.4896,-2.56,-2.6288,-2.6587,-2.6662,-2.7993,-2.8936,-2.9564,-3.0223,-3.0492,-3.0511,-3.0352,-3.0254,-3.0208,-2.9317,-2.8427,-2.7736,-2.7736,-2.7229,-2.6609,-2.715,-2.6961,-2.6634,-2.7092,-2.6879,-2.6533,-2.6533,-2.6533,-2.6716,-2.7821,-2.8093,-2.7808,-2.6778,-2.579,-2.4971,-2.4388,-2.4587,-2.4376,-2.2814,-2.2168,-2.1885,-2.1865,-2.1152,-2.0576,-2.0566,-2.0566,-2.0566,-2.0566,-2.0566,-2.0566,-2.0566,-2.0566,-2.0566,-2.0566,-2.0566,-2.0566,-2.0566,-2.0566,-2.0157,-1.9116,-1.9045,-1.9045,-1.9045,-1.7908,-1.7908,-1.8957,-1.5711,-1.4173,-1.4173,-1.4088,-1.4242,-1.6301,0.0,0.0,0.0,0.0,0.0,-1.5397,-1.5908,-1.6412,-1.6003,-1.6992,0.0,0.0,0.0,0.0,0.0,0.0,0.0,0.0,0.0,0.0,0.0,0.0,0.0,0.0,0.0,0.0,0.0,-2.0034,-2.0168,-1.9989,-2.0617,-2.0991,-2.0991,-2.1455,-2.1784,-2.1964,-2.1964,-2.2383,-2.3221,-2.367,-2.4238,-2.4941,-2.6078,-2.6587,-2.6632,-2.7485,-2.7964,-2.8218,-2.937,-3.0103,-3.0466,-2.9813,-2.9865,-3.0208,-2.9317,-2.8876,-2.862,-2.862,-2.8051,-2.7377,-2.7533,-2.7101,-2.6559,-2.671,-2.6647,-2.6533,-2.6533,-2.6533,-2.6716,-2.7821,-2.8101,-2.81,-2.8175,-2.7748,-2.6878,-2.5617,-2.567,-2.5216,-2.2559,-2.1963,-2.1787,-2.1475,-2.1211,-2.0937,-2.0615,-2.0566,-2.0566,-2.0566,-2.0566,-2.0566,-2.0566,-2.0566,-2.0566,-2.0566,-2.0566,-2.0566,-2.0566,-2.0566,-2.0489,-2.0167,-2.0157,-2.0157,-2.0157,-1.9116,-1.8718,-1.8957,-1.6519,-1.5296,-1.5213,-1.4496,-1.4128,-1.6925,-1.6881,-1.6853,-1.7167,0.0,0.0,-1.5935,-1.6088,-1.62,0.0,-1.616,0.0,0.0,0.0,0.0,0.0,0.0,0.0,0.0,0.0,0.0,0.0,0.0,0.0,0.0,-1.969,0.0,-1.969,-1.969,-1.969,-1.969,-2.0064,-2.0288,-2.0288,-2.0662,-2.0991,-2.1276,-2.1291,-2.1754,-2.2724,-2.3041,-2.3565,-2.4238,-2.5285,-2.5779,-2.5824,-2.6752,-2.7156,-2.7245,-2.8308,-2.928,-3.0093,-2.9881,-3.0192,-3.0718,-3.0208,-2.9827,-2.9566,-2.9566,-2.8748,-2.767,-2.767,-2.7162,-2.6533,-2.6533,-2.6533,-2.6533,-2.6533,-2.6697,-2.6954,-2.7595,-2.7934,-2.8185,-2.8511,-2.816,-2.7441,-2.6105,-2.5837,-2.5148,-2.2732,-2.2221,-2.199,-2.135,-2.1074,-2.0869,-2.0605,-2.0566,-2.0566,-2.0566,-2.0566,-2.0566,-2.0566,-2.0566,-2.0566,-2.0566,-2.0566,-2.0566,-2.0566,-2.0566,-2.0566,-2.0566,-2.0566,-2.0566,-2.0566,-2.0001,-1.9195,-1.831,-1.7009,-1.6355,-1.6355,-1.4951,-1.4511,-1.7962,-1.7625,-1.7297,-1.7872,-1.7571,0.0,-1.6201,-1.604,-1.5958,0.0,0.0,0.0,0.0,0.0,0.0,0.0,0.0,0.0,0.0,0.0,0.0,0.0,0.0,0.0,-1.957,-1.957,-1.9615,-1.9675,-1.969,-1.969,-1.969,-1.969,-1.969,-1.969,-1.969,-1.9989,-2.0587,-2.0602,-2.1216,-2.2499,-2.2499,-2.2817,-2.352,-2.4208,-2.4507,-2.4657,-2.5944,-2.6512,-2.6632,-2.7215,-2.8263,-2.952,-3.0073,-3.0717,-3.133,-3.1332,-3.0911,-3.0348,-3.0435,-2.9317,-2.7868,-2.7868,-2.7229,-2.6533,-2.6533,-2.6533,-2.6533,-2.6533,-2.6816,-2.7205,-2.7268,-2.7607,-2.7946,-2.7996,-2.7595,-2.6955,-2.6034,-2.5469,-2.4693,-2.3253,-2.2812,-2.2278,-2.1312,-2.083,-2.0566,-2.0566,-2.0566,-2.0566,-2.0566,-2.0566,-2.0566,-2.0566,-2.0566,-2.0566,-2.0566,-2.0566,-2.0566,-2.0566,-2.0566,-2.0566,-2.0566,-2.0566,-2.0566,-2.0566,-2.0479,-1.9353,-1.7342,-1.7342,-1.718,-1.6862,-1.5269,-1.4967,-1.8995,-1.9273,-1.9269,-1.8825,-1.9035,0.0,-1.7719,-1.787,-1.8071,0.0,-1.7283,-1.7339,0.0,0.0,0.0,0.0,0.0,0.0,0.0,0.0,0.0,0.0,0.0,0.0,-1.8837,-1.8897,-1.9121,-1.9645,-1.969,-1.969,-1.969,-1.969,-1.969,-1.969,-1.969,-1.975,-1.9884,-1.9884,-2.0288,-2.1096,-2.1096,-2.1724,-2.2918,-2.3505,-2.4103,-2.4627,-2.5465,-2.6093,-2.6602,-2.6722,-2.7575,-2.8801,-2.8921,-2.9385,-3.0028,-3.0522,-3.0589,-3.0535,-3.1099,-3.0147,-2.8748,-2.8748,-2.7736,-2.6533,-2.6533,-2.6533,-2.6533,-2.6533,-2.6609,-2.6798,-2.7168,-2.703,-2.6892,-2.7344,-2.7017,-2.6615,-2.6395,-2.6308,-2.591,-2.4765,-2.3216,-2.1793,-2.084,-2.0625,-2.0566,-2.0566,-2.0566,-2.0566,-2.0566,-2.0566,-2.0566,-2.0566,-2.0566,-2.0566,-2.0566,-2.0566,-2.0566,-2.0566,-2.0566,-2.0566,-2.0566,-2.0566,-2.0566,-2.0566,-1.9756,-1.863,-1.7342,-1.7342,-1.6445,-1.4748,-1.4311,-1.4253,-2.0077,-2.0168,-2.0002,-2.0044,-2.0027,0.0,0.0,-1.8623,-1.8352,-1.8352,-1.7473,-1.6931,-1.7676,0.0,0.0,0.0,0.0,0.0,0.0,0.0,0.0,0.0,0.0,0.0,-1.8179,-1.8508,-1.8972,-1.963,-1.969,-1.969,-1.969,-1.9909,-2.0,-2.0,-2.0,-2.0,-2.0,-1.9818,-2.0034,-2.0722,-2.1051,-2.1724,-2.2739,-2.331,-2.3789,-2.4148,-2.4822,-2.53,-2.5659,-2.6318,-2.6991,-2.7664,-2.8338,-2.9011,-2.9624,-2.9924,-3.0043,-3.0078,-3.0321,-2.9853,-2.9035,-2.8525,-2.7802,-2.704,-2.6589,-2.6533,-2.6533,-2.6533,-2.6533,-2.6596,-2.6804,-2.6666,-2.6596,-2.6804,-2.6735,-2.6533,-2.6533,-2.6094,-2.5594,-2.5087,-2.3368,-2.1886,-2.1375,-2.0934,-2.0566,-2.0566,-2.0566,-2.0566,-2.0566,-2.0566,-2.0566,-2.0566,-2.0566,-2.0566,-2.0566,-2.0566,-2.0566,-2.0566,-2.0566,-2.0566,-2.0566,-2.0566,-2.0323,-1.9835,-1.9274,-1.8149,-1.6519,-1.6519,-1.6198,-1.5636,-1.458,-1.4412,-2.0877,-2.0874,0.0,0.0,0.0,-2.0391,0.0,0.0,0.0,0.0,0.0,0.0,0.0,0.0,0.0,0.0,0.0,0.0,0.0,0.0,0.0,0.0,0.0,0.0,0.0,-1.8437,-1.9152,-1.9697,-1.9884,-1.9945,-1.9945,-2.0261,-2.0449,-2.0449,-2.0449,-2.0449,-2.0449,-2.0104,-2.0161,-2.0625,-2.1189,-2.1789,-2.2503,-2.2996,-2.337,-2.3625,-2.4193,-2.4462,-2.4672,-2.5779,-2.6288,-2.6542,-2.7874,-2.8727,-2.9205,-2.934,-2.94,-2.9421,-2.936,-2.9276,-2.8983,-2.8116,-2.7668,-2.7393,-2.6676,-2.6533,-2.6533,-2.6533,-2.6533,-2.6533,-2.6533,-2.6533,-2.6533,-2.6533,-2.6533,-2.6533,-2.6533,-2.5873,-2.5229,-2.5004,-2.3514,-2.2253,-2.2027,-2.1231,-2.0566,-2.0566,-2.0566,-2.0566,-2.0566,-2.0566,-2.0537,-2.0449,-2.0439,-2.0439,-2.0439,-2.0439,-2.0478,-2.0557,-2.0566,-2.0566,-2.0566,-2.0401,-1.9766,-1.8709,-1.847,-1.7407,-1.5372,-1.5372,-1.5869,-1.6609,-1.4901,-1.4573,0.0,0.0,0.0,0.0,-2.146,0.0,0.0,0.0,-2.0636,-1.9985,0.0,0.0,0.0,0.0,0.0,0.0,0.0,0.0,0.0,0.0,0.0,0.0,0.0,0.0,0.0,0.0,-1.9798,-1.9878,-2.0496,-2.0862,-2.0862,-2.0894,-2.0926,-2.0926,-2.0926,-2.0926,-2.0926,-2.0862,-2.0663,-2.0335,-2.0412,-2.0935,-2.1814,-2.1874,-2.2532,-2.3595,-2.3684,-2.4059,-2.4597,-2.4746,-2.5196,-2.5854,-2.7171,-2.779,-2.7874,-2.8487,-2.8712,-2.8801,-2.9352,-2.909,-2.8383,-2.8282,-2.7563,-2.6778,-2.6561,-2.6533,-2.6533,-2.6533,-2.6533,-2.6533,-2.6533,-2.6533,-2.6533,-2.6533,-2.6533,-2.6533,-2.6533,-2.6383,-2.6094,-2.5146,-2.4108,-2.3073,-2.2178,-2.1231,-2.0566,-2.0566,-2.0566,-2.0566,-2.0566,-2.0566,-2.042,-2.0029,-1.999,-1.999,-1.999,-1.999,-2.0156,-2.0537,-2.0566,-2.0566,-2.0566,-1.9687,-1.863,-1.7504,-1.6601,-1.5462,-1.425,-1.425,-1.4328,-1.4496,-1.4166,-1.4173,0.0,0.0,0.0,0.0,0.0,0.0,-2.0811,0.0,-2.067,0.0,0.0,0.0,0.0,0.0,0.0,0.0,-1.9286,0.0,0.0,0.0,0.0,0.0,0.0,0.0,0.0,0.0,0.0,0.0,0.0,-2.0368,-2.0368,-2.1003,-2.1244,-2.1007,-2.0991,-2.0862,-2.0583,-2.0364,-2.0139,-1.9945,-2.0354,-2.0744,-2.1156,-2.1919,-2.2562,-2.3086,-2.3445,-2.3759,-2.4059,-2.4418,-2.4792,-2.5136,-2.6063,-2.6662,-2.7081,-2.7754,-2.8008,-2.8032,-2.8233,-2.8057,-2.7725,-2.7201,-2.6414,-2.5678,-2.5921,-2.5963,-2.6025,-2.6433,-2.6533,-2.6533,-2.6533,-2.6533,-2.6533,-2.6533,-2.6533,-2.6533,-2.6533,-2.6025,-2.5566,-2.5375,-2.389,-2.2615,-2.2407,-2.1429,-2.0566,-2.0566,-2.0566,-2.0478,-2.0225,-2.0185,-2.0019,-1.96,-1.9551,-1.9648,-1.9893,-1.9912,-2.0098,-2.0537,-2.0566,-2.0449,-2.0195,-2.0033,-1.9107,-1.7334,-1.6846,-1.5794,-1.4088,-1.4088,-1.4088,-1.4088,-1.4088,-1.4088,-2.1375,0.0,0.0,0.0,0.0,0.0,0.0,0.0,0.0,0.0,0.0,0.0,0.0,0.0,-2.0255,-2.0035,0.0,-1.9063,0.0,0.0,0.0,0.0,0.0,0.0,0.0,0.0,0.0,0.0,0.0,0.0,-2.0254,-2.122,-2.1675,-2.1354,-2.137,-2.1181,-2.0846,-2.0565,-2.0277,-2.005,-2.0569,-2.0736,-2.0752,-2.171,-2.2233,-2.2443,-2.3071,-2.334,-2.34,-2.4073,-2.4343,-2.4418,-2.5076,-2.5749,-2.6408,-2.7066,-2.746,-2.7533,-2.7215,-2.6995,-2.6778,-2.6055,-2.5426,-2.4925,-2.5287,-2.5385,-2.5473,-2.5887,-2.6113,-2.6226,-2.6226,-2.6408,-2.6533,-2.6533,-2.6533,-2.6533,-2.6533,-2.5832,-2.5172,-2.5191,-2.3779,-2.2502,-2.2166,-2.1298,-2.0566,-2.0566,-2.0566,-2.041,-1.9971,-1.9912,-1.9756,-1.9336,-1.918,-1.9287,-1.9707,-1.9629,-1.9805,-2.0352,-2.0391,-2.0303,-2.0098,-2.0159,-1.9441,-1.7827,-1.7172,-1.6198,-1.4985,-1.4657,-1.4657,-1.4985,-1.4328,-1.4128,0.0,0.0,0.0,-2.1704,0.0,0.0,0.0,0.0,-2.235,0.0,0.0,0.0,0.0,-2.1187,-2.0906,-2.012,-1.9985,0.0,0.0,0.0,0.0,0.0,0.0,0.0,0.0,0.0,0.0,0.0,0.0,0.0,-2.115,-2.1877,-2.2282,-2.2254,-2.2254,-2.2254,-2.2254,-2.2209,-2.1781,-2.0975,-2.0991,-2.0905,-2.0722,-2.0752,-2.1126,-2.1769,-2.2428,-2.2753,-2.2798,-2.337,-2.3625,-2.3699,-2.4388,-2.5061,-2.5719,-2.6378,-2.7021,-2.7524,-2.6803,-2.6042,-2.5424,-2.5229,-2.5116,-2.5053,-2.4861,-2.4845,-2.4845,-2.487,-2.5234,-2.5624,-2.5624,-2.6038,-2.6533,-2.6533,-2.6533,-2.6533,-2.6533,-2.6025,-2.5344,-2.4438,-2.4174,-2.3375,-2.1052,-2.0656,-2.0566,-2.0566,-2.0566,-2.041,-1.9971,-1.9912,-1.9756,-1.9336,-1.8906,-1.8828,-1.9268,-1.8916,-1.9033,-1.9883,-1.9932,-2.0117,-2.0527,-1.959,-1.9036,-1.8957,-1.6838,-1.6191,-1.718,-1.6191,-1.6191,-1.718,-1.5068,-1.4242,0.0,0.0,-2.1589,-2.1625,0.0,0.0,0.0,0.0,0.0,0.0,0.0,0.0,0.0,-2.1515,-2.0923,-2.012,-1.9579,-1.8927,0.0,0.0,0.0,0.0,0.0,0.0,0.0,0.0,0.0,0.0,-1.957,0.0,0.0,-2.1617,-2.2163,-2.1853,-2.184,-2.1705,-2.1462,-2.1462,-2.1291,-2.0991,-2.0991,-2.0956,-2.0923,-2.106,-2.1461,-2.211,-2.2531,-2.2906,-2.3295,-2.352,-2.3595,-2.3625,-2.3849,-2.4358,-2.5091,-2.6183,-2.6692,-2.6721,-2.5453,-2.4908,-2.4593,-2.3986,-2.3764,-2.3819,-2.4167,-2.428,-2.4356,-2.472,-2.4946,-2.5084,-2.5084,-2.5222,-2.546,-2.5799,-2.5887,-2.5988,-2.6445,-2.637,-2.5882,-2.4826,-2.4413,-2.3847,-2.2617,-2.1908,-2.1167,-2.0239,-2.0381,-2.0303,-1.959,-1.9746,-1.9531,-1.8545,-1.8564,-1.8691,-1.8848,-1.9238,-1.9482,-1.9502,-2.0029,-2.0283,-2.0137,-2.0091,-1.9678,-1.9036,-1.8301,-1.7658,-1.7342,-1.6927,-1.6927,-1.7261,-1.6527,-1.626,-2.0356,-2.0739,0.0,-2.1657,-2.1295,0.0,-2.187,0.0,0.0,0.0,0.0,0.0,0.0,-2.1206,-2.0839,-1.979,-1.9215,-1.864,0.0,-1.7811,0.0,0.0,0.0,0.0,0.0,0.0,0.0,-1.7811,-1.8927,-1.9714,0.0,0.0,-2.1894,-2.1853,-2.1853,-2.1735,-2.1462,-2.1462,-2.1385,-2.1213,-2.1213,-2.115,-2.1007,-2.1122,-2.144,-2.1853,-2.2362,-2.2763,-2.3171,-2.3486,-2.3595,-2.3595,-2.3595,-2.4029,-2.4716,-2.5839,-2.6184,-2.596,-2.5007,-2.4337,-2.3767,-2.3245,-2.3078,-2.314,-2.3577,-2.369,-2.3766,-2.413,-2.4368,-2.4531,-2.4531,-2.4669,-2.4908,-2.5247,-2.5322,-2.5473,-2.6025,-2.585,-2.5435,-2.4921,-2.4476,-2.3785,-2.2554,-2.2094,-2.1588,-2.0569,-2.0667,-2.0446,-1.9448,-1.9648,-1.9541,-1.8564,-1.8564,-1.8574,-1.8428,-1.9053,-1.9414,-1.9297,-1.9941,-2.0273,-2.0146,-2.042,-2.0322,-1.9823,-1.9277,-1.8869,-1.8681,-1.8129,-1.8069,-1.8461,-1.8461,-1.8301]},{"header":{"parameterUnit":"m.s-1","parameterCategory":1,"la1":30.6,"la2":29.2853,"lo1":-89.7004,"lo2":-87.6739,"dy":0.0162,"dx":0.0183,"nx":112,"ny":82,"refTime":"2024-04-29T18:00:00:Z","depth":0,"parameterNumber":3,"parameterNumberName":"V-component_of_WINDS"},"data":[0.0,0.0,0.0,0.0,0.0,0.0,0.0,0.0,0.0,0.0,0.0,0.0,0.0,0.0,0.0,0.0,0.0,0.0,0.0,0.0,0.0,0.0,0.0,0.0,0.0,0.0,0.0,0.0,0.0,0.0,0.0,0.0,0.0,0.0,0.0,0.0,0.0,0.0,0.0,0.0,0.0,0.0,0.0,0.0,0.0,0.0,0.0,0.0,0.0,0.0,0.0,0.0,0.0,0.0,0.0,0.0,0.0,0.0,0.0,0.0,0.0,0.0,0.0,0.0,0.0,0.0,0.0,0.0,0.0,0.0,0.0,0.0,0.0,0.0,0.0,0.0,0.0,0.0,0.0,0.0,0.0,0.0,0.0,0.0,0.0,0.0,0.0,0.0,0.0,0.0,-1.7407,-1.9225,-2.2681,-2.4255,-2.2776,-2.1413,-1.986,-1.8016,0.0,0.0,0.0,0.0,0.0,0.0,0.0,0.0,0.0,0.0,0.0,0.0,0.0,0.0,0.0,0.0,0.0,0.0,0.0,0.0,0.0,0.0,0.0,0.0,0.0,0.0,0.0,0.0,0.0,0.0,0.0,0.0,0.0,0.0,0.0,0.0,0.0,0.0,0.0,0.0,0.0,0.0,0.0,0.0,0.0,0.0,0.0,0.0,0.0,0.0,0.0,0.0,0.0,0.0,0.0,0.0,0.0,0.0,0.0,0.0,0.0,0.0,0.0,0.0,0.0,0.0,0.0,0.0,0.0,0.0,0.0,0.0,0.0,0.0,0.0,0.0,0.0,0.0,0.0,0.0,0.0,0.0,0.0,0.0,0.0,0.0,0.0,0.0,0.0,0.0,0.0,0.0,0.0,0.0,0.0,0.0,0.0,0.0,0.0,0.0,0.0,0.0,0.0,0.0,-1.7881,-2.0964,-2.3064,-2.386,-2.294,-1.9457,-1.7482,-1.7881,0.0,0.0,0.0,0.0,0.0,0.0,0.0,0.0,0.0,0.0,0.0,0.0,0.0,0.0,0.0,0.0,0.0,0.0,0.0,0.0,0.0,0.0,0.0,0.0,0.0,0.0,0.0,0.0,0.0,0.0,0.0,0.0,0.0,0.0,0.0,0.0,0.0,0.0,0.0,0.0,0.0,0.0,0.0,0.0,0.0,0.0,0.0,0.0,0.0,0.0,0.0,0.0,0.0,0.0,0.0,0.0,0.0,0.0,0.0,0.0,0.0,0.0,0.0,0.0,0.0,0.0,0.0,0.0,0.0,0.0,0.0,0.0,0.0,0.0,0.0,0.0,0.0,0.0,0.0,0.0,0.0,0.0,0.0,0.0,0.0,0.0,0.0,0.0,0.0,0.0,0.0,0.0,0.0,0.0,0.0,0.0,0.0,0.0,0.0,0.0,0.0,0.0,0.0,-1.8313,-1.9121,-2.2028,-2.2987,-2.3088,-2.2313,-1.8729,-1.6924,-1.7841,-1.5771,0.0,0.0,0.0,0.0,0.0,0.0,0.0,0.0,0.0,0.0,0.0,0.0,0.0,0.0,0.0,0.0,0.0,0.0,0.0,0.0,0.0,0.0,0.0,0.0,0.0,0.0,0.0,0.0,0.0,0.0,0.0,0.0,0.0,0.0,0.0,0.0,0.0,0.0,0.0,0.0,0.0,0.0,0.0,0.0,0.0,0.0,0.0,0.0,0.0,0.0,0.0,0.0,0.0,0.0,0.0,0.0,0.0,0.0,0.0,0.0,0.0,0.0,0.0,0.0,0.0,0.0,0.0,0.0,0.0,0.0,0.0,0.0,0.0,0.0,0.0,0.0,0.0,0.0,0.0,0.0,0.0,0.0,0.0,0.0,0.0,0.0,0.0,0.0,0.0,0.0,0.0,0.0,0.0,0.0,0.0,0.0,0.0,0.0,0.0,0.0,0.0,0.0,-1.938,-1.9779,-2.2331,-2.2573,-2.2207,-2.144,-1.8444,-1.6898,-1.7537,-1.4892,0.0,0.0,0.0,0.0,0.0,0.0,0.0,0.0,0.0,0.0,0.0,0.0,0.0,0.0,0.0,0.0,0.0,0.0,0.0,0.0,0.0,0.0,0.0,0.0,0.0,0.0,0.0,0.0,0.0,0.0,0.0,0.0,0.0,0.0,0.0,0.0,0.0,0.0,0.0,0.0,0.0,0.0,0.0,0.0,0.0,0.0,0.0,0.0,0.0,0.0,0.0,0.0,0.0,0.0,0.0,0.0,0.0,0.0,0.0,0.0,0.0,0.0,0.0,0.0,0.0,0.0,0.0,0.0,0.0,0.0,0.0,0.0,0.0,0.0,0.0,0.0,0.0,0.0,0.0,0.0,0.0,0.0,0.0,0.0,0.0,0.0,0.0,0.0,0.0,0.0,0.0,0.0,0.0,0.0,0.0,0.0,0.0,0.0,0.0,0.0,0.0,0.0,-1.8508,-1.8897,-2.1509,-2.1709,-2.1346,-2.0473,-1.8283,-1.6855,-1.6616,-1.5671,0.0,0.0,0.0,0.0,0.0,0.0,0.0,0.0,0.0,0.0,0.0,0.0,0.0,0.0,0.0,0.0,0.0,0.0,0.0,0.0,0.0,0.0,0.0,0.0,0.0,0.0,0.0,0.0,0.0,0.0,0.0,0.0,0.0,0.0,0.0,0.0,0.0,0.0,0.0,0.0,0.0,0.0,0.0,0.0,0.0,0.0,0.0,0.0,0.0,0.0,0.0,0.0,0.0,0.0,0.0,0.0,0.0,0.0,0.0,0.0,0.0,0.0,0.0,0.0,0.0,0.0,0.0,0.0,0.0,0.0,0.0,0.0,0.0,0.0,0.0,0.0,0.0,0.0,0.0,0.0,0.0,0.0,0.0,0.0,0.0,0.0,0.0,0.0,0.0,0.0,0.0,0.0,0.0,0.0,0.0,0.0,0.0,0.0,0.0,0.0,0.0,0.0,-1.7952,-1.7827,-1.9858,-1.9569,-1.8889,-1.8059,-1.6221,-1.5309,-1.5722,0.0,0.0,0.0,0.0,0.0,0.0,0.0,0.0,0.0,0.0,0.0,0.0,0.0,0.0,0.0,0.0,0.0,0.0,0.0,0.0,0.0,0.0,0.0,0.0,0.0,0.0,0.0,0.0,0.0,0.0,0.0,0.0,0.0,0.0,0.0,0.0,0.0,0.0,0.0,0.0,0.0,0.0,0.0,0.0,0.0,0.0,0.0,0.0,0.0,0.0,0.0,0.0,0.0,0.0,0.0,0.0,0.0,0.0,0.0,0.0,0.0,0.0,0.0,0.0,0.0,0.0,0.0,0.0,0.0,0.0,0.0,0.0,0.0,0.0,0.0,0.0,0.0,0.0,0.0,0.0,0.0,0.0,0.0,0.0,0.0,0.0,0.0,0.0,0.0,0.0,0.0,0.0,0.0,0.0,0.0,0.0,0.0,0.0,0.0,0.0,0.0,0.0,-1.8672,-1.7051,-1.6452,0.0,-1.7765,-1.7061,-1.6253,-1.4769,-1.4284,-1.5234,0.0,0.0,0.0,0.0,0.0,0.0,0.0,0.0,0.0,0.0,0.0,0.0,0.0,0.0,0.0,0.0,0.0,0.0,0.0,0.0,0.0,0.0,0.0,0.0,0.0,0.0,0.0,0.0,0.0,0.0,0.0,0.0,0.0,0.0,0.0,0.0,0.0,0.0,0.0,0.0,0.0,0.0,0.0,0.0,0.0,0.0,0.0,0.0,0.0,0.0,0.0,0.0,0.0,0.0,0.0,0.0,0.0,0.0,0.0,0.0,0.0,0.0,0.0,0.0,0.0,0.0,0.0,0.0,0.0,0.0,0.0,0.0,0.0,0.0,0.0,0.0,0.0,0.0,0.0,0.0,0.0,0.0,0.0,0.0,0.0,0.0,0.0,0.0,0.0,0.0,0.0,0.0,0.0,0.0,0.0,0.0,0.0,0.0,0.0,0.0,0.0,0.0,-1.7773,-1.5703,-1.4727,-1.6406,-1.6527,-1.615,-1.5331,-1.4227,-1.4072,0.0,0.0,0.0,0.0,0.0,0.0,0.0,0.0,0.0,0.0,0.0,0.0,0.0,0.0,0.0,0.0,0.0,0.0,0.0,0.0,0.0,0.0,0.0,0.0,0.0,0.0,0.0,0.0,0.0,0.0,0.0,0.0,0.0,0.0,0.0,0.0,0.0,0.0,0.0,0.0,0.0,0.0,0.0,0.0,0.0,0.0,0.0,0.0,0.0,0.0,0.0,0.0,0.0,0.0,0.0,0.0,0.0,0.0,0.0,0.0,0.0,0.0,0.0,0.0,0.0,0.0,0.0,0.0,0.0,0.0,0.0,0.0,0.0,0.0,0.0,0.0,0.0,0.0,0.0,0.0,0.0,0.0,0.0,0.0,0.0,0.0,0.0,0.0,0.0,0.0,0.0,0.0,0.0,0.0,0.0,0.0,0.0,0.0,0.0,0.0,0.0,0.0,0.0,-1.7773,-1.5215,-1.3906,-1.5566,-1.5192,-1.4459,-1.3609,-1.2668,-1.2785,-1.4353,0.0,0.0,0.0,0.0,0.0,0.0,0.0,0.0,0.0,0.0,0.0,0.0,0.0,0.0,0.0,0.0,0.0,0.0,0.0,0.0,0.0,0.0,0.0,0.0,0.0,0.0,0.0,0.0,0.0,0.0,0.0,0.0,0.0,0.0,0.0,0.0,0.0,0.0,0.0,0.0,0.0,0.0,0.0,0.0,0.0,0.0,0.0,0.0,0.0,0.0,0.0,0.0,0.0,0.0,0.0,0.0,0.0,0.0,0.0,0.0,0.0,0.0,0.0,0.0,0.0,0.0,0.0,0.0,0.0,0.0,0.0,0.0,0.0,0.0,0.0,0.0,0.0,0.0,0.0,0.0,0.0,0.0,0.0,0.0,0.0,0.0,0.0,0.0,0.0,0.0,0.0,0.0,0.0,0.0,0.0,0.0,0.0,0.0,0.0,0.0,0.0,0.0,-1.7305,-1.4805,-1.3418,-1.4746,-1.4102,-1.3376,-1.289,-1.1709,-1.1828,-1.382,0.0,0.0,0.0,0.0,0.0,0.0,0.0,0.0,0.0,0.0,0.0,0.0,0.0,0.0,0.0,0.0,0.0,0.0,0.0,0.0,0.0,0.0,0.0,0.0,0.0,0.0,0.0,0.0,0.0,0.0,0.0,0.0,0.0,0.0,0.0,0.0,0.0,0.0,0.0,0.0,0.0,0.0,0.0,0.0,0.0,0.0,0.0,0.0,0.0,0.0,0.0,0.0,0.0,0.0,0.0,0.0,0.0,0.0,0.0,0.0,0.0,0.0,0.0,0.0,0.0,0.0,0.0,0.0,0.0,0.0,0.0,0.0,0.0,0.0,0.0,0.0,0.0,0.0,0.0,0.0,0.0,0.0,0.0,0.0,0.0,0.0,0.0,0.0,0.0,0.0,0.0,0.0,0.0,0.0,0.0,0.0,0.0,0.0,0.0,0.0,0.0,0.0,-1.6699,-1.4512,-1.3203,-1.4004,-1.332,-1.2793,-1.2773,-1.1205,-1.1188,-1.3476,0.0,0.0,0.0,0.0,0.0,0.0,0.0,0.0,0.0,0.0,0.0,0.0,0.0,0.0,0.0,0.0,0.0,0.0,0.0,0.0,0.0,0.0,0.0,0.0,0.0,0.0,0.0,0.0,0.0,0.0,0.0,0.0,0.0,0.0,0.0,0.0,0.0,0.0,0.0,0.0,0.0,0.0,0.0,0.0,0.0,0.0,0.0,0.0,0.0,0.0,0.0,0.0,0.0,0.0,0.0,0.0,0.0,0.0,0.0,0.0,-1.9181,0.0,0.0,0.0,0.0,0.0,0.0,0.0,0.0,0.0,0.0,0.0,0.0,0.0,0.0,0.0,0.0,0.0,0.0,0.0,0.0,0.0,0.0,0.0,0.0,0.0,0.0,0.0,0.0,0.0,0.0,0.0,0.0,0.0,0.0,0.0,0.0,0.0,0.0,0.0,0.0,0.0,-1.7441,-1.4863,-1.3203,-1.4004,-1.3379,-1.2617,-1.1934,-1.0896,-1.1071,-1.2949,-1.2422,0.0,0.0,0.0,0.0,0.0,0.0,0.0,0.0,0.0,0.0,0.0,0.0,0.0,0.0,0.0,0.0,0.0,0.0,0.0,0.0,0.0,0.0,0.0,0.0,0.0,0.0,0.0,0.0,0.0,0.0,0.0,0.0,0.0,0.0,0.0,0.0,0.0,0.0,0.0,0.0,0.0,0.0,0.0,0.0,0.0,0.0,0.0,0.0,0.0,0.0,0.0,0.0,0.0,0.0,0.0,0.0,0.0,0.0,0.0,0.0,-1.9919,0.0,0.0,0.0,0.0,0.0,0.0,0.0,0.0,0.0,0.0,0.0,0.0,0.0,0.0,0.0,0.0,0.0,0.0,0.0,0.0,0.0,0.0,0.0,0.0,0.0,0.0,0.0,0.0,0.0,0.0,0.0,0.0,0.0,0.0,0.0,0.0,0.0,0.0,0.0,0.0,-1.7734,-1.5312,-1.3633,-1.4062,-1.3379,-1.2559,-1.168,-1.1172,-1.1367,-1.2402,-1.3047,0.0,0.0,0.0,0.0,0.0,0.0,0.0,0.0,0.0,0.0,0.0,0.0,0.0,0.0,0.0,0.0,0.0,0.0,0.0,0.0,0.0,0.0,0.0,0.0,0.0,0.0,0.0,0.0,0.0,0.0,0.0,0.0,0.0,0.0,0.0,0.0,0.0,0.0,0.0,0.0,0.0,0.0,0.0,0.0,0.0,0.0,0.0,0.0,0.0,0.0,0.0,0.0,0.0,-2.3119,-2.3189,-2.2943,-2.3793,-2.3428,-2.2079,-2.1204,-2.0169,-1.9204,0.0,0.0,0.0,0.0,0.0,0.0,0.0,0.0,0.0,0.0,0.0,0.0,0.0,0.0,0.0,0.0,0.0,0.0,0.0,0.0,0.0,0.0,0.0,0.0,0.0,-1.9413,-1.9574,0.0,0.0,0.0,0.0,0.0,0.0,0.0,0.0,0.0,0.0,0.0,0.0,-1.7579,-1.5584,-1.4101,-1.408,-1.3491,-1.2747,-1.1873,-1.1795,-1.1892,-1.2107,-1.3885,-1.5046,0.0,0.0,0.0,0.0,0.0,0.0,0.0,0.0,0.0,0.0,0.0,0.0,0.0,0.0,0.0,0.0,0.0,0.0,0.0,0.0,0.0,0.0,0.0,0.0,0.0,0.0,0.0,0.0,0.0,0.0,0.0,0.0,-1.4512,-1.8775,0.0,0.0,0.0,0.0,0.0,0.0,0.0,0.0,0.0,0.0,0.0,0.0,0.0,-2.4351,-2.4764,-2.402,-2.3326,-2.2679,-2.1905,-2.1183,-2.0573,-2.1396,-2.1635,-2.1426,-2.1406,0.0,-2.1003,-2.0623,0.0,0.0,0.0,0.0,0.0,0.0,0.0,0.0,0.0,0.0,0.0,0.0,0.0,0.0,0.0,0.0,0.0,0.0,0.0,0.0,0.0,0.0,-1.9297,-1.9297,-1.9881,-2.0641,0.0,-2.0957,-2.0019,-1.8613,-1.8945,0.0,0.0,0.0,0.0,0.0,0.0,0.0,-1.6752,-1.5212,-1.4079,-1.4024,-1.3977,-1.356,-1.2639,-1.2547,-1.2567,-1.2606,-1.288,-1.3693,-1.5145,-1.5658,0.0,0.0,0.0,0.0,0.0,0.0,0.0,0.0,0.0,0.0,0.0,0.0,0.0,0.0,0.0,0.0,0.0,0.0,0.0,0.0,0.0,0.0,0.0,0.0,0.0,0.0,0.0,0.0,0.0,-1.7411,-1.8426,-2.1436,-2.1343,-2.1501,0.0,0.0,0.0,0.0,0.0,0.0,0.0,0.0,0.0,-2.3823,-2.4432,-2.4454,-2.3839,-2.3885,-2.3784,-2.3533,-2.3095,-2.2936,-2.3023,-2.3397,-2.3553,-2.3534,-2.3125,-2.2931,-2.2833,-2.1636,-2.1597,-2.232,0.0,0.0,0.0,0.0,-2.3206,-2.3437,-2.2677,-2.185,0.0,0.0,0.0,0.0,0.0,0.0,0.0,0.0,0.0,0.0,0.0,0.0,0.0,-2.082,-2.1367,-2.1992,-2.1914,-2.1953,-2.1641,0.0,-2.0508,-2.0586,-2.0039,0.0,0.0,0.0,0.0,-1.7447,-1.7949,-1.6542,-1.53,-1.4784,-1.4787,-1.4247,-1.2815,-1.3629,-1.3985,-1.345,-1.3889,-1.4487,-1.5229,-1.6163,-1.6996,0.0,0.0,0.0,0.0,0.0,0.0,0.0,0.0,0.0,0.0,0.0,0.0,0.0,0.0,0.0,0.0,0.0,0.0,0.0,0.0,0.0,0.0,0.0,0.0,0.0,0.0,0.0,0.0,-1.9043,-2.1329,-2.2543,-2.1685,-2.1415,0.0,0.0,0.0,0.0,0.0,0.0,-2.4358,-2.5187,-2.532,-2.4538,-2.5216,-2.5089,-2.4061,-2.4675,-2.5066,-2.5162,-2.4941,-2.5143,-2.5676,-2.5442,-2.5344,-2.5325,-2.4715,-2.4461,-2.4334,-2.2747,-2.218,-2.2383,-2.3025,-2.337,-2.3561,-2.3956,-2.3938,-2.365,-2.3439,-2.2805,-2.2143,-2.2575,0.0,-2.212,-2.1908,0.0,0.0,0.0,0.0,-2.1958,-2.1758,-2.2531,-2.3218,-2.2569,-2.3079,-2.3548,-2.2943,-2.3294,-2.3296,0.0,-2.1758,-2.1602,-2.0684,0.0,0.0,0.0,0.0,-1.8311,-1.8697,-1.7484,-1.6331,-1.568,-1.5473,-1.4812,-1.3461,-1.4787,-1.5285,-1.4378,-1.5126,-1.5503,-1.5272,-1.6683,-1.7547,-1.7702,0.0,0.0,0.0,0.0,0.0,0.0,0.0,0.0,0.0,0.0,0.0,0.0,0.0,0.0,0.0,0.0,0.0,0.0,0.0,0.0,0.0,0.0,0.0,0.0,0.0,0.0,0.0,0.0,0.0,-1.9393,-1.9362,0.0,0.0,0.0,0.0,-2.3887,-2.5627,-2.6158,-2.5012,-2.6079,-2.6647,-2.6454,-2.6578,-2.6981,-2.7734,-2.7715,-2.7734,-2.7792,-2.6971,-2.6626,-2.6689,-2.5861,-2.5485,-2.5485,-2.5447,-2.5428,-2.5301,-2.3559,-2.3291,-2.3976,-2.4024,-2.4514,-2.5101,-2.4379,-2.3467,-2.2471,-2.164,-2.083,-2.0401,-2.2002,-2.3169,-2.3821,-2.2985,-2.2716,0.0,0.0,-2.2199,-2.2651,-2.1895,-2.2911,-2.4135,-2.4097,-2.4754,-2.5362,-2.5323,-2.5342,-2.4436,0.0,-2.1328,-2.1621,-2.0742,0.0,-2.0238,-1.9393,-1.9184,-1.8814,-1.7958,-1.706,-1.6497,-1.6439,-1.5759,-1.5234,-1.5093,-1.5926,-1.6061,-1.5189,-1.5965,-1.6061,-1.5228,-1.608,-1.6926,-1.7702,-1.835,0.0,0.0,0.0,0.0,0.0,0.0,0.0,0.0,0.0,0.0,0.0,0.0,0.0,0.0,0.0,0.0,0.0,0.0,0.0,0.0,0.0,0.0,0.0,0.0,0.0,0.0,0.0,0.0,-2.31,-2.273,0.0,-2.4746,-2.4656,-2.4581,-2.4815,-2.5976,-2.6473,-2.6046,-2.6968,-2.7498,-2.7441,-2.7871,-2.8008,-2.7754,-2.8155,-2.808,-2.7553,-2.7374,-2.7267,-2.7254,-2.7116,-2.7044,-2.7005,-2.6447,-2.6217,-2.6111,-2.4938,-2.4335,-2.4111,-2.3554,-2.339,-2.352,-2.3818,-2.3583,-2.3177,-2.3423,-2.2969,-2.2262,-2.23,-2.2558,-2.2828,-2.2524,-2.2398,-2.2498,-2.2895,-2.3252,-2.3569,-2.3918,-2.4495,-2.4976,-2.4968,-2.5244,-2.5495,-2.5495,-2.5495,-2.5143,-2.3974,-2.3595,-2.3184,-2.2344,-2.1737,-2.1269,-2.0912,-2.0311,-1.9798,-1.9458,-1.865,-1.81,-1.8107,-1.7896,-1.7491,-1.6849,-1.7645,-1.7779,-1.6869,-1.6599,-1.6369,-1.6042,-1.633,-1.6869,-1.7683,-1.9004,-2.0158,0.0,0.0,0.0,0.0,0.0,0.0,0.0,0.0,0.0,0.0,0.0,0.0,0.0,0.0,0.0,0.0,0.0,0.0,0.0,0.0,0.0,0.0,0.0,0.0,0.0,-2.3351,-2.3821,-2.5211,-2.4814,-2.4985,-2.6362,-2.5919,-2.5593,-2.5673,-2.6929,-2.7741,-2.7818,-2.856,-2.8987,-2.8987,-2.9124,-2.8926,-2.8337,-2.8749,-2.8686,-2.8109,-2.7959,-2.7888,-2.7921,-2.7821,-2.7808,-2.7871,-2.7294,-2.7044,-2.6986,-2.6428,-2.5667,-2.483,-2.3946,-2.3501,-2.3412,-2.3935,-2.4015,-2.3919,-2.4497,-2.4328,-2.375,-2.3244,-2.3069,-2.3069,-2.3069,-2.3277,-2.3568,-2.4018,-2.4328,-2.4632,-2.5083,-2.5222,-2.5271,-2.536,-2.5409,-2.5428,-2.5428,-2.5428,-2.5428,-2.5428,-2.5046,-2.4436,-2.3618,-2.2979,-2.25,-2.2213,-2.1353,-2.0721,-2.0708,-1.9723,-1.8992,-1.8992,-1.8782,-1.8384,-1.776,-1.8819,-1.8992,-1.7779,-1.7753,-1.7523,-1.6926,-1.7465,-1.8023,-1.8561,-2.01,-2.1312,-2.2197,0.0,0.0,0.0,0.0,0.0,0.0,0.0,0.0,0.0,0.0,0.0,0.0,0.0,0.0,0.0,0.0,0.0,0.0,0.0,0.0,0.0,0.0,0.0,-2.2729,-2.3495,-2.4406,-2.5094,-2.5161,-2.5441,-2.6099,-2.6191,-2.6276,-2.6491,-2.8652,-3.0039,-3.0245,-3.0808,-3.1124,-3.1124,-3.0246,-2.9794,-2.9794,-2.9719,-2.9697,-2.9716,-2.8887,-2.8644,-2.886,-2.8003,-2.7765,-2.8005,-2.7967,-2.7928,-2.7928,-2.7909,-2.7263,-2.6231,-2.5373,-2.5018,-2.4974,-2.4842,-2.4654,-2.4495,-2.4495,-2.4495,-2.4528,-2.4716,-2.4808,-2.4813,-2.4813,-2.5382,-2.5857,-2.5077,-2.5435,-2.588,-2.5197,-2.5037,-2.5084,-2.5253,-2.5303,-2.5303,-2.5303,-2.5303,-2.5303,-2.5303,-2.5409,-2.5224,-2.4383,-2.4248,-2.3947,-2.3071,-2.2218,0.0,-2.1523,-2.0108,-1.9107,-1.9088,-1.8357,-1.7856,-1.7818,-1.9369,-1.9619,-1.7927,-1.935,-1.9504,-1.785,-1.935,-2.0235,-2.0312,-2.1446,-2.2562,-2.3611,0.0,0.0,0.0,0.0,0.0,0.0,0.0,0.0,0.0,0.0,0.0,0.0,0.0,0.0,0.0,0.0,0.0,0.0,0.0,0.0,0.0,-2.5386,-2.5863,-2.4499,-2.5075,-2.5876,-2.6537,-2.6615,-2.6921,-2.7702,-2.8307,-2.8661,-2.8723,-3.0432,-3.1525,-3.1562,-3.1732,-3.1674,-3.1395,-3.0435,-2.9913,-2.9867,-2.9714,-2.9774,-3.0076,-3.0623,-3.0897,-3.0958,-3.049,-3.0299,-3.0319,-2.9236,-2.8775,-2.8717,-2.7936,-2.7097,-2.6289,-2.6041,-2.5408,-2.4636,-2.4591,-2.4444,-2.4284,-2.4284,-2.4284,-2.4284,-2.4358,-2.4746,-2.5227,-2.5227,-2.5801,-2.6431,-2.6338,-2.6485,-2.6501,-2.5884,-2.5834,-2.5787,-2.5229,-2.5184,-2.5303,-2.5303,-2.5303,-2.5303,-2.5303,-2.5322,-2.5293,-2.5106,-2.5076,-2.4789,-2.3975,-2.3601,0.0,-2.1658,-2.1639,-2.1504,-2.0869,-2.1158,-2.1139,-2.0504,-2.0889,-2.0966,-2.0485,-1.9754,-1.9427,-1.9581,-1.8831,-1.9004,-2.0292,-2.1793,-2.3043,0.0,0.0,0.0,0.0,0.0,0.0,0.0,0.0,0.0,0.0,0.0,0.0,0.0,0.0,0.0,0.0,0.0,0.0,0.0,0.0,0.0,0.0,-2.6414,-2.7251,-2.6804,-2.7134,-2.752,-2.7811,-2.799,-2.8239,-2.8611,-2.9357,-2.9927,-3.0209,-3.1177,-3.1898,-3.2188,-3.1922,-3.1513,-3.0961,-3.0059,-2.9419,-2.9068,-2.9421,-2.9699,-2.9958,-3.1083,-3.1681,-3.1815,-3.1713,-3.1542,0.0,-3.0497,-2.9913,-2.9436,-2.8802,-2.797,0.0,0.0,0.0,0.0,0.0,-2.4303,-2.419,-2.419,-2.419,-2.4263,-2.4575,-2.5035,-2.5476,-2.5786,-2.6465,-2.7056,-2.6833,-2.7002,-2.7136,-2.6539,-2.6465,-2.6443,-2.602,-2.6002,-2.6085,-2.6085,-2.6085,-2.6003,-2.5659,0.0,0.0,-2.5206,-2.5269,-2.5197,-2.4736,-2.4341,-2.3725,-2.2716,-2.2716,-2.2601,-2.21,-2.2504,-2.2447,-2.1562,-2.1831,0.0,0.0,0.0,-2.0974,-2.185,-2.0916,0.0,0.0,0.0,-2.3928,-2.411,0.0,0.0,0.0,-2.5397,-2.5418,0.0,0.0,0.0,0.0,0.0,0.0,0.0,0.0,0.0,0.0,0.0,0.0,0.0,0.0,0.0,0.0,-2.7281,-2.8315,-2.9303,-2.935,-2.9177,-2.8888,-2.9104,-2.9221,-2.9136,-2.9801,-3.0499,-3.1073,-3.1315,-3.1701,-3.2283,0.0,0.0,0.0,0.0,-2.8782,-2.7982,-2.914,-2.9737,-2.9764,-3.1024,-3.1765,-3.2028,-3.2197,-3.1995,-3.1502,-3.167,-3.112,-3.0102,-3.0072,-2.9278,-2.7902,-2.6396,-2.5373,-2.4705,-2.4523,-2.441,-2.4355,-2.4447,0.0,0.0,-2.5254,-2.5605,-2.5807,-2.6521,-2.7291,-2.7787,-2.7071,-2.7383,-2.7797,-2.7154,-2.7009,-2.7065,-2.7148,-2.7177,-2.7213,-2.7213,-2.7213,-2.6987,-2.6287,-2.6136,-2.5872,-2.5073,-2.5113,-2.5243,-2.5243,-2.4639,-2.4149,-2.4082,-2.3467,-2.3015,-2.2947,0.0,0.0,-2.187,-2.2504,-2.262,-2.1831,-2.2524,-2.3244,-2.3937,-2.3956,-2.3995,-2.411,-2.4793,-2.487,-2.4245,-2.4947,-2.5322,-2.539,-2.5395,-2.5408,0.0,0.0,0.0,0.0,0.0,0.0,0.0,0.0,0.0,0.0,0.0,0.0,0.0,0.0,0.0,-2.7245,-2.8696,-2.9941,-3.0761,-3.06,-3.0264,-2.9864,-2.9367,-2.9272,-2.9823,-3.0596,-3.1101,-3.124,-3.1891,-3.2302,-3.2446,-3.2335,-3.1769,-3.0645,-3.0437,-2.9723,-2.8334,-2.9754,-3.0539,-3.0667,0.0,0.0,-3.3397,-3.3008,-3.2776,-3.2655,-3.2204,-3.1521,-3.0693,-3.0546,-2.9446,-2.7764,-2.6786,-2.6326,-2.6178,-2.6156,-2.5731,-2.5274,-2.5915,-2.5713,-2.5311,-2.6117,-2.6814,-2.7346,-2.7512,-2.8136,0.0,-2.8572,-2.8668,-2.8594,-2.7816,-2.7763,-2.7717,-2.7103,-2.7078,-2.7213,-2.7213,-2.7213,-2.7156,-2.7005,-2.6968,-2.6704,-2.591,-2.5281,-2.4902,-2.4902,-2.475,-2.448,-2.3934,-2.4282,-2.4383,-2.3908,-2.4428,-2.4485,-2.3667,-2.3744,-2.3783,-2.361,-2.3764,-2.361,-2.3062,-2.3043,-2.3379,-2.4091,-2.4245,-2.4562,-2.5082,-2.5207,-2.5303,-2.5322,-2.5361,-2.5437,0.0,0.0,0.0,0.0,0.0,0.0,0.0,0.0,0.0,0.0,0.0,-2.4106,-2.5244,0.0,-2.7408,-2.8056,-2.9144,-3.0003,-3.0294,-3.0125,-3.0046,-3.0347,-2.9916,-2.9678,-3.0058,-3.082,-3.1341,-3.1532,-3.1724,-3.195,-3.2144,-3.195,-3.1232,-2.9882,-2.9848,-2.9281,-2.8117,-2.9454,-3.0477,-3.1154,-3.2547,-3.339,-3.3815,-3.366,-3.3371,-3.298,-3.2818,-3.1975,-3.0712,-3.0071,-2.9263,-2.8374,-2.797,-2.731,-2.6612,-2.6612,-2.6355,-2.6062,-2.6465,-2.6337,-2.6135,-2.6943,-2.7475,-2.7879,-2.8282,-2.8686,-2.8994,-2.8994,-2.8994,-2.8902,-2.8503,-2.8482,-2.8439,-2.8033,-2.8025,-2.8106,-2.8106,-2.8106,-2.7976,-2.7586,-2.7493,-2.7233,-2.6433,-2.5632,-2.5026,-2.4832,-2.4804,-2.469,-2.4422,-2.4751,-2.4916,-2.4726,-2.5063,-2.4966,-2.4168,-2.411,-2.411,-2.411,-2.4485,-2.4505,-2.4062,-2.4043,-2.4255,-2.4697,-2.4697,-2.4909,-2.5303,-2.5303,-2.5303,-2.5303,-2.5322,-2.537,0.0,0.0,0.0,0.0,0.0,0.0,0.0,-2.1679,-2.241,-2.3265,-2.4486,-2.5611,-2.6342,-2.7618,-2.8561,-2.8469,-2.9242,-2.9786,-2.962,-2.9573,-2.9884,-3.0693,-3.0387,-3.0226,-3.0497,-3.0937,-3.138,-3.1866,-3.1363,-3.1179,-3.1476,-3.1201,-3.0342,-2.8861,-2.9225,-2.889,-2.7806,-2.9196,-3.0367,-3.1285,-3.2496,-3.3273,-3.3707,-3.3993,-3.3764,-3.317,-3.3234,-3.239,-3.0902,-2.9881,-2.9428,-2.9357,-2.9357,-2.8552,-2.7401,-2.7343,-2.72,-2.709,-2.7255,-2.709,-2.6979,-2.7769,-2.8026,-2.8154,-2.8792,-2.8994,-2.8994,-2.8994,-2.9104,-2.9195,-2.903,-2.9214,-2.9439,-2.925,-2.9214,-2.9214,-2.9214,-2.9214,-2.9053,-2.8393,-2.8264,-2.8007,-2.72,-2.6392,-2.5651,-2.4998,-2.4779,-2.4756,-2.4937,-2.4962,-2.5053,-2.5274,-2.5303,-2.5043,-2.4399,-2.4341,-2.4341,-2.4341,-2.4947,-2.5303,-2.5303,-2.5303,-2.5303,-2.5303,-2.5303,-2.5303,-2.5303,-2.5303,-2.5303,-2.5303,-2.5303,-2.5303,-1.6557,-1.7885,-1.8985,-2.0462,-2.0286,-2.0462,0.0,-2.3173,-2.309,-2.442,-2.482,-2.5195,-2.5924,-2.6808,-2.7598,-2.8222,-2.9417,-3.0236,-3.0192,-3.0633,-3.1016,-3.1133,-3.0535,-3.0615,-3.1918,-3.1529,-3.1501,-3.2167,-3.1091,-3.0418,-3.046,-3.0418,-2.9716,-2.824,-2.9995,-2.9939,-2.7806,-2.9926,-3.0922,-3.0768,-3.1996,-3.2809,-3.3273,-3.3662,-3.3787,-3.3676,-3.2985,-3.2562,-3.2316,-3.1483,-3.0907,-3.0585,-3.0585,-3.0477,-3.0297,-2.9923,-2.9347,-2.881,-2.9549,-2.8851,-2.7805,-2.8613,-2.8888,-2.8865,-2.8957,-2.8994,-2.8994,-2.8994,-2.9512,-2.9898,-2.92,-3.0063,-3.0944,-3.0246,-3.0081,-3.0081,-3.0081,-3.0081,-3.0044,-2.9953,-2.9934,-2.9677,-2.8865,-2.8062,-2.7019,-2.5536,-2.4726,-2.441,-2.4771,-2.4814,-2.4936,-2.5264,-2.5303,-2.5264,-2.5168,-2.5178,-2.5178,-2.5178,-2.5245,-2.5303,-2.5303,-2.5303,-2.5303,-2.5303,-2.5303,-2.5303,-2.5303,-2.5303,-2.5303,-2.5303,-2.5303,-2.5303,-1.749,-1.8886,-2.0,-2.1393,-2.1941,-2.2556,-2.4195,-2.4268,-2.4198,-2.4877,-2.5362,-2.5767,-2.6134,-2.6814,-2.7434,-2.7784,-2.859,-2.9074,-2.8794,-2.9475,-2.9928,-2.9568,-2.9201,-2.9722,-3.1495,-3.1376,-3.119,-3.1133,-3.06,-3.0166,-2.9805,-2.9761,-2.9479,-2.8754,-2.9556,-2.975,-2.9124,-3.0091,-3.083,-3.134,-3.183,-3.2561,-3.3455,-3.393,-3.4546,-3.5147,-3.3149,-3.251,-3.2837,-3.1279,-3.0528,-3.0398,-3.0398,-3.0683,-3.0998,-3.0388,-2.9809,-2.9359,-2.9476,-2.8766,-2.7929,-2.8252,-2.8378,-2.8404,-2.8608,-2.8658,-2.8682,-2.8929,-2.9232,-2.9439,-2.9085,-2.9861,-3.0613,-3.0283,-3.0558,-3.0889,-3.0889,-3.0889,-3.0889,-3.0889,-3.0889,-3.0797,-3.0448,-2.9347,-2.8282,-2.7603,-2.6007,-2.5042,-2.5446,-2.5091,-2.4942,-2.5264,-2.5303,-2.5303,-2.5303,-2.5303,-2.5303,-2.5303,-2.5303,-2.5303,-2.5303,-2.5303,-2.5303,-2.5303,-2.5303,-2.5303,-2.5303,-2.5303,-2.5553,-2.6043,-2.5534,-2.5851,-1.8247,-1.9576,-2.0771,-2.2072,-2.3242,-2.4287,-2.4916,-2.5228,-2.541,-2.5509,-2.5801,-2.6,-2.5837,-2.6283,-2.6706,-2.6933,-2.7651,-2.8072,-2.7902,-2.8516,-2.8802,-2.8394,-2.8143,-2.857,-3.0022,-3.0306,-3.0384,-3.0335,-2.9995,-2.9629,-2.918,-2.9134,-2.9026,-2.8709,-2.9403,-2.9938,-3.0146,-3.0723,-3.1436,-3.2242,-3.2355,-3.2891,-3.374,-3.4276,-3.4975,-3.5726,-3.3448,-3.2786,-3.3198,-3.1448,-3.0677,-3.058,-3.058,-3.0914,-3.1333,-3.0431,-3.0084,-2.9994,-2.9509,-2.8824,-2.818,-2.7968,-2.7897,-2.7954,-2.8183,-2.8486,-2.876,-2.8804,-2.9405,-2.9874,-2.9457,-3.0265,-3.1146,-3.0925,-3.1311,-3.1733,-3.1733,-3.1733,-3.1733,-3.1733,-3.1733,-3.1733,-3.1733,-3.0577,-2.9604,-2.9365,-2.7658,-2.6371,-2.6253,-2.5593,-2.5134,-2.5157,-2.5192,-2.5214,-2.5214,-2.5264,-2.5303,-2.5303,-2.5303,-2.5303,-2.5303,-2.5303,-2.5399,-2.5649,-2.5649,-2.5793,-2.6024,-2.6024,-2.6351,-2.6948,-2.6313,-2.6697,-1.8564,-1.9879,-2.1172,-2.239,-2.3653,-2.4732,-2.5437,-2.6081,-2.6546,-2.6546,-2.6051,-2.5422,-2.4777,-2.4687,-2.4912,-2.5571,-2.6734,-2.7752,-2.837,-2.8426,-2.8421,-2.8394,-2.7837,-2.7444,-2.7492,-2.812,-2.8984,-3.0201,-2.9225,-2.8559,-2.8511,-2.8511,-2.8201,-2.7458,-2.9976,-3.0995,-3.0318,-3.2295,-3.3322,-3.338,-3.3819,-3.4056,-3.4073,-3.4495,-3.473,-3.4695,-3.3899,-3.3563,-3.3527,-3.2732,-3.2177,-3.1756,-3.1756,-3.1756,-3.1668,-3.0537,-3.0594,-3.1122,-3.0429,-2.965,-2.8841,-2.8127,-2.7897,-2.7897,-2.7926,-2.8675,-2.9403,-2.8619,-3.0381,-3.2137,-3.0577,-3.1916,-3.3495,-3.2724,-3.2559,-3.2577,-3.2577,-3.2577,-3.2577,-3.2577,-3.2577,-3.2577,-3.2577,-3.188,-3.1054,-3.0283,-2.9439,-2.8408,-2.7046,-2.6345,-2.568,-2.4913,-2.4943,-2.501,-2.501,-2.5192,-2.5303,-2.5303,-2.5303,-2.5303,-2.5303,-2.5303,-2.5687,-2.6544,-2.6563,-2.6986,-2.7813,-2.7813,-2.7832,-2.7852,-2.7832,-2.7852,-1.9086,-2.0394,-2.1671,-2.2884,-2.3809,-2.4637,-2.5327,-2.5351,-2.4967,-2.4191,-2.3822,-2.3345,-2.2322,-2.2458,-2.3176,-2.4717,-2.5633,-2.6578,-2.7731,-2.8529,-2.8526,-2.7227,-2.6854,-2.6509,-2.5966,-2.7008,0.0,-2.8418,-2.8075,-2.8042,-2.8546,-2.8591,-2.8834,-2.9469,-3.0333,-3.0895,-3.1032,-3.2175,-3.2752,-3.2768,-3.3846,-3.4545,-3.4891,-3.4992,-3.5507,-3.6268,-3.4629,-3.3975,-3.3905,-3.2821,-3.1991,-3.1411,-3.1411,-3.1411,-3.1355,-3.098,-3.0976,-3.0984,-2.9214,-2.8097,-2.7442,-2.7201,-2.7115,-2.7147,-2.7409,-2.7764,-2.8229,-2.8973,-2.988,-3.0665,-3.0931,-3.199,-3.2944,-3.2669,-3.3018,-3.3403,-3.3403,-3.3403,-3.3403,-3.3403,-3.3403,-3.3403,-3.3403,-3.2724,-3.1916,-3.1109,-2.9503,-2.8044,-2.7046,-2.6834,-2.6478,-2.568,-2.5645,-2.5461,-2.4907,-2.4923,-2.4981,-2.4981,-2.4981,-2.4981,-2.4981,-2.5041,-2.5501,-2.6381,-2.6357,-2.6857,-2.789,-2.7731,-2.7999,-2.8679,-2.814,-2.8506,-1.9886,-2.1326,-2.2549,-2.3738,-2.4544,-2.5053,-2.5066,-2.4623,-2.383,-2.2401,-2.2087,-2.1686,-2.0472,-2.0651,-2.1545,-2.3295,-2.3891,-2.4872,-2.6969,-2.7455,-2.741,-2.6903,-2.6627,-2.6258,-2.5753,-2.6541,-2.7092,-2.7131,-2.7611,-2.81,-2.8547,-2.8831,-2.9343,-3.0143,-3.0634,-3.1176,-3.1804,-3.2498,-3.2945,-3.3179,-3.4331,-3.5095,-3.54,-3.5084,-3.5566,-3.6516,-3.4663,-3.4003,-3.4215,-3.2842,-3.2002,-3.1562,-3.1292,-3.119,-3.1157,-3.0903,-3.0818,-3.0565,-2.8839,-2.7926,-2.7469,-2.7199,-2.7097,-2.7148,-2.7398,-2.7954,-2.861,-2.9042,-2.9994,-3.1011,-3.15,-3.2308,-3.3036,-3.3036,-3.3421,-3.3807,-3.3807,-3.368,-3.367,-3.3933,-3.3988,-3.4108,-3.4353,-3.3625,-3.2761,-3.1953,-3.013,-2.8558,-2.7744,-2.7512,-2.7102,-2.6298,-2.6274,-2.6005,-2.5177,-2.5197,-2.511,-2.4823,-2.5073,-2.5242,-2.5242,-2.5589,-2.6189,-2.7025,-2.7011,-2.7546,-2.8644,-2.8471,-2.8798,-2.9544,-2.9025,-2.9371,-2.0811,-2.2428,-2.358,-2.4745,-2.5472,-2.5625,-2.4518,-2.3799,-2.292,-2.1296,-2.0855,-2.0359,-1.9228,-1.9398,-2.0139,-2.1515,-2.1769,-2.2921,-2.6135,-2.5583,-2.5508,-2.7345,-2.7096,-2.6722,-2.6647,-2.6677,-2.6663,-2.6503,0.0,-2.8592,-2.8697,-2.928,-2.9639,-2.9684,-3.0945,-3.1882,-3.2532,-3.3235,-3.3937,-3.4624,-3.5253,-3.5622,-3.5588,-3.4878,-3.4945,-3.5537,-3.4134,-3.3897,-3.4387,-3.2966,-3.2381,-3.2246,-3.1562,-3.1258,-3.1123,-3.0497,-3.0226,-3.0074,-2.9347,-2.9042,-2.8856,-2.8112,-2.784,-2.784,-2.784,-2.9144,-3.0335,-2.8916,-3.0747,-3.2967,-3.227,-3.2956,-3.3862,-3.3835,-3.3872,-3.3872,-3.3798,-3.3484,-3.3424,-3.4065,-3.4308,-3.4609,-3.5349,-3.4579,-3.3587,-3.2797,-3.1329,-3.0026,-2.9159,-2.8356,-2.7548,-2.6759,-2.6799,-2.6563,-2.5745,-2.586,-2.5649,-2.4888,-2.5593,-2.6029,-2.6029,-2.6782,-2.7554,-2.8378,-2.8378,-2.8928,-2.9999,-2.9999,-3.0136,-3.0398,-3.0398,-3.0398,-2.0562,-2.139,-2.1881,-2.3058,-2.27,-2.1908,-2.1432,-1.9989,-1.8807,-1.893,-1.8544,-1.8264,-1.8327,-1.9095,-2.0288,-2.2128,-2.2817,-2.3896,-2.6054,-2.7499,-2.8084,-2.7443,-2.8261,-2.8427,-2.7425,-2.7784,-2.806,0.0,-2.7931,-2.8472,-2.9939,-3.0178,-3.0507,-3.1016,-3.1351,-3.163,-3.1796,-3.2971,-3.3937,-3.4624,-3.5253,-3.5622,-3.556,-3.5419,-3.5436,-3.5605,-3.5216,-3.4844,-3.4455,-3.4083,-3.3271,-3.2364,-3.2696,-3.2171,-3.1309,-3.2222,-3.1867,-3.0886,-3.07,-2.9905,-2.8994,-2.8755,-2.8687,-2.8687,-2.8687,-2.9049,-2.9535,-3.0007,-3.0946,-3.2054,-3.295,-3.3948,-3.4623,-3.4268,-3.4643,-3.4733,-3.3586,-3.3432,-3.3395,-3.3022,-3.3741,-3.454,-3.5027,-3.4897,-3.4431,-3.3623,-3.2632,-3.1494,-3.0081,-2.92,-2.8393,-2.7585,-2.7006,-2.6366,-2.5537,-2.5522,-2.5467,-2.5264,-2.6004,-2.6446,-2.6446,-2.6786,-2.7363,-2.8147,-2.8185,-2.8778,-2.9999,-2.9845,-2.9988,-3.0398,-3.0398,-3.0398,-2.0586,-2.1393,-2.1822,-2.2292,-2.151,-2.0466,-1.9656,-1.8289,-1.7183,-1.7066,-1.7203,-1.7312,-1.738,-1.7838,-1.8753,-2.0407,-2.0727,-2.1672,-2.4368,-2.5974,-2.7093,-2.772,-2.8805,-2.9286,-2.8936,-2.9205,-2.9564,0.0,-2.925,-2.934,-3.0447,-3.0791,-3.1135,-3.1467,-3.1824,-3.1958,-3.1958,-3.3299,-3.3927,-3.3735,-3.4399,-3.4864,-3.5144,-3.4532,-3.4565,-3.5144,0.0,-3.4192,-3.4107,-3.4084,-3.3573,-3.288,-3.3229,-3.2899,-3.2273,-3.3102,-3.2662,-3.1664,-3.1664,-3.092,-2.9905,-2.9583,-2.9482,-2.9482,-2.9482,-2.9702,-3.0031,-3.036,-3.1219,-3.2283,-3.3107,-3.412,-3.4812,-3.4554,-3.4809,-3.4914,-3.4038,-3.3828,-3.388,-3.4023,-3.4886,-3.5612,-3.5564,-3.5587,-3.5183,-3.3972,-3.3128,-3.2284,-3.1384,-3.0246,-2.9237,-2.8411,-2.7934,-2.7328,-2.6502,-2.6447,-2.6282,-2.5952,-2.6686,-2.7126,-2.7126,-2.7567,-2.8038,-2.8484,-2.8482,-2.8891,-2.9748,-2.9713,-2.988,-3.0241,-3.0355,-3.0398,-2.0774,-2.1834,-2.2325,-2.1904,-2.1075,-1.9983,-1.8494,-1.7422,-1.6468,-1.5703,-1.6304,-1.689,-1.6652,-1.6556,-1.6904,-1.8037,-1.7804,-1.87,-2.2179,-2.3252,-2.4813,-2.7826,-2.8928,-2.9697,-3.0401,-3.0571,-3.0881,-3.1437,-3.0986,-3.0642,-3.0642,-3.121,-3.1511,-3.1601,-3.2213,-3.2557,-3.2647,-3.39,-3.3924,-3.285,-3.3572,-3.4113,-3.4546,-3.3353,-3.3403,-3.4398,0.0,0.0,-3.3601,-3.3535,-3.3463,-3.3379,-3.3428,-3.3302,-3.3151,-3.3335,-3.2882,-3.2219,-3.2403,-3.1965,-3.1223,-3.0475,-3.026,-3.026,-3.026,-3.0683,-3.1089,-3.0548,-3.1661,-3.3017,-3.3149,-3.4012,-3.4835,-3.4763,-3.4851,-3.4868,-3.4657,-3.4303,-3.4354,-3.5643,-3.6498,-3.6863,-3.6298,-3.6256,-3.5734,-3.4045,-3.322,-3.2724,-3.2614,-3.1201,-2.9934,-2.9214,-2.898,-2.8576,-2.786,-2.7787,-2.7493,-2.6796,-2.7512,-2.7952,-2.7952,-2.8631,-2.8994,-2.8994,-2.8994,-2.9134,-2.9412,-2.957,-2.9763,-2.9969,-3.0228,-3.0412,-2.0862,-2.1154,-2.0994,-2.1037,-1.9515,-1.7671,-1.6451,-1.486,-1.3919,-1.491,-1.517,-1.562,-1.6916,-1.7503,-1.8062,-1.8809,-1.928,-2.0251,-2.2166,-2.4027,-2.5644,-2.6983,-2.8909,-3.0156,-3.035,-3.091,-3.1347,0.0,-3.1362,-3.136,-3.136,-3.1407,-3.1779,-3.2332,-3.2452,-3.2781,-3.332,-3.413,-3.4388,-3.4156,-3.4905,-3.5038,-3.4603,-3.4334,-3.4082,-3.3786,-3.3521,0.0,-3.3582,-3.3607,-3.3221,-3.2755,-3.3354,-3.2805,-3.187,-3.3096,-3.2708,-3.1722,-3.2899,-3.2833,-3.2067,-3.1268,-3.1004,-3.1004,-3.1004,-3.1089,-3.1292,-3.1765,-3.2449,-3.3183,-3.4014,-3.4966,-3.5573,-3.5205,-3.563,-3.5752,-3.4484,-3.3848,-3.3884,-3.5196,-3.5832,-3.6079,-3.5692,-3.5994,-3.5734,-3.4045,-3.3678,-3.3348,-3.2706,-3.1201,-3.0155,-3.0008,-2.8796,-2.7952,-2.7805,-2.7787,-2.7732,-2.7603,-2.8356,-2.8796,-2.8796,-2.892,-2.8994,-2.8994,-2.8994,-2.9134,-2.9412,-2.9434,-2.957,-2.9765,-2.9969,-3.0457,-1.9917,-2.0426,-2.0515,-2.0141,-1.8486,-1.6766,-1.5843,-1.4483,-1.36,-1.4311,-1.4883,-1.5518,-1.6329,-1.6675,-1.7048,-1.7629,-1.7792,-1.8482,-2.0373,-2.2022,-2.3771,-2.5765,-2.7474,-2.903,-3.0165,-3.0644,-3.1029,-3.1467,-3.1482,-3.1482,-3.1482,-3.1482,-3.1988,-3.2991,-3.3021,-3.3335,-3.3993,-3.3985,-3.3969,-3.3969,-3.3971,-3.4001,-3.4046,-3.3675,-3.3372,-3.3039,-3.2664,0.0,-3.2571,-3.2933,-3.2851,-3.2636,-3.3316,-3.3406,-3.3115,-3.347,-3.3115,-3.254,-3.287,-3.2481,-3.1878,-3.1851,-3.2077,-3.2341,-3.2341,-3.2341,-3.2425,-3.2763,-3.3325,-3.3909,-3.4389,-3.513,-3.568,-3.5463,-3.5711,-3.5779,-3.5019,-3.4712,-3.4814,-3.5687,-3.6264,-3.6505,-3.6188,-3.6237,-3.5862,-3.4614,-3.4082,-3.366,-3.3275,-3.2192,-3.1127,-3.0283,-2.9512,-2.8888,-2.8466,-2.8429,-2.8429,-2.8429,-2.8796,-2.8994,-2.8994,-2.8994,-2.8994,-2.8994,-2.8994,-2.9067,-2.9181,-2.933,-2.9454,-2.9551,-2.9746,-3.0073,-1.9053,-1.9912,-2.0342,-1.9385,-1.793,-1.64,-1.5325,-1.4333,-1.371,-1.3686,-1.4691,-1.5555,-1.5668,-1.5793,-1.6019,-1.6446,-1.6158,-1.6572,-1.8568,-1.9899,-2.1708,-2.4439,-2.6011,-2.7714,-2.9818,-3.0208,-3.0644,-3.1409,-3.1482,0.0,-3.1482,-3.1482,-3.2138,-3.3455,-3.3499,-3.3888,-3.4696,-3.4188,-3.3918,-3.3918,-3.3395,-3.3261,-3.3495,-3.293,-3.2609,-3.2327,-3.1739,0.0,0.0,-3.212,-3.2382,-3.2437,-3.2917,-3.3556,-3.4076,-3.3382,-3.3224,-3.3234,-3.2839,-3.2336,-3.196,-3.2674,-3.2982,-3.322,-3.3364,-3.3406,-3.344,-3.3592,-3.4049,-3.4523,-3.4692,-3.5182,-3.5622,-3.5622,-3.5622,-3.5622,-3.5622,-3.5622,-3.5739,-3.6139,-3.6764,-3.7055,-3.6609,-3.6412,-3.6009,-3.5119,-3.4321,-3.3807,-3.3807,-3.3256,-3.232,-3.087,-3.0411,-2.9953,-2.9329,-2.9085,-2.8994,-2.8994,-2.8994,-2.8994,-2.8994,-2.8994,-2.8994,-2.8994,-2.8994,-2.8994,-2.8994,-2.9203,-2.931,-2.933,-2.9533,-2.9813,-1.9053,-1.9912,-2.0264,-1.9014,-1.7638,-1.6182,-1.4145,-1.3392,-1.3018,-1.28,-1.3924,-1.5103,-1.5605,-1.6107,-1.6459,-1.6509,-1.6471,-1.6873,-1.8103,-1.966,-2.136,-2.3059,-2.5415,-2.7474,-2.901,-2.9827,-3.0644,-3.1409,-3.1482,0.0,-3.1482,-3.1482,-3.2138,-3.3455,-3.3499,-3.4113,-3.54,-3.5355,-3.5325,-3.5325,-3.525,-3.4655,-3.3517,-3.3456,-3.2721,-3.1582,-3.1524,0.0,0.0,-3.1582,-3.1582,-3.1582,-3.1682,-3.2088,-3.2584,-3.1923,-3.2058,-3.2672,-3.3239,-3.337,-3.3434,-3.4176,-3.3518,-3.2618,-3.322,-3.3406,-3.3541,-3.4201,-3.4438,-3.4641,-3.5351,-3.5571,-3.5622,-3.5622,-3.5622,-3.5622,-3.5622,-3.5622,-3.5622,-3.565,-3.6481,-3.6925,-3.6111,-3.6154,-3.6009,-3.5119,-3.4321,-3.3807,-3.3807,-3.3733,-3.3348,-3.2485,-3.1072,-3.0173,-3.0099,-2.9439,-2.8994,-2.8994,-2.8994,-2.8994,-2.8994,-2.8994,-2.8994,-2.8994,-2.8994,-2.8994,-2.8994,-2.9021,-2.904,-2.9044,-2.931,-3.0217,-1.8144,-1.9141,-1.9609,-1.8828,-1.7275,-1.5635,-1.4563,-1.3472,-1.2687,-1.2846,-1.3968,-1.4878,-1.4765,-1.5693,-1.6409,-1.607,-1.6019,-1.6421,-1.7551,-1.8267,-1.9673,-2.2322,-2.3806,-2.5756,-2.8711,-2.9317,-3.0072,-3.1409,0.0,0.0,-3.2093,-3.2123,-3.2542,-3.3469,-3.3873,-3.4547,-3.5489,-3.51,-3.51,-3.5504,-3.5085,-3.4397,-3.3499,-3.3499,-3.2781,-3.1482,-3.1482,0.0,0.0,-3.2123,-3.2362,-3.2706,-3.2706,-3.311,-3.3619,-3.2961,-3.3125,-3.3696,-3.3562,-3.353,-3.3632,-3.4322,-3.4489,-3.4329,-3.4157,-3.4382,-3.481,-3.5098,-3.5165,-3.5351,-3.6113,-3.6315,-3.6197,-3.574,-3.5622,-3.5622,-3.5622,-3.5622,-3.5622,-3.5622,-3.6481,-3.7084,-3.6748,-3.6877,-3.6725,-3.5917,-3.5514,-3.511,-3.4596,-3.4523,-3.4412,-3.4073,-3.2614,-3.1458,-3.0962,-3.0173,-2.9732,-2.9732,-2.925,-2.8994,-2.8994,-2.8994,-2.8994,-2.8994,-2.8994,-2.8994,-2.8994,-2.9494,-2.9732,-2.9751,-3.0328,-3.0951,-1.6836,-1.7871,-1.8428,-1.7988,-1.6445,-1.4887,-1.444,-1.3343,-1.2485,-1.2843,-1.3851,-1.4601,-1.4374,-1.5379,-1.6195,-1.5969,-1.5944,-1.622,-1.7011,-1.7413,-1.8606,-2.1255,-2.2209,-2.4141,-2.8092,-2.9232,-3.0208,-3.1409,0.0,0.0,-3.2482,-3.2886,-3.3305,-3.3769,-3.4233,-3.4801,-3.5489,-3.4816,-3.4816,-3.5489,-3.4801,-3.4128,-3.3499,-3.3499,-3.2781,-3.1482,0.0,0.0,0.0,-3.2721,-3.308,-3.3499,-3.3499,-3.3903,-3.4397,-3.3739,-3.3903,-3.4412,-3.3948,-3.3784,-3.3892,-3.4318,-3.4996,-3.5554,-3.5094,-3.5409,-3.6011,-3.6231,-3.6299,-3.6366,-3.6688,-3.6772,-3.6586,-3.5808,-3.5622,-3.5622,-3.5622,-3.5622,-3.5622,-3.5622,-3.6481,-3.719,-3.719,-3.738,-3.7221,-3.6413,-3.6083,-3.5624,-3.4761,-3.4669,-3.4669,-3.4669,-3.3642,-3.2632,-3.1825,-3.1017,-3.0448,-3.0228,-2.9677,-2.9255,-2.8994,-2.8994,-2.8994,-2.8994,-2.9214,-2.9342,-2.9365,-3.0173,-3.0558,-3.0577,-3.1127,-3.1513,-1.5205,-1.6084,-1.665,-1.6201,-1.5107,-1.3903,-1.3202,-1.271,-1.2433,-1.2507,-1.3373,-1.4261,-1.4802,-1.5329,-1.5881,-1.6421,-1.6509,-1.6509,-1.6522,-1.7488,-1.8606,-1.9698,-2.0828,-2.301,-2.6931,-2.9828,-3.1467,0.0,0.0,0.0,-3.2512,-3.3754,-3.4457,-3.4472,-3.4472,-3.4801,-3.5489,-3.4816,-3.4816,-3.5489,-3.4801,-3.4128,-3.3499,-3.3499,-3.2781,0.0,0.0,0.0,0.0,-3.3215,-3.3484,-3.3499,-3.3499,-3.3903,-3.4397,-3.3739,-3.3903,-3.4472,-3.4472,-3.4472,-3.4472,-3.4535,-3.4926,-3.5543,-3.5681,-3.6205,-3.6924,-3.7669,-3.7889,-3.7719,-3.6975,-3.6772,-3.6586,-3.5808,-3.5622,-3.5622,-3.5622,-3.5622,-3.5622,-3.5622,-3.6481,-3.719,-3.719,-3.738,-3.7221,-3.6413,-3.5569,-3.4715,-3.3917,-3.3807,-3.3807,-3.3807,-3.3807,-3.3458,-3.2669,-3.1843,-3.1035,-3.0246,-3.0191,-2.9843,-2.9012,-2.8994,-2.8994,-2.8994,-2.9787,-3.0191,-3.0191,-3.0999,-3.1384,-3.1384,-3.1384,-3.1825,-1.3877,-1.4521,-1.4865,-1.4775,-1.3779,-1.2859,-1.2964,-1.2503,-1.2166,-1.2798,-1.3533,-1.4135,-1.4311,-1.5104,-1.5756,-1.5932,-1.6271,-1.6522,-1.6522,-1.7488,-1.8894,-2.074,-2.379,-2.6426,0.0,0.0,-3.0896,0.0,0.0,0.0,-3.3155,-3.4008,-3.4472,-3.4472,-3.4936,-3.5295,-3.5504,-3.4816,-3.4592,-3.4801,-3.4577,-3.3903,-3.2856,-3.3754,0.0,0.0,0.0,0.0,0.0,-3.3903,-3.4442,-3.4876,-3.4876,-3.4996,-3.516,-3.4951,-3.4996,-3.5175,-3.5175,-3.5175,-3.5175,-3.5175,-3.5687,-3.6364,-3.6985,-3.6971,-3.6903,-3.7677,-3.8261,-3.8481,-3.7736,-3.7922,-3.7973,-3.6705,-3.6417,-3.6265,-3.574,-3.5622,-3.5622,-3.5622,-3.6165,-3.6764,-3.7152,-3.7522,-3.7612,-3.7191,-3.689,-3.6413,-3.5605,-3.5,-3.4633,-3.4633,-3.4137,-3.3697,-3.344,-3.2687,-3.188,-3.1072,-3.0503,-2.9843,-2.9012,-2.8994,-2.8994,-2.8994,-2.9255,-2.9659,-3.021,-3.0999,-3.1953,-3.3036,-3.3036,-3.3183,-1.2381,-1.2842,-1.3203,-1.3379,-1.2711,-1.2159,-1.2658,-1.2401,-1.2267,-1.2986,-1.3471,-1.3909,-1.4324,-1.4966,-1.5517,-1.5944,-1.6296,-1.6522,-1.6522,-1.7488,-1.9155,-2.1684,-2.4988,0.0,0.0,-2.974,0.0,0.0,0.0,0.0,-3.3095,-3.3754,-3.4218,-3.4472,-3.5145,-3.5385,-3.5115,-3.4442,-3.4233,-3.4472,-3.3978,-3.344,-3.2901,-3.3469,0.0,0.0,0.0,0.0,0.0,-3.4487,-3.5115,-3.5504,-3.5504,-3.5504,-3.5504,-3.5504,-3.5504,-3.5504,-3.5504,-3.5504,-3.5504,-3.5504,-3.6006,-3.6722,-3.7573,-3.7867,-3.802,-3.8265,-3.8853,-3.9242,-3.8514,-3.865,-3.8684,-3.7483,-3.7212,-3.7077,-3.6586,-3.6485,-3.64,-3.6113,-3.6456,-3.6828,-3.6895,-3.747,-3.7742,-3.7275,-3.6955,-3.648,-3.5695,-3.4856,-3.4316,-3.4316,-3.4019,-3.3807,-3.3807,-3.3348,-3.2706,-3.1898,-3.1384,-3.0742,-2.9953,-2.9622,-2.9604,-2.9898,-2.9916,-3.0301,-3.1109,-3.1916,-3.2816,-3.3807,-3.3807,-3.3807,0.0,-1.1217,-1.1693,-1.2028,-1.1895,-1.1818,-1.224,-1.2424,0.0,-1.3094,-1.3223,-1.3622,-1.4714,-1.4941,-1.5318,-1.6346,-1.6559,-1.6572,-1.6572,-1.7689,-1.9594,-2.2538,-2.4832,0.0,-2.8397,0.0,0.0,0.0,0.0,0.0,-3.2318,-3.3065,-3.3769,-3.4319,-3.5026,-3.507,-3.4487,-3.3829,-3.3799,-3.4382,-3.3215,-3.2946,-3.3469,-3.2901,0.0,0.0,0.0,0.0,0.0,-3.4981,-3.5504,-3.5504,-3.5504,-3.5504,-3.5504,-3.5504,-3.5504,-3.5504,-3.5504,-3.5504,-3.5504,-3.5504,-3.6006,-3.6722,-3.7515,-3.8778,-3.9868,-3.9259,-3.9546,-3.9918,-3.9242,-3.9073,-3.8886,-3.8159,-3.799,-3.7973,-3.7922,-3.7905,-3.7686,-3.6924,-3.7158,-3.7214,-3.6513,-3.7155,-3.7538,-3.6852,-3.611,-3.5331,-3.4524,-3.3731,-3.3208,-3.3184,-3.3522,-3.3762,-3.3807,-3.3807,-3.3458,-3.2669,-3.2614,-3.2247,-3.1421,-3.0687,-3.0632,-3.1384,-3.1458,-3.1843,-3.2614,-3.3421,-3.3807,-3.3807,-3.3862,-3.3899,-0.999,0.0,-1.1686,-1.1373,-1.1538,-1.1804,0.0,-1.223,-1.265,-1.3094,-1.3571,-1.411,-1.4777,-1.5255,-1.5731,-1.6409,-1.6886,-1.7174,-1.7174,-1.9585,-2.1962,-2.3612,-2.5368,-2.692,-2.824,0.0,0.0,0.0,0.0,-3.1238,0.0,-3.2467,-3.3297,-3.2771,-3.3532,-3.4128,-3.4472,-3.3829,-3.3574,-3.3724,-3.3918,-3.3829,-3.3499,-3.3858,0.0,0.0,0.0,0.0,-3.4307,-3.516,-3.5504,-3.5504,-3.5504,-3.5504,-3.5504,-3.5504,-3.5504,-3.5504,-3.5504,-3.5504,-3.5504,-3.5504,-3.6006,-3.6676,-3.6843,-3.7946,-3.9282,-3.9699,-3.9952,-4.0037,-3.9868,-3.9817,-3.9648,-3.8903,-3.8734,-3.8582,-3.8024,-3.7905,-3.7686,-3.6924,-3.6893,-3.6847,-3.6471,-3.6603,-3.6851,-3.7037,-3.6363,-3.5563,-3.4798,-3.3999,-3.3437,-3.3208,-3.3273,-3.3465,-3.3762,-3.3807,-3.3458,-3.2669,-3.2614,-3.2247,-3.1421,-3.1219,-3.1201,-3.1384,-3.2008,-3.2412,-3.2614,-3.3421,-3.3807,-3.3807,-3.4431,-3.4715,-1.0392,-1.1025,-1.1768,-1.1499,-1.1948,-1.2484,-1.2484,-1.2865,-1.3238,-1.3213,-1.3873,-1.4563,-1.4853,-1.5329,-1.5969,-1.6785,-1.7174,-1.7639,-1.8392,-2.0263,-2.2305,-2.436,-2.5294,-2.6479,0.0,0.0,0.0,0.0,0.0,-3.0435,0.0,-3.1489,-3.233,-3.1743,-3.1948,-3.2655,-3.4023,-3.3679,-3.3649,-3.3948,-3.3694,-3.3544,-3.3499,-3.3559,-3.338,0.0,0.0,0.0,-3.4532,-3.522,-3.5504,-3.5504,-3.5504,-3.5504,-3.5504,-3.5504,-3.5504,-3.5504,-3.5504,-3.5504,-3.5504,-3.5504,-3.5782,-3.6165,-3.6492,-3.7172,-3.7987,-3.8816,-3.9049,-3.9102,-3.9437,-3.9542,-3.9562,-3.9513,-3.9495,-3.9394,-3.8988,-3.8633,-3.8193,-3.7449,-3.7009,-3.661,-3.6104,-3.6224,-3.6498,-3.6803,-3.6159,-3.5454,-3.5072,-3.4018,-3.3336,-3.338,-3.326,-3.3361,-3.378,-3.3807,-3.3605,-3.3183,-3.3146,-3.2963,-3.2522,-3.2155,-3.1953,-3.1953,-3.2742,-3.3146,-3.3146,-3.3587,-3.3807,-3.3807,-3.4266,-3.4669,-1.1111,-1.1587,-1.2207,-1.2063,-1.2726,-1.34,-1.3438,-1.3827,-1.4085,-1.3549,-1.4287,-1.5029,-1.5029,-1.5442,-1.617,-1.7212,-1.7664,-1.849,-2.0283,-2.1082,-2.2498,-2.5063,-2.5389,0.0,0.0,0.0,0.0,0.0,0.0,-2.9504,0.0,-3.0208,-3.1011,-3.0677,-3.0268,-3.1014,-3.2936,-3.3179,-3.3689,-3.4472,-3.3455,-3.326,-3.3784,-3.311,-3.2871,0.0,0.0,0.0,-3.4681,-3.5265,-3.5504,-3.5504,-3.5504,-3.5504,-3.5504,-3.5504,-3.5504,-3.5504,-3.5504,-3.5504,-3.5504,-3.5504,-3.5504,-3.5619,-3.6212,-3.6446,-3.6554,-3.7235,-3.7648,-3.7978,-3.869,-3.8908,-3.9086,-3.9901,-4.007,-4.007,-4.007,-3.9512,-3.8819,-3.8193,-3.7466,-3.6705,-3.5926,-3.6156,-3.6404,-3.6326,-3.5756,-3.529,-3.5209,-3.4047,-3.3355,-3.3741,-3.3484,-3.3454,-3.3945,-3.3862,-3.3807,-3.3807,-3.3807,-3.3807,-3.3807,-3.3146,-3.2797,-3.2797,-3.3458,-3.3807,-3.3807,-3.3917,-3.399,-3.399,-3.4247,-3.4724,-1.1072,-1.2313,-1.3556,-1.2721,-1.3184,-1.3907,-1.3951,-1.4406,-1.4765,-1.4676,-1.5128,-1.5567,-1.5567,-1.6019,-1.6609,-1.7275,-1.8945,-2.0983,0.0,0.0,-2.5475,-2.5963,0.0,0.0,0.0,0.0,0.0,0.0,0.0,0.0,0.0,-2.8492,-2.9044,-2.8237,-2.8853,-2.9652,-3.0558,-3.1818,-3.3143,-3.4472,-3.4861,-3.51,-3.5175,-3.4487,-3.4487,0.0,0.0,-3.4801,-3.5355,-3.5459,-3.5504,-3.5504,-3.5504,-3.5504,-3.5504,-3.5504,-3.5504,-3.5504,-3.5504,-3.5504,-3.5504,-3.5504,-3.5504,-3.5504,-3.5604,-3.5668,-3.5668,-3.5797,-3.6768,-3.7978,-3.869,-3.8908,-3.9086,-3.9901,-4.007,-4.007,-4.007,-3.9512,-3.8954,-3.8853,-3.8244,-3.7499,-3.6738,-3.6678,-3.6503,-3.5841,-3.5637,-3.5331,-3.4686,-3.4415,-3.4346,-3.4588,-3.3968,-3.3888,-3.4733,-3.4192,-3.3807,-3.3807,-3.3807,-3.3807,-3.3807,-3.3678,-3.3623,-3.3623,-3.3733,-3.3807,-3.3807,-3.4486,-3.4807,-3.4844,-3.6266,-3.6982,-1.1518,-1.2447,-1.3477,-1.3062,-1.3966,-1.4869,-1.4602,-1.4972,-1.5229,-1.4966,-1.5542,-1.6045,-1.5756,-1.6396,-1.7463,-1.892,-2.0899,-2.2766,-2.4195,-2.4819,-2.5593,0.0,0.0,0.0,0.0,0.0,0.0,0.0,0.0,0.0,0.0,0.0,-2.862,-2.7736,-2.8117,-2.8842,-2.9965,-3.0242,-3.1448,-3.3774,-3.4222,-3.4337,-3.4178,-3.3568,-3.3627,-3.4178,0.0,-3.4445,-3.5504,-3.5504,-3.5504,-3.5504,-3.5504,-3.5504,-3.5504,-3.5504,-3.5504,-3.5504,-3.5504,-3.5504,-3.5504,-3.5504,-3.5504,-3.5504,-3.5504,-3.5504,-3.5504,-3.5504,-3.6037,-3.6829,-3.8019,-3.8318,-3.8596,-3.9782,-4.007,-4.007,-4.007,-3.9512,-3.8988,-3.8988,-3.8396,-3.7669,-3.6907,-3.6772,-3.6518,-3.574,-3.5622,-3.5504,-3.5148,-3.4742,-3.4727,-3.531,-3.4323,-3.4002,-3.4916,-3.4266,-3.3807,-3.3807,-3.3807,-3.3807,-3.3807,-3.3807,-3.3807,-3.3807,-3.4229,-3.4468,-3.4468,-3.5293,-3.5716,-3.5734,-3.6486,-3.7074,-1.2036,-1.2636,-1.3344,-1.3469,-1.4514,-1.5455,-1.5316,-1.5693,-1.6007,-1.5718,-1.622,-1.6597,-1.617,-1.6898,-1.8254,-2.0378,-2.2434,-2.4153,-2.5137,-2.5432,-2.6161,0.0,0.0,0.0,0.0,0.0,0.0,0.0,0.0,0.0,0.0,0.0,-2.8117,-2.7417,-2.7417,-2.8014,-2.917,-2.8719,-2.9901,-3.2715,-3.2849,-3.2902,-3.2758,-3.2182,-3.2442,-3.3336,-3.3229,-3.409,-3.5504,-3.5504,-3.5504,-3.5504,-3.5504,-3.5504,-3.5504,-3.5504,-3.5504,-3.5504,-3.5504,-3.5504,-3.5504,-3.5504,-3.5504,-3.5504,-3.5504,-3.5504,-3.5504,-3.5504,-3.5504,-3.5861,-3.7413,-3.7822,-3.8206,-3.9731,-4.007,-4.007,-4.007,-3.9512,-3.9039,-3.9208,-3.8667,-3.7922,-3.7161,-3.7043,-3.6721,-3.5774,-3.5622,-3.5622,-3.5622,-3.5115,-3.5027,-3.5706,-3.48,-3.4363,-3.4952,-3.4449,-3.4009,-3.3807,-3.3807,-3.388,-3.4082,-3.4082,-3.4174,-3.4376,-3.5,-3.5312,-3.533,-3.6156,-3.6578,-3.6578,-3.6762,-3.7184,-1.2369,-1.3163,-1.4048,-1.4048,-1.4447,-1.5139,-1.6156,-1.6848,-1.74,-1.7865,-1.7614,-1.73,-1.7262,-1.7739,-1.8694,-2.0441,-2.276,-2.5164,-2.7589,0.0,0.0,0.0,0.0,0.0,0.0,0.0,0.0,0.0,0.0,0.0,0.0,0.0,0.0,-2.6589,-2.6589,-2.6602,-2.6777,-2.7416,-2.8892,-3.1135,-3.116,-3.1453,-3.1888,-3.1344,-3.2125,-3.3926,-3.3402,-3.409,-3.5504,-3.5504,-3.5504,-3.5504,-3.5504,-3.5504,-3.5504,-3.5504,-3.5504,-3.5504,-3.5504,-3.5504,-3.5504,-3.5504,-3.5504,-3.5504,-3.5504,-3.5504,-3.5504,-3.5504,-3.5504,-3.5861,-3.7413,-3.7822,-3.8206,-3.9731,-4.007,-4.007,-4.007,-3.9512,-3.9191,-3.9868,-3.9411,-3.8684,-3.7956,-3.7821,-3.733,-3.5842,-3.5622,-3.5622,-3.5622,-3.5571,-3.547,-3.5342,-3.5583,-3.5541,-3.5044,-3.4935,-3.4614,-3.3844,-3.3807,-3.4137,-3.4862,-3.4899,-3.5293,-3.6101,-3.6174,-3.6211,-3.6211,-3.7,-3.7404,-3.7422,-3.8175,-3.856,-1.2885,-1.3471,-1.4085,-1.4085,-1.4722,-1.5541,-1.6353,-1.7225,-1.7852,-1.7714,-1.8742,-1.9724,-2.0147,-1.9713,-2.0113,-2.2591,-2.4874,-2.6778,-2.8108,0.0,0.0,0.0,0.0,0.0,0.0,0.0,0.0,0.0,0.0,0.0,0.0,0.0,0.0,-2.6533,-2.6533,-2.6533,-2.6533,-2.6782,-2.7369,-2.8192,-2.967,-3.0362,-3.0373,-2.978,-3.0432,-3.2019,-3.1847,-3.3006,-3.4906,-3.5325,-3.5504,-3.5504,-3.5504,-3.5504,-3.5504,-3.5504,-3.5504,-3.5504,-3.5504,-3.5504,-3.5504,-3.5504,-3.5504,-3.5504,-3.5504,-3.5504,-3.5504,-3.5504,-3.5504,-3.5733,-3.6814,-3.7456,-3.8035,-3.9102,-3.9731,-4.007,-4.007,-3.9868,-3.9749,-4.002,-3.9851,-3.9292,-3.8108,-3.7905,-3.7381,-3.5842,-3.5622,-3.5622,-3.5622,-3.5622,-3.5521,-3.5302,-3.5249,-3.5258,-3.5307,-3.4578,-3.4491,-3.5302,-3.4853,-3.466,-3.4972,-3.5532,-3.5973,-3.6285,-3.678,-3.7037,-3.7037,-3.7845,-3.8248,-3.8248,-3.856,-3.8707,-1.2897,-1.337,-1.3871,-1.4035,-1.5054,-1.6195,-1.7099,-1.7915,-1.8455,-1.8417,-1.9785,-2.1073,-2.155,-2.1049,-2.1375,0.0,-2.587,-2.7487,0.0,0.0,0.0,0.0,0.0,0.0,0.0,0.0,0.0,0.0,0.0,0.0,0.0,0.0,0.0,0.0,-2.6345,-2.6276,-2.6533,-2.6533,-2.6533,-2.6533,-2.8132,-2.8892,-2.8768,-2.8265,-2.8875,-3.0392,-3.0336,-3.1712,-3.4076,-3.4342,-3.4589,-3.4891,-3.51,-3.5175,-3.5175,-3.5175,-3.5325,-3.5504,-3.5504,-3.5504,-3.5504,-3.5504,-3.5504,-3.5504,-3.5504,-3.5504,-3.5504,-3.5504,-3.5504,-3.5619,-3.6117,-3.704,-3.7978,-3.8745,-3.9489,-4.007,-4.007,-4.007,-4.007,-4.007,-4.007,-3.9681,-3.8464,-3.8058,-3.7466,-3.618,-3.5774,-3.5622,-3.5622,-3.5622,-3.5623,-3.5648,-3.5049,-3.4783,-3.5232,-3.4495,-3.447,-3.5641,-3.5586,-3.5626,-3.576,-3.6119,-3.6541,-3.7055,-3.7588,-3.7863,-3.7863,-3.8432,-3.8707,-3.8707,-3.8707,-3.8707,-1.2278,-1.2797,-1.3336,-1.3959,-1.5304,-1.6961,-1.8582,-1.8983,-1.9346,-2.0504,-2.0759,-2.0868,-2.1129,-2.1597,-2.2311,-2.346,-2.5284,-2.7006,0.0,0.0,0.0,0.0,0.0,0.0,0.0,0.0,0.0,0.0,0.0,0.0,0.0,0.0,0.0,0.0,-2.5887,-2.5862,-2.6508,-2.6521,-2.6521,-2.6533,-2.6533,-2.6753,-2.7256,-2.6703,-2.7575,-2.9482,-2.8913,-3.0376,-3.3151,-3.2465,-3.2694,-3.3574,-3.4218,-3.4472,-3.4472,-3.4487,-3.4921,-3.5504,-3.5504,-3.5504,-3.5504,-3.5504,-3.5504,-3.5504,-3.5504,-3.5504,-3.5504,-3.5504,-3.5504,-3.5504,-3.5504,-3.6662,-3.7978,-3.8745,-3.9489,-4.007,-4.007,-4.007,-4.007,-4.007,-4.007,-3.9851,-3.9123,-3.8396,-3.7652,-3.6891,-3.6129,-3.5622,-3.5622,-3.556,-3.581,-3.6333,-3.5065,-3.4376,-3.4783,-3.4801,-3.4707,-3.4416,-3.584,-3.692,-3.7477,-3.6725,-3.7074,-3.867,-3.8707,-3.8707,-3.8707,-3.8707,-3.8707,-3.8707,-3.8707,-3.8707,-1.2902,-1.3421,-1.4072,-1.4977,-1.5869,-1.6861,-1.8154,-1.8744,-1.9723,-2.2293,-2.2223,-2.237,-2.4542,-2.4036,-2.3774,-2.5418,-2.6592,0.0,0.0,0.0,0.0,0.0,0.0,0.0,0.0,0.0,0.0,0.0,0.0,0.0,0.0,0.0,0.0,0.0,-2.5146,-2.531,-2.585,-2.585,-2.605,-2.6533,-2.6533,-2.6609,-2.6703,-2.6596,-2.7152,-2.8251,-2.8556,-2.9577,-3.0979,-3.1833,-3.302,-3.4203,-3.4397,-3.4472,-3.4532,-3.5026,-3.5325,-3.5504,-3.5504,-3.5504,-3.5504,-3.5504,-3.5504,-3.5504,-3.5504,-3.5504,-3.5504,-3.5504,-3.5504,-3.5504,-3.5504,-3.6662,-3.7863,-3.8092,-3.9156,-4.007,-4.007,-4.007,-4.007,-4.007,-4.007,-3.9851,-3.9123,-3.8396,-3.7652,-3.6891,-3.6129,-3.5622,-3.5622,-3.5165,-3.5074,-3.5759,-3.4985,-3.4844,-3.5832,-3.51,-3.5109,-3.631,-3.5453,-3.5669,-3.7429,-3.7808,-3.8212,-3.8689,-3.8707,-3.8707,-3.8707,-3.8707,-3.8707,-3.8707,-3.8707,-3.8707,-1.2745,-1.3334,-1.4048,-1.5367,-1.6446,-1.7426,-1.8329,-1.9533,-2.1198,-2.3857,-2.3862,-2.4115,-2.6217,-2.569,0.0,-2.6404,-2.7141,0.0,0.0,0.0,0.0,0.0,0.0,0.0,0.0,0.0,0.0,0.0,0.0,0.0,0.0,0.0,0.0,0.0,-2.4261,-2.4409,-2.5285,-2.5485,-2.5674,-2.5812,-2.6251,-2.6339,-2.6126,-2.642,-2.6782,-2.7323,-2.8665,-2.9567,-3.0277,-3.226,-3.3332,-3.3754,-3.4262,-3.4322,-3.4158,-3.4846,-3.51,-3.513,-3.5415,-3.5504,-3.5504,-3.5504,-3.5504,-3.5504,-3.5504,-3.5504,-3.5504,-3.5504,-3.5504,-3.5504,-3.5504,-3.6415,-3.7397,-3.769,-3.8995,-4.007,-4.007,-4.007,-4.007,-4.007,-4.007,-3.9851,-3.9123,-3.8396,-3.7652,-3.6891,-3.6129,-3.5622,-3.5622,-3.5216,-3.5115,-3.5571,-3.4945,-3.4788,-3.5574,-3.4942,-3.5069,-3.6352,-3.5536,-3.5744,-3.7308,-3.7504,-3.7824,-3.8382,-3.8382,-3.8496,-3.8707,-3.8707,-3.8707,-3.8707,-3.8707,-3.8707,-1.2168,-1.283,-1.3599,-1.5341,-1.6999,-1.8355,-1.897,-2.0939,-2.3098,-2.4737,-2.5293,-2.5697,-2.64,-2.6497,-2.6497,-2.6497,0.0,0.0,0.0,0.0,0.0,0.0,0.0,0.0,0.0,0.0,0.0,0.0,0.0,0.0,0.0,0.0,0.0,-2.4503,-2.3304,-2.3304,-2.4745,-2.5209,-2.5234,0.0,-2.5837,-2.6063,-2.5611,-2.6189,-2.6521,-2.6752,-2.8811,-2.9925,-3.0545,-3.3081,-3.3451,-3.2647,-3.3903,-3.4023,-3.3574,-3.4233,-3.4517,-3.4666,-3.5295,-3.5504,-3.5504,-3.5504,-3.5504,-3.5504,-3.5504,-3.5504,-3.5504,-3.5504,-3.5504,-3.5504,-3.5504,-3.6054,-3.6783,-3.7632,-3.8941,-4.002,-4.007,-4.007,-4.007,-4.007,-4.007,-3.9868,-3.9208,-3.843,-3.7618,-3.6789,-3.6079,-3.5622,-3.5622,-3.5622,-3.5622,-3.5622,-3.5013,-3.459,-3.459,-3.459,-3.4789,-3.5296,-3.5953,-3.658,-3.7097,-3.6465,-3.6667,-3.7893,-3.7946,-3.8216,-3.8707,-3.8707,-3.8707,-3.8707,-3.8707,-3.8707,-1.2758,-1.3191,-1.3699,-1.5819,-1.7275,-1.8455,-1.9422,-2.118,-2.2688,-2.2679,-2.4192,-2.5619,-2.5777,-2.5824,-2.5824,0.0,0.0,0.0,0.0,0.0,0.0,0.0,0.0,0.0,0.0,0.0,0.0,0.0,0.0,0.0,0.0,0.0,0.0,-2.2474,-2.2229,-2.2759,-2.4167,-2.428,-2.4506,0.0,-2.5059,-2.5322,-2.5611,-2.6189,-2.685,-2.7417,-2.7291,-2.8675,-3.0989,-3.0963,-3.1575,-3.2587,-3.3395,-3.3619,-3.3574,-3.4233,-3.4816,-3.531,-3.5444,-3.5504,-3.5504,-3.5504,-3.5504,-3.5504,-3.5504,-3.5504,-3.5504,-3.5504,-3.5504,-3.5504,-3.5504,-3.6054,-3.6783,-3.7632,-3.8486,-3.9315,-3.9952,-4.007,-4.007,-4.007,-4.007,-4.002,-3.9868,-3.8768,-3.7449,-3.6079,-3.5723,-3.5622,-3.5622,-3.5622,-3.5622,-3.5622,-3.547,-3.5368,-3.5368,-3.5368,-3.5413,-3.5545,-3.5681,-3.6011,-3.6539,-3.7145,-3.761,-3.7893,-3.83,-3.8578,-3.8707,-3.8707,-3.8707,-3.8707,-3.8707,-3.8707,-1.2272,-1.3095,-1.4161,-1.6384,-1.7576,-1.8355,-1.8907,-2.051,-2.1697,-2.1111,-2.3439,-2.5615,-2.5615,-2.5615,-2.5615,0.0,0.0,0.0,0.0,0.0,0.0,0.0,0.0,0.0,0.0,0.0,0.0,0.0,0.0,0.0,0.0,-2.1037,-2.0974,-2.1877,-2.1491,-2.2008,-2.3516,-2.3866,-2.4004,-2.4017,-2.4556,-2.4958,-2.5259,-2.6088,-2.6905,-2.767,-2.7297,-2.8473,-3.0758,-3.0594,-3.1113,-3.197,-3.3093,-3.3223,-3.3033,-3.4092,-3.4696,-3.5055,-3.5385,-3.5504,-3.5504,-3.5504,-3.5504,-3.5504,-3.5504,-3.5504,-3.5504,-3.5504,-3.5504,-3.5504,-3.5504,-3.5782,-3.6352,-3.7515,-3.8098,-3.8672,-3.9817,-3.98,-3.9665,-4.0003,-4.007,-3.9969,-3.9614,-3.8345,-3.6975,-3.5791,-3.5622,-3.5622,-3.5622,-3.5622,-3.5622,-3.5622,-3.5622,-3.5694,-3.5985,-3.5968,-3.6097,-3.6357,-3.6357,-3.6481,-3.6764,-3.7488,-3.7893,-3.7893,-3.8183,-3.8446,-3.8707,-3.8707,-3.8707,-3.8707,-3.8707,-3.8707,-1.1664,-1.3021,-1.4676,-1.6527,-1.7438,-1.794,-1.8041,-1.937,-2.0461,-1.9967,-2.2625,-2.504,-2.4828,-2.4798,0.0,0.0,0.0,0.0,0.0,0.0,0.0,0.0,0.0,0.0,0.0,0.0,0.0,0.0,0.0,0.0,-2.1641,-2.0865,-2.0837,-2.1747,-2.1037,-2.1413,-2.294,-2.3565,-2.3565,-2.3012,-2.4142,-2.4682,-2.472,-2.5724,-2.6675,-2.7591,-2.7498,-2.8492,-3.0115,-3.0591,-3.0902,-3.1199,-3.2579,-3.2768,-3.2387,-3.3669,-3.4203,-3.4382,-3.4951,-3.5235,-3.531,-3.519,-3.531,-3.5489,-3.537,-3.5415,-3.5504,-3.5504,-3.5504,-3.5504,-3.5504,-3.5619,-3.6022,-3.7472,-3.7767,-3.8226,-3.975,-3.9597,-3.9326,-3.98,-3.9783,-3.9478,-3.8734,-3.7601,-3.6518,-3.574,-3.5622,-3.5622,-3.5622,-3.5622,-3.5622,-3.5622,-3.5622,-3.5783,-3.6224,-3.6266,-3.6481,-3.7038,-3.7058,-3.7135,-3.7323,-3.7685,-3.7946,-3.8032,-3.8032,-3.8267,-3.8707,-3.8707,-3.8707,-3.8707,-3.8707,-3.8707,-1.2076,-1.3622,-1.4865,-1.5167,-1.5982,-1.6873,-1.7375,-1.8462,-1.9328,-1.9237,-2.1258,-2.2781,-2.1724,0.0,0.0,0.0,0.0,0.0,0.0,0.0,0.0,0.0,0.0,0.0,0.0,0.0,0.0,0.0,0.0,0.0,-2.0463,-2.0061,-2.0239,-2.1104,-2.0983,-2.1428,-2.2422,-2.2975,-2.2975,-2.2435,-2.3565,-2.4104,-2.413,-2.4757,-2.5729,-2.701,-2.6755,-2.7604,-2.917,-2.9064,-2.9582,-3.0502,-3.1246,-3.1892,-3.2467,-3.2676,-3.314,-3.3649,-3.3739,-3.4143,-3.4517,-3.3948,-3.4562,-3.5385,-3.4801,-3.504,-3.5504,-3.5504,-3.5504,-3.5504,-3.5504,-3.5943,-3.6676,-3.7573,-3.7767,-3.8226,-3.975,-4.0003,-3.9766,-3.9242,-3.8633,-3.7956,-3.7195,-3.6907,-3.6518,-3.574,-3.5622,-3.5622,-3.5622,-3.5622,-3.5622,-3.5622,-3.5622,-3.5622,-3.5694,-3.5694,-3.5941,-3.6457,-3.6498,-3.6904,-3.7755,-3.7877,-3.8099,-3.8578,-3.8578,-3.8627,-3.8707,-3.8707,-3.8707,-3.8707,-3.8707,-3.8707,-1.2198,-1.3023,-1.3571,-1.3873,-1.4551,-1.5318,-1.5885,-1.7122,-1.8183,-1.817,-1.9498,-2.0633,-2.0473,0.0,0.0,0.0,0.0,0.0,0.0,0.0,0.0,0.0,0.0,0.0,0.0,0.0,0.0,0.0,0.0,-2.0637,-2.0226,-2.0076,-2.0145,-2.057,-2.057,-2.1136,-2.2309,-2.2548,-2.2711,-2.2774,-2.3276,-2.3514,-2.354,-2.4104,-2.5307,-2.6892,-2.6251,-2.717,-2.9016,-2.8906,-2.8852,-2.903,-3.0678,-3.127,-3.1205,-3.2122,-3.2931,-3.3499,-3.3499,-3.3679,-3.3873,-3.3589,-3.4143,-3.4876,-3.4562,-3.4696,-3.5011,-3.5385,-3.5235,-3.5026,-3.54,-3.5718,-3.629,-3.7531,-3.7794,-3.8221,-3.9783,-3.9766,-3.9495,-3.958,-3.9005,-3.8278,-3.7533,-3.706,-3.6518,-3.574,-3.5622,-3.5622,-3.5622,-3.5622,-3.5622,-3.5622,-3.5622,-3.5739,-3.6011,-3.6054,-3.6291,-3.6803,-3.7097,-3.7452,-3.7859,-3.8183,-3.8465,-3.8707,-3.8707,-3.8707,-3.8707,-3.8707,-3.8707,-3.8707,-3.8707,-3.8707,-1.1941,-1.2333,-1.268,-1.2922,-1.3433,-1.4022,-1.4576,-1.5801,-1.687,0.0,-1.7753,-1.8605,0.0,0.0,0.0,0.0,0.0,0.0,0.0,0.0,0.0,0.0,0.0,0.0,0.0,0.0,0.0,0.0,0.0,-2.0486,-1.9925,-2.0177,-2.0334,-2.0334,-2.0334,-2.0811,-2.1882,-2.1895,-2.2234,-2.2924,-2.2924,-2.294,-2.309,-2.359,-2.4769,-2.6443,-2.5855,-2.6673,-2.8363,-2.8363,-2.8117,-2.792,-3.0011,-3.0557,-3.0256,-3.1676,-3.2572,-3.2991,-3.2991,-3.3095,-3.3245,-3.3245,-3.3694,-3.4233,-3.4233,-3.4233,-3.4337,-3.4846,-3.4622,-3.4382,-3.507,-3.5525,-3.6153,-3.7483,-3.8092,-3.8723,-3.985,-3.9512,-3.9157,-3.9698,-3.9056,-3.8261,-3.7719,-3.6992,-3.6282,-3.5707,-3.5622,-3.5622,-3.5622,-3.5622,-3.5622,-3.5622,-3.5622,-3.5783,-3.6182,-3.6182,-3.6416,-3.6943,-3.7323,-3.7631,-3.7893,-3.83,-3.8515,-3.8515,-3.8627,-3.8707,-3.8707,-3.8707,-3.8707,-3.8707,-3.8707,-3.8707,-1.111,-1.2058,-1.3035,-1.258,-1.2835,-1.3386,-1.3997,-1.4613,-1.5194,-1.5668,-1.6262,-1.664,0.0,0.0,0.0,0.0,0.0,0.0,0.0,0.0,0.0,0.0,0.0,0.0,0.0,0.0,0.0,0.0,0.0,-2.0225,-1.9108,-2.0085,-2.0648,-2.0648,-2.0648,-2.0715,-2.0806,-2.0806,-2.1292,-2.2347,-2.2347,-2.2623,-2.3078,-2.3103,-2.3949,-2.5315,-2.5511,-2.5992,-2.6658,-2.6658,-2.704,-2.7802,-2.8748,-2.9594,-3.0387,-3.1264,-3.1541,-3.1571,-3.1571,-3.2048,-3.2557,-3.2557,-3.3006,-3.3544,-3.3544,-3.3544,-3.3559,-3.3589,-3.3574,-3.3709,-3.4367,-3.5654,-3.6901,-3.7646,-3.8941,-4.002,-4.007,-3.9512,-3.9005,-3.9039,-3.7889,-3.6874,-3.684,-3.6197,-3.5673,-3.5622,-3.5622,-3.5622,-3.5622,-3.5622,-3.5622,-3.5622,-3.5622,-3.5622,-3.5667,-3.5667,-3.5854,-3.6416,-3.6457,-3.6904,-3.7859,-3.7946,-3.7946,-3.7946,-3.8433,-3.8707,-3.8707,-3.8707,-3.8707,-3.8707,-3.8707,-3.8707,-1.1583,-1.2034,-1.258,-1.2027,-1.2291,-1.2755,-1.2956,-1.3732,-1.4437,-1.4639,-1.5354,-1.5994,0.0,0.0,0.0,0.0,0.0,0.0,0.0,0.0,0.0,0.0,0.0,0.0,0.0,0.0,0.0,0.0,0.0,0.0,-1.8518,-1.8869,-1.9246,-1.961,-1.961,-1.9949,-2.0706,-2.1016,-2.1393,-2.1782,-2.2146,-2.2422,-2.2623,-2.2915,-2.3621,-2.4413,-2.452,-2.5396,-2.6778,-2.7141,-2.7162,-2.7095,-2.9066,-2.969,-2.9628,-3.1029,-3.1482,-3.1482,-3.1482,-3.1631,-3.1884,-3.1884,-3.2332,-3.2871,-3.2871,-3.2871,-3.2961,-3.338,-3.3185,-3.311,-3.4188,-3.4926,-3.5613,-3.6747,-3.7847,-3.8646,-3.8629,-3.8824,-3.914,-3.9597,-3.8886,-3.8058,-3.7584,-3.6874,-3.6197,-3.569,-3.5622,-3.5622,-3.5622,-3.5622,-3.5622,-3.5622,-3.5622,-3.5622,-3.5622,-3.5622,-3.5694,-3.5854,-3.6224,-3.6563,-3.6943,-3.7285,-3.7433,-3.7433,-3.7929,-3.8183,-3.8183,-3.8546,-3.8707,-3.8707,-3.8707,-3.8707,-1.208,-1.2302,-1.2554,-1.2002,-1.214,-1.2366,-1.2178,-1.2994,-1.3736,-1.358,-1.4396,-1.511,0.0,0.0,0.0,0.0,0.0,0.0,0.0,0.0,0.0,0.0,0.0,0.0,0.0,0.0,0.0,0.0,0.0,0.0,-1.794,-1.8103,-1.8367,-1.8744,-1.8744,-1.9196,-2.0112,-2.0476,-2.084,-2.1217,-2.1581,-2.1857,-2.2058,-2.2611,-2.3075,-2.3452,-2.3828,-2.4811,-2.6271,-2.6752,-2.6678,-2.6447,-2.8602,-2.9066,-2.8748,-3.0133,-3.0837,-3.1087,-3.1087,-3.1278,-3.1511,-3.1735,-3.2003,-3.2228,-3.2452,-3.2362,-3.2273,-3.2706,-3.2527,-3.2482,-3.3799,-3.4708,-3.5491,-3.675,-3.7033,-3.7207,-3.7691,-3.8434,-3.9143,-3.9614,-3.9123,-3.8481,-3.799,-3.706,-3.6214,-3.569,-3.5622,-3.5622,-3.5622,-3.5622,-3.5622,-3.5622,-3.5622,-3.5622,-3.5622,-3.5622,-3.5622,-3.5622,-3.5941,-3.6224,-3.6374,-3.6724,-3.6921,-3.6921,-3.7433,-3.7578,-3.7379,-3.8267,-3.8707,-3.8707,-3.8707,-3.8836,0.0,0.0,0.0,-1.2502,-1.2364,-1.2259,-1.1708,-1.2389,-1.3012,-1.2555,-1.3331,0.0,0.0,0.0,0.0,0.0,0.0,0.0,0.0,0.0,0.0,0.0,0.0,0.0,0.0,0.0,0.0,0.0,0.0,-1.7928,-1.7388,-1.7877,-1.8179,-1.8179,-1.8191,-1.8455,-1.8945,-1.8958,-1.9547,-2.0668,-2.0693,-2.0983,-2.1481,-2.2058,-2.2309,-2.2372,-2.3489,-2.428,-2.4808,-2.536,-2.5586,-2.5715,-2.709,-2.7723,-2.7802,-2.8684,-2.9566,-3.0269,-3.0269,-3.0777,-3.1571,-3.2213,-3.1989,-3.1601,-3.2287,-3.2033,-3.1482,-3.1482,-3.1482,-3.1839,-3.3155,-3.5003,-3.6736,-3.7541,-3.6662,-3.5995,-3.7376,-3.8224,-3.8821,-3.8924,-3.8396,-3.7905,-3.7872,-3.6637,-3.5639,-3.5622,-3.5622,-3.5622,-3.5622,-3.5622,-3.5622,-3.5622,-3.5622,-3.5622,-3.5622,-3.5622,-3.5622,-3.5622,-3.5622,-3.581,-3.6333,-3.6392,-3.6392,-3.6392,-3.6921,-3.6921,-3.6416,-3.7929,-3.8676,-3.8676,-3.8707,-3.9129,-1.2508,0.0,0.0,0.0,0.0,0.0,-1.1238,-1.1664,-1.2034,-1.1468,-1.2233,0.0,0.0,0.0,0.0,0.0,0.0,0.0,0.0,0.0,0.0,0.0,0.0,0.0,0.0,0.0,0.0,0.0,-1.681,-1.6923,-1.6773,-1.73,-1.7614,-1.7614,-1.8003,-1.8279,-1.843,-1.843,-1.8781,-1.9484,-1.9861,-2.0338,-2.0928,-2.1882,-2.2309,-2.2347,-2.3062,-2.3464,-2.3678,-2.4644,-2.5259,-2.5678,-2.6726,-2.7367,-2.7802,-2.8684,-2.9129,-2.938,-2.938,-2.995,-3.0673,-3.0848,-3.1176,-3.1511,-3.1691,-3.1616,-3.1482,-3.1482,-3.1482,-3.1839,-3.3155,-3.3938,-3.4546,-3.5263,-3.4729,-3.4248,-3.4619,-3.5331,-3.6348,-3.7918,-3.8041,-3.7736,-3.7195,-3.6738,-3.6265,-3.5707,-3.5622,-3.5622,-3.5622,-3.5622,-3.5622,-3.5622,-3.5622,-3.5622,-3.5622,-3.5622,-3.5622,-3.5622,-3.5622,-3.5667,-3.5827,-3.581,-3.581,-3.581,-3.6333,-3.6539,-3.6416,-3.7542,-3.8099,-3.8132,-3.8515,-3.8817,-1.2524,-1.2153,-1.1856,-1.202,0.0,0.0,-1.1055,-1.1212,-1.1291,0.0,-1.09,0.0,0.0,0.0,0.0,0.0,0.0,0.0,0.0,0.0,0.0,0.0,0.0,0.0,0.0,-1.6522,0.0,-1.6522,-1.6522,-1.6522,-1.6522,-1.6835,-1.7024,-1.7024,-1.7338,-1.7614,-1.7852,-1.7865,-1.8254,-1.8983,-1.9334,-1.9773,-2.0338,-2.1217,-2.1631,-2.1669,-2.2447,-2.2786,-2.2862,-2.3753,-2.4569,-2.5363,-2.609,-2.6712,-2.7297,-2.7802,-2.8182,-2.8427,-2.8427,-2.9254,-3.0329,-3.0329,-3.0837,-3.1482,-3.1482,-3.1482,-3.1482,-3.1482,-3.1676,-3.2123,-3.2886,-3.329,-3.3589,-3.3978,-3.3559,-3.3141,-3.3413,-3.3671,-3.4455,-3.6555,-3.6982,-3.6961,-3.6793,-3.6502,-3.6146,-3.569,-3.5622,-3.5622,-3.5622,-3.5622,-3.5622,-3.5622,-3.5622,-3.5622,-3.5622,-3.5622,-3.5622,-3.5622,-3.5622,-3.5622,-3.5622,-3.5622,-3.5622,-3.5622,-3.5898,-3.6291,-3.6724,-3.7323,-3.7614,-3.7614,-3.8696,-3.9072,-1.2519,-1.2114,-1.1832,-1.2168,-1.202,0.0,-1.0979,-1.0972,-1.0815,0.0,0.0,0.0,0.0,0.0,0.0,0.0,0.0,0.0,0.0,0.0,0.0,0.0,0.0,0.0,-1.6421,-1.6421,-1.6459,-1.6509,-1.6522,-1.6522,-1.6522,-1.6522,-1.6522,-1.6522,-1.6522,-1.6773,-1.7275,-1.7287,-1.7802,-1.8795,-1.8795,-1.9145,-1.9736,-2.0313,-2.0655,-2.0781,-2.1769,-2.2246,-2.2347,-2.2836,-2.3715,-2.477,-2.5234,-2.5774,-2.6289,-2.6408,-2.687,-2.7446,-2.7524,-2.8684,-3.0147,-3.0147,-3.0777,-3.1482,-3.1482,-3.1482,-3.1482,-3.1482,-3.1958,-3.2422,-3.2497,-3.2901,-3.3305,-3.3365,-3.2886,-3.2554,-3.3172,-3.2894,-3.3067,-3.4966,-3.5465,-3.5826,-3.6544,-3.6079,-3.5622,-3.5622,-3.5622,-3.5622,-3.5622,-3.5622,-3.5622,-3.5622,-3.5622,-3.5622,-3.5622,-3.5622,-3.5622,-3.5622,-3.5622,-3.5622,-3.5622,-3.5622,-3.5622,-3.5622,-3.565,-3.6207,-3.719,-3.719,-3.7266,-3.7432,-3.9013,-3.9506,-1.2277,-1.1985,-1.1578,-1.1256,-1.1437,0.0,-1.0594,-1.0684,-1.0805,0.0,-1.018,-1.0163,0.0,0.0,0.0,0.0,0.0,0.0,0.0,0.0,0.0,0.0,0.0,0.0,-1.5806,-1.5856,-1.6045,-1.6484,-1.6522,-1.6522,-1.6522,-1.6522,-1.6522,-1.6522,-1.6522,-1.6572,-1.6685,-1.6685,-1.7024,-1.7702,-1.7702,-1.8229,-1.9146,-1.9723,-2.0225,-2.0756,-2.1368,-2.1895,-2.2322,-2.2422,-2.3138,-2.4167,-2.4268,-2.4657,-2.5197,-2.5611,-2.5895,-2.6079,-2.6561,-2.7868,-2.9254,-2.9254,-3.0269,-3.1482,-3.1482,-3.1482,-3.1482,-3.1482,-3.1571,-3.1795,-3.2377,-3.2213,-3.2048,-3.2587,-3.2198,-3.1719,-3.1877,-3.1772,-3.1996,-3.3013,-3.4097,-3.5046,-3.5734,-3.5723,-3.5622,-3.5622,-3.5622,-3.5622,-3.5622,-3.5622,-3.5622,-3.5622,-3.5622,-3.5622,-3.5622,-3.5622,-3.5622,-3.5622,-3.5622,-3.5622,-3.5622,-3.5622,-3.5622,-3.5622,-3.6011,-3.6563,-3.719,-3.719,-3.7596,-3.8419,-3.8792,-3.8896,-1.2243,-1.1939,-1.1606,-1.1572,-1.1562,0.0,0.0,-1.0752,-1.0596,-1.0596,-1.0088,-0.9775,-1.0205,0.0,0.0,0.0,0.0,0.0,0.0,0.0,0.0,0.0,0.0,0.0,-1.5254,-1.553,-1.5919,-1.6471,-1.6522,-1.6522,-1.6522,-1.6194,-1.6051,-1.6051,-1.6051,-1.6051,-1.6051,-1.6337,-1.681,-1.7388,-1.7664,-1.8229,-1.8995,-1.956,-1.9962,-2.0263,-2.0828,-2.123,-2.1531,-2.2083,-2.2648,-2.3213,-2.3778,-2.4343,-2.4858,-2.5109,-2.5209,-2.535,-2.6358,-2.7236,-2.8162,-2.9282,-3.0208,-3.097,-3.1409,-3.1482,-3.1482,-3.1482,-3.1482,-3.1556,-3.1943,-3.1779,-3.1556,-3.1943,-3.1721,-3.1482,-3.1482,-3.1796,-3.2176,-3.2547,-3.3684,-3.4688,-3.5052,-3.5362,-3.5622,-3.5622,-3.5622,-3.5622,-3.5622,-3.5622,-3.5622,-3.5622,-3.5622,-3.5622,-3.5622,-3.5622,-3.5622,-3.5622,-3.5622,-3.5622,-3.5622,-3.5622,-3.5739,-3.5968,-3.6249,-3.6803,-3.7542,-3.7542,-3.7703,-3.7982,-3.8483,-3.8546,-1.2236,-1.193,0.0,0.0,0.0,-1.1595,0.0,0.0,0.0,0.0,0.0,0.0,0.0,0.0,0.0,0.0,0.0,0.0,0.0,0.0,0.0,0.0,0.0,0.0,0.0,-1.5064,-1.5578,-1.6022,-1.6102,-1.6151,-1.6151,-1.5688,-1.541,-1.541,-1.541,-1.541,-1.541,-1.592,-1.6473,-1.7077,-1.7467,-1.8122,-1.8882,-1.9296,-1.961,-1.9823,-2.03,-2.0618,-2.0794,-2.1631,-2.2058,-2.2272,-2.3389,-2.4104,-2.4506,-2.4619,-2.4669,-2.4796,-2.609,-2.6593,-2.7027,-2.8862,-2.98,-3.029,-3.1233,-3.1482,-3.1482,-3.1482,-3.1482,-3.1482,-3.1482,-3.1482,-3.1482,-3.1482,-3.1482,-3.1482,-3.1482,-3.1951,-3.2437,-3.2586,-3.3582,-3.4431,-3.4576,-3.5161,-3.5622,-3.5622,-3.5622,-3.5622,-3.5622,-3.5622,-3.5571,-3.5419,-3.5402,-3.5402,-3.5402,-3.5402,-3.547,-3.5605,-3.5622,-3.5622,-3.5622,-3.5694,-3.6028,-3.6522,-3.6643,-3.7117,-3.8047,-3.8047,-3.7843,-3.7524,-3.8318,-3.8465,0.0,0.0,0.0,0.0,-1.1351,0.0,0.0,0.0,-1.1914,-1.1596,0.0,0.0,0.0,0.0,0.0,0.0,0.0,0.0,0.0,0.0,0.0,0.0,0.0,0.0,0.0,0.0,-1.4319,-1.4376,-1.4687,-1.488,-1.488,-1.4835,-1.4789,-1.4789,-1.4789,-1.4789,-1.4789,-1.488,-1.522,-1.5816,-1.5876,-1.6727,-1.8304,-1.8355,-1.8907,-1.9798,-1.9874,-2.0188,-2.0731,-2.0857,-2.1142,-2.1694,-2.2799,-2.3215,-2.3389,-2.3904,-2.4092,-2.4167,-2.4848,-2.5511,-2.6237,-2.6489,-2.7927,-2.974,-3.1099,-3.1482,-3.1482,-3.1482,-3.1482,-3.1482,-3.1482,-3.1482,-3.1482,-3.1482,-3.1482,-3.1482,-3.1482,-3.1582,-3.1796,-3.2477,-3.3182,-3.3887,-3.4479,-3.5161,-3.5622,-3.5622,-3.5622,-3.5622,-3.5622,-3.5622,-3.5368,-3.4692,-3.4624,-3.4624,-3.4624,-3.4624,-3.4912,-3.5571,-3.5622,-3.5622,-3.5622,-3.6071,-3.6563,-3.7114,-3.7506,-3.8032,-3.8627,-3.8627,-3.8578,-3.8515,-3.8658,-3.8676,0.0,0.0,0.0,0.0,0.0,0.0,-1.0949,0.0,-1.1934,0.0,0.0,0.0,0.0,0.0,0.0,0.0,-1.136,0.0,0.0,0.0,0.0,0.0,0.0,0.0,0.0,0.0,0.0,0.0,0.0,-1.4328,-1.4328,-1.4233,-1.4329,-1.4709,-1.4698,-1.488,-1.5231,-1.5555,-1.5876,-1.6151,-1.6483,-1.7024,-1.7752,-1.8392,-1.8932,-1.9371,-1.9673,-1.9936,-2.0188,-2.058,-2.0803,-2.1091,-2.187,-2.2372,-2.2723,-2.3288,-2.3502,-2.3626,-2.4651,-2.5262,-2.5741,-2.6964,-2.8326,-2.967,-3.0619,-3.0941,-3.1016,-3.1362,-3.1482,-3.1482,-3.1482,-3.1482,-3.1482,-3.1482,-3.1482,-3.1482,-3.1482,-3.1853,-3.1998,-3.1475,-3.2882,-3.4006,-3.3535,-3.4629,-3.5622,-3.5622,-3.5622,-3.547,-3.503,-3.4962,-3.4675,-3.3947,-3.3863,-3.4032,-3.4455,-3.4489,-3.481,-3.5571,-3.5622,-3.5419,-3.4979,-3.5589,-3.6316,-3.7173,-3.7396,-3.7895,-3.8707,-3.8707,-3.8707,-3.8707,-3.8707,-3.8707,-1.0081,0.0,0.0,0.0,0.0,0.0,0.0,0.0,0.0,0.0,0.0,0.0,0.0,0.0,-1.1753,-1.1626,0.0,-1.1006,0.0,0.0,0.0,0.0,0.0,0.0,0.0,0.0,0.0,0.0,0.0,0.0,-1.3597,-1.3584,-1.3742,-1.4201,-1.4212,-1.4422,-1.4869,-1.5287,-1.57,-1.602,-1.6435,-1.6942,-1.7413,-1.8216,-1.8656,-1.8832,-1.9359,-1.9585,-1.9635,-2.02,-2.0426,-2.0489,-2.1041,-2.1606,-2.2159,-2.2711,-2.294,-2.3308,-2.4504,-2.5063,-2.5522,-2.7456,-2.8487,-2.9183,-3.0003,-3.0253,-3.0357,-3.0851,-3.112,-3.1255,-3.1255,-3.1332,-3.1482,-3.1482,-3.1482,-3.1482,-3.1482,-3.1758,-3.1787,-3.097,-3.2431,-3.3518,-3.2708,-3.425,-3.5622,-3.5622,-3.5622,-3.5351,-3.459,-3.4489,-3.4218,-3.3491,-3.322,-3.3406,-3.4134,-3.3998,-3.4303,-3.525,-3.5318,-3.5165,-3.481,-3.545,-3.6182,-3.696,-3.7248,-3.7703,-3.8285,-3.8433,-3.8433,-3.8285,-3.8578,-3.8817,0.0,0.0,0.0,-0.9101,0.0,0.0,0.0,0.0,-1.1883,0.0,0.0,0.0,0.0,-1.2171,-1.207,-1.1675,-1.1596,0.0,0.0,0.0,0.0,0.0,0.0,0.0,0.0,0.0,0.0,0.0,0.0,0.0,-1.2273,-1.2694,-1.2929,-1.2978,-1.2978,-1.2978,-1.2978,-1.3017,-1.361,-1.4755,-1.4766,-1.5682,-1.7388,-1.7413,-1.7727,-1.8267,-1.8819,-1.9008,-1.9046,-1.961,-1.9823,-1.9886,-2.0464,-2.1029,-2.1581,-2.2133,-2.2673,-2.3198,-2.4028,-2.4821,-2.5647,-2.7054,-2.753,-2.7824,-2.9238,-2.9609,-2.9609,-2.9639,-3.0073,-3.0537,-3.0537,-3.1031,-3.1482,-3.1482,-3.1482,-3.1482,-3.1482,-3.1016,-3.0744,-3.142,-3.1647,-3.188,-3.2417,-3.4208,-3.5622,-3.5622,-3.5622,-3.5351,-3.459,-3.4489,-3.4218,-3.3491,-3.2747,-3.2611,-3.3372,-3.2763,-3.2966,-3.4438,-3.4523,-3.4844,-3.5554,-3.6079,-3.6374,-3.6416,-3.7379,-3.7685,-3.7266,-3.7685,-3.7685,-3.7266,-3.8252,-3.9129,0.0,0.0,-0.8287,-0.8247,0.0,0.0,0.0,0.0,0.0,0.0,0.0,0.0,0.0,-1.2422,-1.208,-1.1675,-1.1361,-1.0928,0.0,0.0,0.0,0.0,0.0,0.0,0.0,0.0,0.0,0.0,-1.1299,0.0,0.0,-1.248,-1.3055,-1.3457,-1.3515,-1.3695,-1.4071,-1.4071,-1.4294,-1.4698,-1.4698,-1.5017,-1.5624,-1.638,-1.707,-1.7666,-1.8573,-1.9221,-1.9547,-1.9736,-1.9798,-1.9823,-2.0012,-2.0439,-2.1054,-2.197,-2.3,-2.406,-2.5342,-2.5906,-2.6258,-2.7231,-2.758,-2.7765,-2.8674,-2.8936,-2.9026,-2.946,-2.9729,-2.9894,-2.9894,-3.0058,-3.0342,-3.0746,-3.0851,-3.0971,-3.1377,-3.1287,-3.0983,-3.0386,-3.0968,-3.1503,-3.1272,-3.2176,-3.3387,-3.4705,-3.5301,-3.5165,-3.3931,-3.4201,-3.3829,-3.2121,-3.2154,-3.2374,-3.2645,-3.3322,-3.3744,-3.3778,-3.4692,-3.5131,-3.4878,-3.5511,-3.6054,-3.6374,-3.6706,-3.702,-3.719,-3.736,-3.736,-3.7228,-3.756,-3.7846,-0.7459,-0.7548,0.0,-0.7882,-0.8015,0.0,-0.9059,0.0,0.0,0.0,0.0,0.0,0.0,-1.2059,-1.2031,-1.1426,-1.1094,-1.0762,0.0,-1.0283,0.0,0.0,0.0,0.0,0.0,0.0,0.0,-1.0283,-1.0928,-1.1439,0.0,0.0,-1.2897,-1.3457,-1.3457,-1.3647,-1.4071,-1.4071,-1.4154,-1.4376,-1.4376,-1.4468,-1.4709,-1.5487,-1.601,-1.6468,-1.7788,-1.8598,-1.8932,-1.9533,-1.9798,-1.9798,-1.9798,-2.0162,-2.0832,-2.1681,-2.3166,-2.4851,-2.5783,-2.6443,-2.6982,-2.7458,-2.7625,-2.77,-2.8098,-2.8233,-2.8323,-2.8757,-2.9041,-2.9235,-2.9235,-2.94,-2.9684,-3.0088,-3.0178,-3.0357,-3.1016,-3.0806,-3.0313,-2.9699,-3.0091,-3.0443,-3.0203,-3.0974,-3.2156,-3.3896,-3.4566,-3.4538,-3.3516,-3.4032,-3.3846,-3.2154,-3.2154,-3.2171,-3.1918,-3.3,-3.3626,-3.3423,-3.4539,-3.5115,-3.4895,-3.5368,-3.5919,-3.6509,-3.6446,-3.6637,-3.7062,-3.6965,-3.6843,-3.6626,-3.6626,-3.6706]}]]